<?xml version="1.0" encoding="UTF-8" standalone="no" ?>
<gpx xmlns="http://www.topografix.com/GPX/1/1" xmlns:xsi="http://www.w3.org/2001/XMLSchema-instance" xsi:schemaLocation="http://www.topografix.com/GPX/1/1 http://www.topografix.com/GPX/1/1/gpx.xsd" version="1.1" creator="VisuGPX - https://www.visugpx.com">
  <metadata>
    <name>mtg</name>
  </metadata>
  <trk>
    <name><![CDATA[Ski rando le matin]]></name>
    <trkseg>
      <trkpt lat="44.93011" lon="6.72212">
        <ele>1846.4</ele>
        <time>2025-01-20T09:00:44Z</time>
      </trkpt>
      <trkpt lat="44.93005" lon="6.72216">
        <ele>1846.5</ele>
        <time>2025-01-20T09:00:51Z</time>
      </trkpt>
      <trkpt lat="44.92999" lon="6.72224">
        <ele>1846.7</ele>
        <time>2025-01-20T09:00:59Z</time>
      </trkpt>
      <trkpt lat="44.92996" lon="6.72231">
        <ele>1846.4</ele>
        <time>2025-01-20T09:01:05Z</time>
      </trkpt>
      <trkpt lat="44.92996" lon="6.72239">
        <ele>1845.9</ele>
        <time>2025-01-20T09:01:11Z</time>
      </trkpt>
      <trkpt lat="44.92994" lon="6.72248">
        <ele>1845.5</ele>
        <time>2025-01-20T09:01:18Z</time>
      </trkpt>
      <trkpt lat="44.92993" lon="6.72257">
        <ele>1844.9</ele>
        <time>2025-01-20T09:01:25Z</time>
      </trkpt>
      <trkpt lat="44.92992" lon="6.72263">
        <ele>1844.6</ele>
        <time>2025-01-20T09:01:32Z</time>
      </trkpt>
      <trkpt lat="44.92988" lon="6.72272">
        <ele>1844.1</ele>
        <time>2025-01-20T09:01:39Z</time>
      </trkpt>
      <trkpt lat="44.92986" lon="6.72275">
        <ele>1843.7</ele>
        <time>2025-01-20T09:01:44Z</time>
      </trkpt>
      <trkpt lat="44.92981" lon="6.7228">
        <ele>1843.3</ele>
        <time>2025-01-20T09:01:50Z</time>
      </trkpt>
      <trkpt lat="44.92977" lon="6.72283">
        <ele>1843</ele>
        <time>2025-01-20T09:01:56Z</time>
      </trkpt>
      <trkpt lat="44.9298" lon="6.72294">
        <ele>1842.8</ele>
        <time>2025-01-20T09:02:03Z</time>
      </trkpt>
      <trkpt lat="44.92975" lon="6.72295">
        <ele>1843.4</ele>
        <time>2025-01-20T09:02:09Z</time>
      </trkpt>
      <trkpt lat="44.92973" lon="6.72295">
        <ele>1843.7</ele>
        <time>2025-01-20T09:02:11Z</time>
      </trkpt>
      <trkpt lat="44.92971" lon="6.72295">
        <ele>1843.9</ele>
        <time>2025-01-20T09:02:13Z</time>
      </trkpt>
      <trkpt lat="44.92965" lon="6.72292">
        <ele>1844.8</ele>
        <time>2025-01-20T09:02:19Z</time>
      </trkpt>
      <trkpt lat="44.92959" lon="6.7229">
        <ele>1845.6</ele>
        <time>2025-01-20T09:02:25Z</time>
      </trkpt>
      <trkpt lat="44.92952" lon="6.72287">
        <ele>1846.5</ele>
        <time>2025-01-20T09:02:31Z</time>
      </trkpt>
      <trkpt lat="44.9295" lon="6.72286">
        <ele>1846.9</ele>
        <time>2025-01-20T09:02:36Z</time>
      </trkpt>
      <trkpt lat="44.9295" lon="6.72286">
        <ele>1846.9</ele>
        <time>2025-01-20T09:02:47Z</time>
      </trkpt>
      <trkpt lat="44.9295" lon="6.72286">
        <ele>1846.9</ele>
        <time>2025-01-20T09:03:01Z</time>
      </trkpt>
      <trkpt lat="44.9295" lon="6.72286">
        <ele>1846.9</ele>
        <time>2025-01-20T09:03:15Z</time>
      </trkpt>
      <trkpt lat="44.9295" lon="6.72286">
        <ele>1846.9</ele>
        <time>2025-01-20T09:03:30Z</time>
      </trkpt>
      <trkpt lat="44.9295" lon="6.72286">
        <ele>1846.9</ele>
        <time>2025-01-20T09:03:40Z</time>
      </trkpt>
      <trkpt lat="44.9295" lon="6.72286">
        <ele>1846.9</ele>
        <time>2025-01-20T09:03:52Z</time>
      </trkpt>
      <trkpt lat="44.92949" lon="6.72285">
        <ele>1847</ele>
        <time>2025-01-20T09:04:06Z</time>
      </trkpt>
      <trkpt lat="44.92949" lon="6.72285">
        <ele>1847</ele>
        <time>2025-01-20T09:04:18Z</time>
      </trkpt>
      <trkpt lat="44.92949" lon="6.72284">
        <ele>1847.1</ele>
        <time>2025-01-20T09:04:33Z</time>
      </trkpt>
      <trkpt lat="44.92948" lon="6.72281">
        <ele>1847.5</ele>
        <time>2025-01-20T09:04:41Z</time>
      </trkpt>
      <trkpt lat="44.92941" lon="6.72279">
        <ele>1848.4</ele>
        <time>2025-01-20T09:04:49Z</time>
      </trkpt>
      <trkpt lat="44.92935" lon="6.72279">
        <ele>1849</ele>
        <time>2025-01-20T09:04:56Z</time>
      </trkpt>
      <trkpt lat="44.92931" lon="6.72277">
        <ele>1849.5</ele>
        <time>2025-01-20T09:05:02Z</time>
      </trkpt>
      <trkpt lat="44.92925" lon="6.72273">
        <ele>1850.1</ele>
        <time>2025-01-20T09:05:08Z</time>
      </trkpt>
      <trkpt lat="44.92922" lon="6.72273">
        <ele>1850.3</ele>
        <time>2025-01-20T09:05:13Z</time>
      </trkpt>
      <trkpt lat="44.92917" lon="6.7227">
        <ele>1850.7</ele>
        <time>2025-01-20T09:05:19Z</time>
      </trkpt>
      <trkpt lat="44.92914" lon="6.7227">
        <ele>1850.9</ele>
        <time>2025-01-20T09:05:25Z</time>
      </trkpt>
      <trkpt lat="44.92907" lon="6.72269">
        <ele>1851.3</ele>
        <time>2025-01-20T09:05:30Z</time>
      </trkpt>
      <trkpt lat="44.92907" lon="6.72269">
        <ele>1851.3</ele>
        <time>2025-01-20T09:05:31Z</time>
      </trkpt>
      <trkpt lat="44.92905" lon="6.72268">
        <ele>1851.4</ele>
        <time>2025-01-20T09:05:34Z</time>
      </trkpt>
      <trkpt lat="44.92902" lon="6.72268">
        <ele>1851.5</ele>
        <time>2025-01-20T09:05:36Z</time>
      </trkpt>
      <trkpt lat="44.92901" lon="6.72267">
        <ele>1851.6</ele>
        <time>2025-01-20T09:05:40Z</time>
      </trkpt>
      <trkpt lat="44.92898" lon="6.72267">
        <ele>1851.7</ele>
        <time>2025-01-20T09:05:44Z</time>
      </trkpt>
      <trkpt lat="44.92895" lon="6.72267">
        <ele>1851.9</ele>
        <time>2025-01-20T09:05:49Z</time>
      </trkpt>
      <trkpt lat="44.9289" lon="6.72265">
        <ele>1852.1</ele>
        <time>2025-01-20T09:05:53Z</time>
      </trkpt>
      <trkpt lat="44.92885" lon="6.72264">
        <ele>1852.3</ele>
        <time>2025-01-20T09:05:58Z</time>
      </trkpt>
      <trkpt lat="44.92882" lon="6.72262">
        <ele>1852.4</ele>
        <time>2025-01-20T09:06:02Z</time>
      </trkpt>
      <trkpt lat="44.92877" lon="6.72261">
        <ele>1852.6</ele>
        <time>2025-01-20T09:06:07Z</time>
      </trkpt>
      <trkpt lat="44.92875" lon="6.7226">
        <ele>1852.7</ele>
        <time>2025-01-20T09:06:08Z</time>
      </trkpt>
      <trkpt lat="44.92872" lon="6.72259">
        <ele>1852.8</ele>
        <time>2025-01-20T09:06:12Z</time>
      </trkpt>
      <trkpt lat="44.92869" lon="6.72258">
        <ele>1852.9</ele>
        <time>2025-01-20T09:06:16Z</time>
      </trkpt>
      <trkpt lat="44.92865" lon="6.72254">
        <ele>1853.2</ele>
        <time>2025-01-20T09:06:21Z</time>
      </trkpt>
      <trkpt lat="44.92861" lon="6.72256">
        <ele>1853.4</ele>
        <time>2025-01-20T09:06:25Z</time>
      </trkpt>
      <trkpt lat="44.92858" lon="6.72254">
        <ele>1853.6</ele>
        <time>2025-01-20T09:06:29Z</time>
      </trkpt>
      <trkpt lat="44.92857" lon="6.72253">
        <ele>1853.7</ele>
        <time>2025-01-20T09:06:32Z</time>
      </trkpt>
      <trkpt lat="44.92852" lon="6.7225">
        <ele>1854.1</ele>
        <time>2025-01-20T09:06:37Z</time>
      </trkpt>
      <trkpt lat="44.92849" lon="6.72248">
        <ele>1854.4</ele>
        <time>2025-01-20T09:06:41Z</time>
      </trkpt>
      <trkpt lat="44.92846" lon="6.72247">
        <ele>1854.6</ele>
        <time>2025-01-20T09:06:44Z</time>
      </trkpt>
      <trkpt lat="44.92846" lon="6.72248">
        <ele>1854.7</ele>
        <time>2025-01-20T09:06:45Z</time>
      </trkpt>
      <trkpt lat="44.92844" lon="6.72248">
        <ele>1854.8</ele>
        <time>2025-01-20T09:06:46Z</time>
      </trkpt>
      <trkpt lat="44.92841" lon="6.72247">
        <ele>1855.1</ele>
        <time>2025-01-20T09:06:50Z</time>
      </trkpt>
      <trkpt lat="44.92838" lon="6.72246">
        <ele>1855.4</ele>
        <time>2025-01-20T09:06:54Z</time>
      </trkpt>
      <trkpt lat="44.92833" lon="6.72243">
        <ele>1855.9</ele>
        <time>2025-01-20T09:07:00Z</time>
      </trkpt>
      <trkpt lat="44.9283" lon="6.72242">
        <ele>1856.2</ele>
        <time>2025-01-20T09:07:04Z</time>
      </trkpt>
      <trkpt lat="44.92825" lon="6.7224">
        <ele>1856.7</ele>
        <time>2025-01-20T09:07:08Z</time>
      </trkpt>
      <trkpt lat="44.92821" lon="6.72239">
        <ele>1857.1</ele>
        <time>2025-01-20T09:07:12Z</time>
      </trkpt>
      <trkpt lat="44.92815" lon="6.72236">
        <ele>1857.7</ele>
        <time>2025-01-20T09:07:17Z</time>
      </trkpt>
      <trkpt lat="44.92814" lon="6.72235">
        <ele>1857.9</ele>
        <time>2025-01-20T09:07:19Z</time>
      </trkpt>
      <trkpt lat="44.92812" lon="6.72235">
        <ele>1858.1</ele>
        <time>2025-01-20T09:07:21Z</time>
      </trkpt>
      <trkpt lat="44.92809" lon="6.72234">
        <ele>1858.4</ele>
        <time>2025-01-20T09:07:25Z</time>
      </trkpt>
      <trkpt lat="44.92807" lon="6.72232">
        <ele>1858.7</ele>
        <time>2025-01-20T09:07:29Z</time>
      </trkpt>
      <trkpt lat="44.92804" lon="6.7223">
        <ele>1859</ele>
        <time>2025-01-20T09:07:31Z</time>
      </trkpt>
      <trkpt lat="44.92803" lon="6.7223">
        <ele>1859.1</ele>
        <time>2025-01-20T09:07:33Z</time>
      </trkpt>
      <trkpt lat="44.92803" lon="6.7223">
        <ele>1859.2</ele>
        <time>2025-01-20T09:07:34Z</time>
      </trkpt>
      <trkpt lat="44.92801" lon="6.72229">
        <ele>1859.4</ele>
        <time>2025-01-20T09:07:35Z</time>
      </trkpt>
      <trkpt lat="44.928" lon="6.72228">
        <ele>1859.6</ele>
        <time>2025-01-20T09:07:38Z</time>
      </trkpt>
      <trkpt lat="44.92797" lon="6.72227">
        <ele>1859.9</ele>
        <time>2025-01-20T09:07:42Z</time>
      </trkpt>
      <trkpt lat="44.92795" lon="6.72227">
        <ele>1860</ele>
        <time>2025-01-20T09:07:43Z</time>
      </trkpt>
      <trkpt lat="44.92793" lon="6.72225">
        <ele>1860.3</ele>
        <time>2025-01-20T09:07:45Z</time>
      </trkpt>
      <trkpt lat="44.92793" lon="6.72226">
        <ele>1860.4</ele>
        <time>2025-01-20T09:07:46Z</time>
      </trkpt>
      <trkpt lat="44.92791" lon="6.72225">
        <ele>1860.6</ele>
        <time>2025-01-20T09:07:47Z</time>
      </trkpt>
      <trkpt lat="44.92788" lon="6.72224">
        <ele>1860.9</ele>
        <time>2025-01-20T09:07:50Z</time>
      </trkpt>
      <trkpt lat="44.92786" lon="6.72223">
        <ele>1861.2</ele>
        <time>2025-01-20T09:07:54Z</time>
      </trkpt>
      <trkpt lat="44.92786" lon="6.72223">
        <ele>1861.2</ele>
        <time>2025-01-20T09:07:55Z</time>
      </trkpt>
      <trkpt lat="44.92782" lon="6.72221">
        <ele>1861.6</ele>
        <time>2025-01-20T09:08:00Z</time>
      </trkpt>
      <trkpt lat="44.92778" lon="6.72219">
        <ele>1862.2</ele>
        <time>2025-01-20T09:08:04Z</time>
      </trkpt>
      <trkpt lat="44.92776" lon="6.72218">
        <ele>1862.4</ele>
        <time>2025-01-20T09:08:06Z</time>
      </trkpt>
      <trkpt lat="44.92774" lon="6.72219">
        <ele>1862.6</ele>
        <time>2025-01-20T09:08:08Z</time>
      </trkpt>
      <trkpt lat="44.92771" lon="6.72217">
        <ele>1862.9</ele>
        <time>2025-01-20T09:08:12Z</time>
      </trkpt>
      <trkpt lat="44.92771" lon="6.72216">
        <ele>1863.1</ele>
        <time>2025-01-20T09:08:13Z</time>
      </trkpt>
      <trkpt lat="44.92768" lon="6.72215">
        <ele>1863.4</ele>
        <time>2025-01-20T09:08:15Z</time>
      </trkpt>
      <trkpt lat="44.92767" lon="6.72214">
        <ele>1863.5</ele>
        <time>2025-01-20T09:08:18Z</time>
      </trkpt>
      <trkpt lat="44.92762" lon="6.72213">
        <ele>1864</ele>
        <time>2025-01-20T09:08:22Z</time>
      </trkpt>
      <trkpt lat="44.9276" lon="6.72211">
        <ele>1864.3</ele>
        <time>2025-01-20T09:08:24Z</time>
      </trkpt>
      <trkpt lat="44.92759" lon="6.7221">
        <ele>1864.5</ele>
        <time>2025-01-20T09:08:27Z</time>
      </trkpt>
      <trkpt lat="44.92757" lon="6.72211">
        <ele>1864.7</ele>
        <time>2025-01-20T09:08:29Z</time>
      </trkpt>
      <trkpt lat="44.92755" lon="6.72211">
        <ele>1864.9</ele>
        <time>2025-01-20T09:08:32Z</time>
      </trkpt>
      <trkpt lat="44.9275" lon="6.72209">
        <ele>1865.5</ele>
        <time>2025-01-20T09:08:36Z</time>
      </trkpt>
      <trkpt lat="44.92748" lon="6.72208">
        <ele>1865.7</ele>
        <time>2025-01-20T09:08:38Z</time>
      </trkpt>
      <trkpt lat="44.92746" lon="6.72209">
        <ele>1866</ele>
        <time>2025-01-20T09:08:40Z</time>
      </trkpt>
      <trkpt lat="44.92746" lon="6.72208">
        <ele>1866.1</ele>
        <time>2025-01-20T09:08:41Z</time>
      </trkpt>
      <trkpt lat="44.92745" lon="6.72207">
        <ele>1866.2</ele>
        <time>2025-01-20T09:08:42Z</time>
      </trkpt>
      <trkpt lat="44.92741" lon="6.72206">
        <ele>1866.6</ele>
        <time>2025-01-20T09:08:46Z</time>
      </trkpt>
      <trkpt lat="44.92739" lon="6.72206">
        <ele>1866.9</ele>
        <time>2025-01-20T09:08:51Z</time>
      </trkpt>
      <trkpt lat="44.92737" lon="6.72205">
        <ele>1867.1</ele>
        <time>2025-01-20T09:08:52Z</time>
      </trkpt>
      <trkpt lat="44.92736" lon="6.72207">
        <ele>1867.3</ele>
        <time>2025-01-20T09:08:54Z</time>
      </trkpt>
      <trkpt lat="44.92732" lon="6.72204">
        <ele>1867.8</ele>
        <time>2025-01-20T09:08:57Z</time>
      </trkpt>
      <trkpt lat="44.92732" lon="6.72202">
        <ele>1868</ele>
        <time>2025-01-20T09:08:58Z</time>
      </trkpt>
      <trkpt lat="44.92729" lon="6.72202">
        <ele>1868.3</ele>
        <time>2025-01-20T09:09:03Z</time>
      </trkpt>
      <trkpt lat="44.92726" lon="6.72202">
        <ele>1868.7</ele>
        <time>2025-01-20T09:09:04Z</time>
      </trkpt>
      <trkpt lat="44.92724" lon="6.722">
        <ele>1869.1</ele>
        <time>2025-01-20T09:09:07Z</time>
      </trkpt>
      <trkpt lat="44.92721" lon="6.72199">
        <ele>1869.8</ele>
        <time>2025-01-20T09:09:11Z</time>
      </trkpt>
      <trkpt lat="44.92717" lon="6.72196">
        <ele>1870.4</ele>
        <time>2025-01-20T09:09:16Z</time>
      </trkpt>
      <trkpt lat="44.92714" lon="6.72196">
        <ele>1871</ele>
        <time>2025-01-20T09:09:20Z</time>
      </trkpt>
      <trkpt lat="44.92713" lon="6.72196">
        <ele>1871.1</ele>
        <time>2025-01-20T09:09:21Z</time>
      </trkpt>
      <trkpt lat="44.9271" lon="6.72194">
        <ele>1871.7</ele>
        <time>2025-01-20T09:09:25Z</time>
      </trkpt>
      <trkpt lat="44.92709" lon="6.72194">
        <ele>1871.9</ele>
        <time>2025-01-20T09:09:29Z</time>
      </trkpt>
      <trkpt lat="44.92703" lon="6.72192">
        <ele>1872.7</ele>
        <time>2025-01-20T09:09:34Z</time>
      </trkpt>
      <trkpt lat="44.92701" lon="6.72192">
        <ele>1873.1</ele>
        <time>2025-01-20T09:09:38Z</time>
      </trkpt>
      <trkpt lat="44.92696" lon="6.72193">
        <ele>1873.8</ele>
        <time>2025-01-20T09:09:43Z</time>
      </trkpt>
      <trkpt lat="44.92693" lon="6.72197">
        <ele>1875</ele>
        <time>2025-01-20T09:09:48Z</time>
      </trkpt>
      <trkpt lat="44.92691" lon="6.72204">
        <ele>1876.3</ele>
        <time>2025-01-20T09:09:52Z</time>
      </trkpt>
      <trkpt lat="44.92689" lon="6.72204">
        <ele>1877.1</ele>
        <time>2025-01-20T09:09:56Z</time>
      </trkpt>
      <trkpt lat="44.92685" lon="6.72209">
        <ele>1878.6</ele>
        <time>2025-01-20T09:10:02Z</time>
      </trkpt>
      <trkpt lat="44.92681" lon="6.72209">
        <ele>1879.1</ele>
        <time>2025-01-20T09:10:06Z</time>
      </trkpt>
      <trkpt lat="44.92679" lon="6.7221">
        <ele>1879.5</ele>
        <time>2025-01-20T09:10:10Z</time>
      </trkpt>
      <trkpt lat="44.92675" lon="6.72209">
        <ele>1880</ele>
        <time>2025-01-20T09:10:14Z</time>
      </trkpt>
      <trkpt lat="44.92675" lon="6.72209">
        <ele>1880</ele>
        <time>2025-01-20T09:10:15Z</time>
      </trkpt>
      <trkpt lat="44.92671" lon="6.72211">
        <ele>1880.6</ele>
        <time>2025-01-20T09:10:21Z</time>
      </trkpt>
      <trkpt lat="44.92667" lon="6.72213">
        <ele>1881.3</ele>
        <time>2025-01-20T09:10:26Z</time>
      </trkpt>
      <trkpt lat="44.92665" lon="6.72212">
        <ele>1881.6</ele>
        <time>2025-01-20T09:10:28Z</time>
      </trkpt>
      <trkpt lat="44.92663" lon="6.72212">
        <ele>1881.8</ele>
        <time>2025-01-20T09:10:31Z</time>
      </trkpt>
      <trkpt lat="44.92661" lon="6.72214">
        <ele>1882.1</ele>
        <time>2025-01-20T09:10:33Z</time>
      </trkpt>
      <trkpt lat="44.92662" lon="6.72214">
        <ele>1882.1</ele>
        <time>2025-01-20T09:10:34Z</time>
      </trkpt>
      <trkpt lat="44.92657" lon="6.72213">
        <ele>1882.8</ele>
        <time>2025-01-20T09:10:39Z</time>
      </trkpt>
      <trkpt lat="44.92654" lon="6.72214">
        <ele>1883.2</ele>
        <time>2025-01-20T09:10:43Z</time>
      </trkpt>
      <trkpt lat="44.92652" lon="6.72212">
        <ele>1883.6</ele>
        <time>2025-01-20T09:10:45Z</time>
      </trkpt>
      <trkpt lat="44.9265" lon="6.72214">
        <ele>1883.8</ele>
        <time>2025-01-20T09:10:47Z</time>
      </trkpt>
      <trkpt lat="44.9265" lon="6.72213">
        <ele>1883.9</ele>
        <time>2025-01-20T09:10:48Z</time>
      </trkpt>
      <trkpt lat="44.92647" lon="6.72213">
        <ele>1884.3</ele>
        <time>2025-01-20T09:10:52Z</time>
      </trkpt>
      <trkpt lat="44.92641" lon="6.72214">
        <ele>1885.1</ele>
        <time>2025-01-20T09:10:58Z</time>
      </trkpt>
      <trkpt lat="44.92635" lon="6.72214">
        <ele>1886</ele>
        <time>2025-01-20T09:11:04Z</time>
      </trkpt>
      <trkpt lat="44.92635" lon="6.72212">
        <ele>1886.2</ele>
        <time>2025-01-20T09:11:06Z</time>
      </trkpt>
      <trkpt lat="44.92633" lon="6.72214">
        <ele>1886.5</ele>
        <time>2025-01-20T09:11:08Z</time>
      </trkpt>
      <trkpt lat="44.92629" lon="6.72213">
        <ele>1887.2</ele>
        <time>2025-01-20T09:11:13Z</time>
      </trkpt>
      <trkpt lat="44.92626" lon="6.72214">
        <ele>1887.6</ele>
        <time>2025-01-20T09:11:15Z</time>
      </trkpt>
      <trkpt lat="44.92626" lon="6.72212">
        <ele>1887.7</ele>
        <time>2025-01-20T09:11:17Z</time>
      </trkpt>
      <trkpt lat="44.92622" lon="6.72211">
        <ele>1888.4</ele>
        <time>2025-01-20T09:11:22Z</time>
      </trkpt>
      <trkpt lat="44.92618" lon="6.7221">
        <ele>1889.1</ele>
        <time>2025-01-20T09:11:26Z</time>
      </trkpt>
      <trkpt lat="44.92616" lon="6.72208">
        <ele>1889.5</ele>
        <time>2025-01-20T09:11:30Z</time>
      </trkpt>
      <trkpt lat="44.92616" lon="6.72212">
        <ele>1890</ele>
        <time>2025-01-20T09:11:34Z</time>
      </trkpt>
      <trkpt lat="44.92615" lon="6.72217">
        <ele>1890.6</ele>
        <time>2025-01-20T09:11:37Z</time>
      </trkpt>
      <trkpt lat="44.92615" lon="6.72217">
        <ele>1890.7</ele>
        <time>2025-01-20T09:11:38Z</time>
      </trkpt>
      <trkpt lat="44.92613" lon="6.72222">
        <ele>1891.4</ele>
        <time>2025-01-20T09:11:43Z</time>
      </trkpt>
      <trkpt lat="44.92612" lon="6.72222">
        <ele>1891.5</ele>
        <time>2025-01-20T09:11:47Z</time>
      </trkpt>
      <trkpt lat="44.92608" lon="6.72222">
        <ele>1892.2</ele>
        <time>2025-01-20T09:11:51Z</time>
      </trkpt>
      <trkpt lat="44.92609" lon="6.72221">
        <ele>1892.2</ele>
        <time>2025-01-20T09:11:52Z</time>
      </trkpt>
      <trkpt lat="44.92605" lon="6.7222">
        <ele>1892.9</ele>
        <time>2025-01-20T09:11:57Z</time>
      </trkpt>
      <trkpt lat="44.92602" lon="6.7222">
        <ele>1893.3</ele>
        <time>2025-01-20T09:12:02Z</time>
      </trkpt>
      <trkpt lat="44.92599" lon="6.72219">
        <ele>1893.9</ele>
        <time>2025-01-20T09:12:05Z</time>
      </trkpt>
      <trkpt lat="44.92598" lon="6.72219">
        <ele>1894.1</ele>
        <time>2025-01-20T09:12:06Z</time>
      </trkpt>
      <trkpt lat="44.92595" lon="6.7222">
        <ele>1894.5</ele>
        <time>2025-01-20T09:12:10Z</time>
      </trkpt>
      <trkpt lat="44.92592" lon="6.72221">
        <ele>1894.9</ele>
        <time>2025-01-20T09:12:14Z</time>
      </trkpt>
      <trkpt lat="44.92589" lon="6.72221">
        <ele>1895.6</ele>
        <time>2025-01-20T09:12:18Z</time>
      </trkpt>
      <trkpt lat="44.92589" lon="6.72221">
        <ele>1895.6</ele>
        <time>2025-01-20T09:12:19Z</time>
      </trkpt>
      <trkpt lat="44.92584" lon="6.72221">
        <ele>1896.4</ele>
        <time>2025-01-20T09:12:24Z</time>
      </trkpt>
      <trkpt lat="44.9258" lon="6.7222">
        <ele>1897</ele>
        <time>2025-01-20T09:12:30Z</time>
      </trkpt>
      <trkpt lat="44.92576" lon="6.72219">
        <ele>1897.7</ele>
        <time>2025-01-20T09:12:34Z</time>
      </trkpt>
      <trkpt lat="44.92574" lon="6.72218">
        <ele>1898.1</ele>
        <time>2025-01-20T09:12:39Z</time>
      </trkpt>
      <trkpt lat="44.92569" lon="6.72215">
        <ele>1898.8</ele>
        <time>2025-01-20T09:12:43Z</time>
      </trkpt>
      <trkpt lat="44.92567" lon="6.72215">
        <ele>1899.2</ele>
        <time>2025-01-20T09:12:48Z</time>
      </trkpt>
      <trkpt lat="44.92564" lon="6.72213">
        <ele>1899.6</ele>
        <time>2025-01-20T09:12:53Z</time>
      </trkpt>
      <trkpt lat="44.92564" lon="6.72212">
        <ele>1899.7</ele>
        <time>2025-01-20T09:13:00Z</time>
      </trkpt>
      <trkpt lat="44.92564" lon="6.72212">
        <ele>1899.7</ele>
        <time>2025-01-20T09:13:09Z</time>
      </trkpt>
      <trkpt lat="44.92564" lon="6.72212">
        <ele>1899.7</ele>
        <time>2025-01-20T09:13:19Z</time>
      </trkpt>
      <trkpt lat="44.92563" lon="6.72212">
        <ele>1899.8</ele>
        <time>2025-01-20T09:13:30Z</time>
      </trkpt>
      <trkpt lat="44.92563" lon="6.72212">
        <ele>1899.8</ele>
        <time>2025-01-20T09:13:43Z</time>
      </trkpt>
      <trkpt lat="44.92563" lon="6.72212">
        <ele>1899.8</ele>
        <time>2025-01-20T09:13:55Z</time>
      </trkpt>
      <trkpt lat="44.92564" lon="6.72213">
        <ele>1899.9</ele>
        <time>2025-01-20T09:14:07Z</time>
      </trkpt>
      <trkpt lat="44.92564" lon="6.72213">
        <ele>1899.9</ele>
        <time>2025-01-20T09:14:16Z</time>
      </trkpt>
      <trkpt lat="44.92563" lon="6.72212">
        <ele>1900.1</ele>
        <time>2025-01-20T09:14:22Z</time>
      </trkpt>
      <trkpt lat="44.9256" lon="6.72212">
        <ele>1900.5</ele>
        <time>2025-01-20T09:14:26Z</time>
      </trkpt>
      <trkpt lat="44.92557" lon="6.72212">
        <ele>1900.9</ele>
        <time>2025-01-20T09:14:31Z</time>
      </trkpt>
      <trkpt lat="44.92555" lon="6.72211">
        <ele>1901.2</ele>
        <time>2025-01-20T09:14:33Z</time>
      </trkpt>
      <trkpt lat="44.92553" lon="6.7221">
        <ele>1901.5</ele>
        <time>2025-01-20T09:14:35Z</time>
      </trkpt>
      <trkpt lat="44.92552" lon="6.7221">
        <ele>1901.7</ele>
        <time>2025-01-20T09:14:39Z</time>
      </trkpt>
      <trkpt lat="44.92552" lon="6.72215">
        <ele>1902.2</ele>
        <time>2025-01-20T09:14:44Z</time>
      </trkpt>
      <trkpt lat="44.92551" lon="6.72217">
        <ele>1902.4</ele>
        <time>2025-01-20T09:14:52Z</time>
      </trkpt>
      <trkpt lat="44.92549" lon="6.72216">
        <ele>1902.7</ele>
        <time>2025-01-20T09:14:58Z</time>
      </trkpt>
      <trkpt lat="44.92546" lon="6.72218">
        <ele>1903.1</ele>
        <time>2025-01-20T09:15:03Z</time>
      </trkpt>
      <trkpt lat="44.92546" lon="6.72217">
        <ele>1903.2</ele>
        <time>2025-01-20T09:15:06Z</time>
      </trkpt>
      <trkpt lat="44.92544" lon="6.72216">
        <ele>1903.6</ele>
        <time>2025-01-20T09:15:11Z</time>
      </trkpt>
      <trkpt lat="44.92541" lon="6.72217">
        <ele>1904</ele>
        <time>2025-01-20T09:15:16Z</time>
      </trkpt>
      <trkpt lat="44.92539" lon="6.72219">
        <ele>1904.3</ele>
        <time>2025-01-20T09:15:21Z</time>
      </trkpt>
      <trkpt lat="44.92538" lon="6.7222">
        <ele>1904.6</ele>
        <time>2025-01-20T09:15:26Z</time>
      </trkpt>
      <trkpt lat="44.92535" lon="6.72219">
        <ele>1905</ele>
        <time>2025-01-20T09:15:31Z</time>
      </trkpt>
      <trkpt lat="44.92532" lon="6.72215">
        <ele>1905.6</ele>
        <time>2025-01-20T09:15:37Z</time>
      </trkpt>
      <trkpt lat="44.92528" lon="6.72213">
        <ele>1906.2</ele>
        <time>2025-01-20T09:15:42Z</time>
      </trkpt>
      <trkpt lat="44.92524" lon="6.72212">
        <ele>1906.7</ele>
        <time>2025-01-20T09:15:46Z</time>
      </trkpt>
      <trkpt lat="44.92521" lon="6.72212">
        <ele>1907.1</ele>
        <time>2025-01-20T09:15:50Z</time>
      </trkpt>
      <trkpt lat="44.92519" lon="6.7221">
        <ele>1907.5</ele>
        <time>2025-01-20T09:15:55Z</time>
      </trkpt>
      <trkpt lat="44.92515" lon="6.72208">
        <ele>1908.2</ele>
        <time>2025-01-20T09:16:00Z</time>
      </trkpt>
      <trkpt lat="44.92513" lon="6.72204">
        <ele>1908.4</ele>
        <time>2025-01-20T09:16:05Z</time>
      </trkpt>
      <trkpt lat="44.92507" lon="6.72203">
        <ele>1909.2</ele>
        <time>2025-01-20T09:16:11Z</time>
      </trkpt>
      <trkpt lat="44.92503" lon="6.72202">
        <ele>1909.8</ele>
        <time>2025-01-20T09:16:18Z</time>
      </trkpt>
      <trkpt lat="44.925" lon="6.72201">
        <ele>1910.4</ele>
        <time>2025-01-20T09:16:24Z</time>
      </trkpt>
      <trkpt lat="44.92498" lon="6.72198">
        <ele>1910.8</ele>
        <time>2025-01-20T09:16:29Z</time>
      </trkpt>
      <trkpt lat="44.92496" lon="6.72196">
        <ele>1911.2</ele>
        <time>2025-01-20T09:16:34Z</time>
      </trkpt>
      <trkpt lat="44.92492" lon="6.72191">
        <ele>1912</ele>
        <time>2025-01-20T09:16:40Z</time>
      </trkpt>
      <trkpt lat="44.92489" lon="6.72191">
        <ele>1912.4</ele>
        <time>2025-01-20T09:16:45Z</time>
      </trkpt>
      <trkpt lat="44.92485" lon="6.72189">
        <ele>1912.9</ele>
        <time>2025-01-20T09:16:50Z</time>
      </trkpt>
      <trkpt lat="44.92482" lon="6.72187">
        <ele>1913.4</ele>
        <time>2025-01-20T09:16:54Z</time>
      </trkpt>
      <trkpt lat="44.92478" lon="6.72186">
        <ele>1914</ele>
        <time>2025-01-20T09:16:59Z</time>
      </trkpt>
      <trkpt lat="44.92477" lon="6.72186">
        <ele>1914.2</ele>
        <time>2025-01-20T09:17:03Z</time>
      </trkpt>
      <trkpt lat="44.92473" lon="6.72183">
        <ele>1914.7</ele>
        <time>2025-01-20T09:17:08Z</time>
      </trkpt>
      <trkpt lat="44.92468" lon="6.72183">
        <ele>1915.5</ele>
        <time>2025-01-20T09:17:14Z</time>
      </trkpt>
      <trkpt lat="44.92465" lon="6.72184">
        <ele>1915.8</ele>
        <time>2025-01-20T09:17:18Z</time>
      </trkpt>
      <trkpt lat="44.9246" lon="6.72188">
        <ele>1916.6</ele>
        <time>2025-01-20T09:17:24Z</time>
      </trkpt>
      <trkpt lat="44.9246" lon="6.72191">
        <ele>1916.9</ele>
        <time>2025-01-20T09:17:26Z</time>
      </trkpt>
      <trkpt lat="44.9246" lon="6.72192">
        <ele>1917</ele>
        <time>2025-01-20T09:17:28Z</time>
      </trkpt>
      <trkpt lat="44.92457" lon="6.722">
        <ele>1917.8</ele>
        <time>2025-01-20T09:17:33Z</time>
      </trkpt>
      <trkpt lat="44.92456" lon="6.72202">
        <ele>1918.1</ele>
        <time>2025-01-20T09:17:38Z</time>
      </trkpt>
      <trkpt lat="44.92455" lon="6.72198">
        <ele>1918.5</ele>
        <time>2025-01-20T09:17:43Z</time>
      </trkpt>
      <trkpt lat="44.92451" lon="6.72197">
        <ele>1919</ele>
        <time>2025-01-20T09:17:48Z</time>
      </trkpt>
      <trkpt lat="44.92451" lon="6.72196">
        <ele>1919.1</ele>
        <time>2025-01-20T09:17:49Z</time>
      </trkpt>
      <trkpt lat="44.92447" lon="6.722">
        <ele>1919.6</ele>
        <time>2025-01-20T09:17:54Z</time>
      </trkpt>
      <trkpt lat="44.92444" lon="6.72199">
        <ele>1920.1</ele>
        <time>2025-01-20T09:17:59Z</time>
      </trkpt>
      <trkpt lat="44.92441" lon="6.72201">
        <ele>1920.6</ele>
        <time>2025-01-20T09:18:04Z</time>
      </trkpt>
      <trkpt lat="44.92437" lon="6.72203">
        <ele>1921.3</ele>
        <time>2025-01-20T09:18:10Z</time>
      </trkpt>
      <trkpt lat="44.92434" lon="6.72203">
        <ele>1921.6</ele>
        <time>2025-01-20T09:18:15Z</time>
      </trkpt>
      <trkpt lat="44.9243" lon="6.72202">
        <ele>1922.2</ele>
        <time>2025-01-20T09:18:21Z</time>
      </trkpt>
      <trkpt lat="44.92427" lon="6.722">
        <ele>1922.9</ele>
        <time>2025-01-20T09:18:29Z</time>
      </trkpt>
      <trkpt lat="44.92422" lon="6.72199">
        <ele>1923.6</ele>
        <time>2025-01-20T09:18:34Z</time>
      </trkpt>
      <trkpt lat="44.92419" lon="6.72198">
        <ele>1924.2</ele>
        <time>2025-01-20T09:18:39Z</time>
      </trkpt>
      <trkpt lat="44.92418" lon="6.72198">
        <ele>1924.3</ele>
        <time>2025-01-20T09:18:46Z</time>
      </trkpt>
      <trkpt lat="44.92418" lon="6.72198">
        <ele>1924.3</ele>
        <time>2025-01-20T09:18:53Z</time>
      </trkpt>
      <trkpt lat="44.92417" lon="6.72198">
        <ele>1924.4</ele>
        <time>2025-01-20T09:18:57Z</time>
      </trkpt>
      <trkpt lat="44.92411" lon="6.72194">
        <ele>1925.5</ele>
        <time>2025-01-20T09:19:03Z</time>
      </trkpt>
      <trkpt lat="44.92407" lon="6.7219">
        <ele>1926.4</ele>
        <time>2025-01-20T09:19:08Z</time>
      </trkpt>
      <trkpt lat="44.92404" lon="6.72187">
        <ele>1927.1</ele>
        <time>2025-01-20T09:19:13Z</time>
      </trkpt>
      <trkpt lat="44.924" lon="6.72184">
        <ele>1927.8</ele>
        <time>2025-01-20T09:19:17Z</time>
      </trkpt>
      <trkpt lat="44.924" lon="6.72183">
        <ele>1927.9</ele>
        <time>2025-01-20T09:19:18Z</time>
      </trkpt>
      <trkpt lat="44.92397" lon="6.72183">
        <ele>1928.4</ele>
        <time>2025-01-20T09:19:22Z</time>
      </trkpt>
      <trkpt lat="44.9239" lon="6.72174">
        <ele>1930.1</ele>
        <time>2025-01-20T09:19:26Z</time>
      </trkpt>
      <trkpt lat="44.92389" lon="6.72175">
        <ele>1930.4</ele>
        <time>2025-01-20T09:19:30Z</time>
      </trkpt>
      <trkpt lat="44.92389" lon="6.72175">
        <ele>1930.4</ele>
        <time>2025-01-20T09:19:34Z</time>
      </trkpt>
      <trkpt lat="44.92389" lon="6.72175">
        <ele>1930.4</ele>
        <time>2025-01-20T09:19:38Z</time>
      </trkpt>
      <trkpt lat="44.92385" lon="6.72178">
        <ele>1931.1</ele>
        <time>2025-01-20T09:19:43Z</time>
      </trkpt>
      <trkpt lat="44.92385" lon="6.72178">
        <ele>1931.1</ele>
        <time>2025-01-20T09:19:48Z</time>
      </trkpt>
      <trkpt lat="44.92385" lon="6.72178">
        <ele>1931.1</ele>
        <time>2025-01-20T09:19:53Z</time>
      </trkpt>
      <trkpt lat="44.9238" lon="6.72183">
        <ele>1932.2</ele>
        <time>2025-01-20T09:19:59Z</time>
      </trkpt>
      <trkpt lat="44.92375" lon="6.72186">
        <ele>1933</ele>
        <time>2025-01-20T09:20:06Z</time>
      </trkpt>
      <trkpt lat="44.92373" lon="6.72188">
        <ele>1933.4</ele>
        <time>2025-01-20T09:20:10Z</time>
      </trkpt>
      <trkpt lat="44.92371" lon="6.7219">
        <ele>1933.8</ele>
        <time>2025-01-20T09:20:13Z</time>
      </trkpt>
      <trkpt lat="44.92369" lon="6.72192">
        <ele>1934.3</ele>
        <time>2025-01-20T09:20:16Z</time>
      </trkpt>
      <trkpt lat="44.9236" lon="6.72186">
        <ele>1935.9</ele>
        <time>2025-01-20T09:20:19Z</time>
      </trkpt>
      <trkpt lat="44.9236" lon="6.72186">
        <ele>1935.9</ele>
        <time>2025-01-20T09:20:20Z</time>
      </trkpt>
      <trkpt lat="44.92357" lon="6.72183">
        <ele>1936.5</ele>
        <time>2025-01-20T09:20:25Z</time>
      </trkpt>
      <trkpt lat="44.92354" lon="6.72179">
        <ele>1937.1</ele>
        <time>2025-01-20T09:20:30Z</time>
      </trkpt>
      <trkpt lat="44.92352" lon="6.72177">
        <ele>1937.5</ele>
        <time>2025-01-20T09:20:34Z</time>
      </trkpt>
      <trkpt lat="44.92348" lon="6.72172">
        <ele>1938.3</ele>
        <time>2025-01-20T09:20:39Z</time>
      </trkpt>
      <trkpt lat="44.92347" lon="6.72172">
        <ele>1938.4</ele>
        <time>2025-01-20T09:20:40Z</time>
      </trkpt>
      <trkpt lat="44.92345" lon="6.7217">
        <ele>1938.7</ele>
        <time>2025-01-20T09:20:44Z</time>
      </trkpt>
      <trkpt lat="44.92343" lon="6.72168">
        <ele>1939.1</ele>
        <time>2025-01-20T09:20:49Z</time>
      </trkpt>
      <trkpt lat="44.92341" lon="6.72167">
        <ele>1939.4</ele>
        <time>2025-01-20T09:20:54Z</time>
      </trkpt>
      <trkpt lat="44.92329" lon="6.72176">
        <ele>1941.6</ele>
        <time>2025-01-20T09:20:59Z</time>
      </trkpt>
      <trkpt lat="44.92324" lon="6.72177">
        <ele>1942.5</ele>
        <time>2025-01-20T09:21:03Z</time>
      </trkpt>
      <trkpt lat="44.9232" lon="6.72179">
        <ele>1943.2</ele>
        <time>2025-01-20T09:21:08Z</time>
      </trkpt>
      <trkpt lat="44.92317" lon="6.72181">
        <ele>1943.7</ele>
        <time>2025-01-20T09:21:13Z</time>
      </trkpt>
      <trkpt lat="44.92313" lon="6.72183">
        <ele>1944.5</ele>
        <time>2025-01-20T09:21:17Z</time>
      </trkpt>
      <trkpt lat="44.9231" lon="6.72184">
        <ele>1944.9</ele>
        <time>2025-01-20T09:21:19Z</time>
      </trkpt>
      <trkpt lat="44.92307" lon="6.72186">
        <ele>1945.5</ele>
        <time>2025-01-20T09:21:24Z</time>
      </trkpt>
      <trkpt lat="44.92303" lon="6.7219">
        <ele>1946.2</ele>
        <time>2025-01-20T09:21:29Z</time>
      </trkpt>
      <trkpt lat="44.92299" lon="6.72193">
        <ele>1946.8</ele>
        <time>2025-01-20T09:21:33Z</time>
      </trkpt>
      <trkpt lat="44.92298" lon="6.72194">
        <ele>1947</ele>
        <time>2025-01-20T09:21:34Z</time>
      </trkpt>
      <trkpt lat="44.92295" lon="6.72196">
        <ele>1947.5</ele>
        <time>2025-01-20T09:21:38Z</time>
      </trkpt>
      <trkpt lat="44.92293" lon="6.72198">
        <ele>1947.9</ele>
        <time>2025-01-20T09:21:42Z</time>
      </trkpt>
      <trkpt lat="44.9229" lon="6.72202">
        <ele>1948.5</ele>
        <time>2025-01-20T09:21:47Z</time>
      </trkpt>
      <trkpt lat="44.92287" lon="6.72205">
        <ele>1949</ele>
        <time>2025-01-20T09:21:51Z</time>
      </trkpt>
      <trkpt lat="44.92274" lon="6.72188">
        <ele>1949.8</ele>
        <time>2025-01-20T09:21:55Z</time>
      </trkpt>
      <trkpt lat="44.9227" lon="6.72194">
        <ele>1950.6</ele>
        <time>2025-01-20T09:22:01Z</time>
      </trkpt>
      <trkpt lat="44.92267" lon="6.72197">
        <ele>1951.1</ele>
        <time>2025-01-20T09:22:05Z</time>
      </trkpt>
      <trkpt lat="44.92265" lon="6.722">
        <ele>1951.6</ele>
        <time>2025-01-20T09:22:09Z</time>
      </trkpt>
      <trkpt lat="44.92263" lon="6.72202">
        <ele>1951.8</ele>
        <time>2025-01-20T09:22:12Z</time>
      </trkpt>
      <trkpt lat="44.9226" lon="6.72204">
        <ele>1952.4</ele>
        <time>2025-01-20T09:22:17Z</time>
      </trkpt>
      <trkpt lat="44.92258" lon="6.72206">
        <ele>1952.6</ele>
        <time>2025-01-20T09:22:19Z</time>
      </trkpt>
      <trkpt lat="44.92256" lon="6.72207">
        <ele>1953</ele>
        <time>2025-01-20T09:22:21Z</time>
      </trkpt>
      <trkpt lat="44.92253" lon="6.7221">
        <ele>1953.6</ele>
        <time>2025-01-20T09:22:26Z</time>
      </trkpt>
      <trkpt lat="44.92249" lon="6.72214">
        <ele>1954.2</ele>
        <time>2025-01-20T09:22:31Z</time>
      </trkpt>
      <trkpt lat="44.92244" lon="6.72217">
        <ele>1954.9</ele>
        <time>2025-01-20T09:22:35Z</time>
      </trkpt>
      <trkpt lat="44.9224" lon="6.72221">
        <ele>1955.6</ele>
        <time>2025-01-20T09:22:40Z</time>
      </trkpt>
      <trkpt lat="44.92238" lon="6.72223">
        <ele>1956</ele>
        <time>2025-01-20T09:22:44Z</time>
      </trkpt>
      <trkpt lat="44.92238" lon="6.72223">
        <ele>1956</ele>
        <time>2025-01-20T09:22:45Z</time>
      </trkpt>
      <trkpt lat="44.92233" lon="6.72227">
        <ele>1956.9</ele>
        <time>2025-01-20T09:22:50Z</time>
      </trkpt>
      <trkpt lat="44.9223" lon="6.7223">
        <ele>1957.3</ele>
        <time>2025-01-20T09:22:55Z</time>
      </trkpt>
      <trkpt lat="44.92225" lon="6.72234">
        <ele>1958</ele>
        <time>2025-01-20T09:23:00Z</time>
      </trkpt>
      <trkpt lat="44.92221" lon="6.72238">
        <ele>1958.7</ele>
        <time>2025-01-20T09:23:06Z</time>
      </trkpt>
      <trkpt lat="44.9222" lon="6.72238">
        <ele>1958.8</ele>
        <time>2025-01-20T09:23:12Z</time>
      </trkpt>
      <trkpt lat="44.9222" lon="6.72238">
        <ele>1958.8</ele>
        <time>2025-01-20T09:23:22Z</time>
      </trkpt>
      <trkpt lat="44.9222" lon="6.72238">
        <ele>1958.8</ele>
        <time>2025-01-20T09:23:31Z</time>
      </trkpt>
      <trkpt lat="44.9222" lon="6.72238">
        <ele>1958.8</ele>
        <time>2025-01-20T09:23:39Z</time>
      </trkpt>
      <trkpt lat="44.9222" lon="6.72238">
        <ele>1958.8</ele>
        <time>2025-01-20T09:23:45Z</time>
      </trkpt>
      <trkpt lat="44.9222" lon="6.72238">
        <ele>1958.8</ele>
        <time>2025-01-20T09:23:55Z</time>
      </trkpt>
      <trkpt lat="44.9222" lon="6.72238">
        <ele>1958.8</ele>
        <time>2025-01-20T09:24:02Z</time>
      </trkpt>
      <trkpt lat="44.9222" lon="6.72238">
        <ele>1958.8</ele>
        <time>2025-01-20T09:24:17Z</time>
      </trkpt>
      <trkpt lat="44.9222" lon="6.72238">
        <ele>1958.8</ele>
        <time>2025-01-20T09:24:31Z</time>
      </trkpt>
      <trkpt lat="44.9222" lon="6.72238">
        <ele>1958.8</ele>
        <time>2025-01-20T09:24:48Z</time>
      </trkpt>
      <trkpt lat="44.9222" lon="6.72238">
        <ele>1958.8</ele>
        <time>2025-01-20T09:25:05Z</time>
      </trkpt>
      <trkpt lat="44.9222" lon="6.72238">
        <ele>1958.8</ele>
        <time>2025-01-20T09:25:19Z</time>
      </trkpt>
      <trkpt lat="44.9222" lon="6.72238">
        <ele>1958.8</ele>
        <time>2025-01-20T09:25:30Z</time>
      </trkpt>
      <trkpt lat="44.92215" lon="6.72242">
        <ele>1959.6</ele>
        <time>2025-01-20T09:25:35Z</time>
      </trkpt>
      <trkpt lat="44.92214" lon="6.72243">
        <ele>1959.7</ele>
        <time>2025-01-20T09:25:41Z</time>
      </trkpt>
      <trkpt lat="44.92214" lon="6.72243">
        <ele>1959.7</ele>
        <time>2025-01-20T09:25:47Z</time>
      </trkpt>
      <trkpt lat="44.92214" lon="6.72243">
        <ele>1959.7</ele>
        <time>2025-01-20T09:26:01Z</time>
      </trkpt>
      <trkpt lat="44.92214" lon="6.72243">
        <ele>1959.7</ele>
        <time>2025-01-20T09:26:07Z</time>
      </trkpt>
      <trkpt lat="44.92214" lon="6.72243">
        <ele>1959.7</ele>
        <time>2025-01-20T09:26:16Z</time>
      </trkpt>
      <trkpt lat="44.92214" lon="6.72243">
        <ele>1959.7</ele>
        <time>2025-01-20T09:26:33Z</time>
      </trkpt>
      <trkpt lat="44.92214" lon="6.72243">
        <ele>1959.7</ele>
        <time>2025-01-20T09:26:43Z</time>
      </trkpt>
      <trkpt lat="44.92206" lon="6.7225">
        <ele>1960.9</ele>
        <time>2025-01-20T09:26:50Z</time>
      </trkpt>
      <trkpt lat="44.92199" lon="6.72256">
        <ele>1961.9</ele>
        <time>2025-01-20T09:26:58Z</time>
      </trkpt>
      <trkpt lat="44.92191" lon="6.72262">
        <ele>1963</ele>
        <time>2025-01-20T09:27:05Z</time>
      </trkpt>
      <trkpt lat="44.92185" lon="6.72267">
        <ele>1963.8</ele>
        <time>2025-01-20T09:27:10Z</time>
      </trkpt>
      <trkpt lat="44.9218" lon="6.72272">
        <ele>1964.5</ele>
        <time>2025-01-20T09:27:16Z</time>
      </trkpt>
      <trkpt lat="44.92177" lon="6.72274">
        <ele>1964.8</ele>
        <time>2025-01-20T09:27:22Z</time>
      </trkpt>
      <trkpt lat="44.9217" lon="6.72281">
        <ele>1965.7</ele>
        <time>2025-01-20T09:27:28Z</time>
      </trkpt>
      <trkpt lat="44.92163" lon="6.72285">
        <ele>1966.4</ele>
        <time>2025-01-20T09:27:35Z</time>
      </trkpt>
      <trkpt lat="44.92157" lon="6.72289">
        <ele>1967.1</ele>
        <time>2025-01-20T09:27:42Z</time>
      </trkpt>
      <trkpt lat="44.92151" lon="6.72292">
        <ele>1967.7</ele>
        <time>2025-01-20T09:27:48Z</time>
      </trkpt>
      <trkpt lat="44.92147" lon="6.72294">
        <ele>1968</ele>
        <time>2025-01-20T09:27:54Z</time>
      </trkpt>
      <trkpt lat="44.92147" lon="6.72294">
        <ele>1968</ele>
        <time>2025-01-20T09:28:00Z</time>
      </trkpt>
      <trkpt lat="44.9214" lon="6.72297">
        <ele>1968.7</ele>
        <time>2025-01-20T09:28:11Z</time>
      </trkpt>
      <trkpt lat="44.92133" lon="6.72301">
        <ele>1969.4</ele>
        <time>2025-01-20T09:28:19Z</time>
      </trkpt>
      <trkpt lat="44.92125" lon="6.72305">
        <ele>1970.2</ele>
        <time>2025-01-20T09:28:26Z</time>
      </trkpt>
      <trkpt lat="44.9212" lon="6.72309">
        <ele>1970.8</ele>
        <time>2025-01-20T09:28:33Z</time>
      </trkpt>
      <trkpt lat="44.92117" lon="6.72311">
        <ele>1971.1</ele>
        <time>2025-01-20T09:28:37Z</time>
      </trkpt>
      <trkpt lat="44.92117" lon="6.72311">
        <ele>1971.1</ele>
        <time>2025-01-20T09:28:38Z</time>
      </trkpt>
      <trkpt lat="44.9211" lon="6.72314">
        <ele>1971.8</ele>
        <time>2025-01-20T09:28:45Z</time>
      </trkpt>
      <trkpt lat="44.92107" lon="6.72316">
        <ele>1972.2</ele>
        <time>2025-01-20T09:28:51Z</time>
      </trkpt>
      <trkpt lat="44.921" lon="6.7232">
        <ele>1973</ele>
        <time>2025-01-20T09:28:58Z</time>
      </trkpt>
      <trkpt lat="44.92095" lon="6.72324">
        <ele>1973.6</ele>
        <time>2025-01-20T09:29:05Z</time>
      </trkpt>
      <trkpt lat="44.92089" lon="6.72327">
        <ele>1974.3</ele>
        <time>2025-01-20T09:29:12Z</time>
      </trkpt>
      <trkpt lat="44.92083" lon="6.72331">
        <ele>1975.1</ele>
        <time>2025-01-20T09:29:19Z</time>
      </trkpt>
      <trkpt lat="44.92076" lon="6.72335">
        <ele>1976</ele>
        <time>2025-01-20T09:29:26Z</time>
      </trkpt>
      <trkpt lat="44.92073" lon="6.72337">
        <ele>1976.5</ele>
        <time>2025-01-20T09:29:33Z</time>
      </trkpt>
      <trkpt lat="44.92063" lon="6.72341">
        <ele>1977.8</ele>
        <time>2025-01-20T09:29:40Z</time>
      </trkpt>
      <trkpt lat="44.92055" lon="6.72345">
        <ele>1979</ele>
        <time>2025-01-20T09:29:47Z</time>
      </trkpt>
      <trkpt lat="44.92051" lon="6.72347">
        <ele>1979.6</ele>
        <time>2025-01-20T09:29:55Z</time>
      </trkpt>
      <trkpt lat="44.92041" lon="6.72352">
        <ele>1981</ele>
        <time>2025-01-20T09:30:02Z</time>
      </trkpt>
      <trkpt lat="44.92035" lon="6.72354">
        <ele>1981.7</ele>
        <time>2025-01-20T09:30:10Z</time>
      </trkpt>
      <trkpt lat="44.92028" lon="6.72358">
        <ele>1982.6</ele>
        <time>2025-01-20T09:30:17Z</time>
      </trkpt>
      <trkpt lat="44.92022" lon="6.7236">
        <ele>1983.2</ele>
        <time>2025-01-20T09:30:24Z</time>
      </trkpt>
      <trkpt lat="44.92014" lon="6.72364">
        <ele>1984.1</ele>
        <time>2025-01-20T09:30:32Z</time>
      </trkpt>
      <trkpt lat="44.92005" lon="6.72368">
        <ele>1985.1</ele>
        <time>2025-01-20T09:30:39Z</time>
      </trkpt>
      <trkpt lat="44.92" lon="6.72371">
        <ele>1985.6</ele>
        <time>2025-01-20T09:30:46Z</time>
      </trkpt>
      <trkpt lat="44.9199" lon="6.72375">
        <ele>1986.7</ele>
        <time>2025-01-20T09:30:55Z</time>
      </trkpt>
      <trkpt lat="44.91986" lon="6.72377">
        <ele>1987.1</ele>
        <time>2025-01-20T09:31:02Z</time>
      </trkpt>
      <trkpt lat="44.91977" lon="6.72382">
        <ele>1988.1</ele>
        <time>2025-01-20T09:31:09Z</time>
      </trkpt>
      <trkpt lat="44.91973" lon="6.72384">
        <ele>1988.5</ele>
        <time>2025-01-20T09:31:16Z</time>
      </trkpt>
      <trkpt lat="44.91965" lon="6.72387">
        <ele>1989.2</ele>
        <time>2025-01-20T09:31:24Z</time>
      </trkpt>
      <trkpt lat="44.91961" lon="6.72389">
        <ele>1989.7</ele>
        <time>2025-01-20T09:31:30Z</time>
      </trkpt>
      <trkpt lat="44.91952" lon="6.72393">
        <ele>1990.5</ele>
        <time>2025-01-20T09:31:36Z</time>
      </trkpt>
      <trkpt lat="44.91944" lon="6.72397">
        <ele>1991.2</ele>
        <time>2025-01-20T09:31:43Z</time>
      </trkpt>
      <trkpt lat="44.91944" lon="6.72397">
        <ele>1991.2</ele>
        <time>2025-01-20T09:31:50Z</time>
      </trkpt>
      <trkpt lat="44.91931" lon="6.72401">
        <ele>1992.1</ele>
        <time>2025-01-20T09:31:57Z</time>
      </trkpt>
      <trkpt lat="44.91924" lon="6.72403">
        <ele>1992.5</ele>
        <time>2025-01-20T09:32:04Z</time>
      </trkpt>
      <trkpt lat="44.9192" lon="6.72404">
        <ele>1992.8</ele>
        <time>2025-01-20T09:32:11Z</time>
      </trkpt>
      <trkpt lat="44.9192" lon="6.72404">
        <ele>1992.8</ele>
        <time>2025-01-20T09:32:17Z</time>
      </trkpt>
      <trkpt lat="44.9192" lon="6.72404">
        <ele>1992.8</ele>
        <time>2025-01-20T09:32:23Z</time>
      </trkpt>
      <trkpt lat="44.9192" lon="6.72404">
        <ele>1992.8</ele>
        <time>2025-01-20T09:32:29Z</time>
      </trkpt>
      <trkpt lat="44.91909" lon="6.72407">
        <ele>1993.5</ele>
        <time>2025-01-20T09:32:36Z</time>
      </trkpt>
      <trkpt lat="44.91897" lon="6.72411">
        <ele>1994.4</ele>
        <time>2025-01-20T09:32:44Z</time>
      </trkpt>
      <trkpt lat="44.91886" lon="6.72414">
        <ele>1995.3</ele>
        <time>2025-01-20T09:32:51Z</time>
      </trkpt>
      <trkpt lat="44.91882" lon="6.72415">
        <ele>1995.7</ele>
        <time>2025-01-20T09:32:57Z</time>
      </trkpt>
      <trkpt lat="44.91882" lon="6.72415">
        <ele>1995.7</ele>
        <time>2025-01-20T09:33:04Z</time>
      </trkpt>
      <trkpt lat="44.91872" lon="6.72418">
        <ele>1996.6</ele>
        <time>2025-01-20T09:33:09Z</time>
      </trkpt>
      <trkpt lat="44.91872" lon="6.72418">
        <ele>1996.6</ele>
        <time>2025-01-20T09:33:14Z</time>
      </trkpt>
      <trkpt lat="44.91872" lon="6.72418">
        <ele>1996.6</ele>
        <time>2025-01-20T09:33:21Z</time>
      </trkpt>
      <trkpt lat="44.91872" lon="6.72418">
        <ele>1996.6</ele>
        <time>2025-01-20T09:33:29Z</time>
      </trkpt>
      <trkpt lat="44.91872" lon="6.72418">
        <ele>1996.6</ele>
        <time>2025-01-20T09:33:36Z</time>
      </trkpt>
      <trkpt lat="44.91872" lon="6.72418">
        <ele>1996.6</ele>
        <time>2025-01-20T09:33:44Z</time>
      </trkpt>
      <trkpt lat="44.91872" lon="6.72418">
        <ele>1996.6</ele>
        <time>2025-01-20T09:33:53Z</time>
      </trkpt>
      <trkpt lat="44.91872" lon="6.72418">
        <ele>1996.6</ele>
        <time>2025-01-20T09:34:10Z</time>
      </trkpt>
      <trkpt lat="44.91872" lon="6.72418">
        <ele>1996.6</ele>
        <time>2025-01-20T09:34:23Z</time>
      </trkpt>
      <trkpt lat="44.91872" lon="6.72418">
        <ele>1996.6</ele>
        <time>2025-01-20T09:34:37Z</time>
      </trkpt>
      <trkpt lat="44.91872" lon="6.72418">
        <ele>1996.6</ele>
        <time>2025-01-20T09:34:52Z</time>
      </trkpt>
      <trkpt lat="44.91872" lon="6.72418">
        <ele>1996.6</ele>
        <time>2025-01-20T09:35:06Z</time>
      </trkpt>
      <trkpt lat="44.91872" lon="6.72418">
        <ele>1996.6</ele>
        <time>2025-01-20T09:35:19Z</time>
      </trkpt>
      <trkpt lat="44.91872" lon="6.72418">
        <ele>1996.6</ele>
        <time>2025-01-20T09:35:33Z</time>
      </trkpt>
      <trkpt lat="44.91872" lon="6.72418">
        <ele>1996.6</ele>
        <time>2025-01-20T09:35:46Z</time>
      </trkpt>
      <trkpt lat="44.91872" lon="6.72418">
        <ele>1996.6</ele>
        <time>2025-01-20T09:35:55Z</time>
      </trkpt>
      <trkpt lat="44.91872" lon="6.72418">
        <ele>1996.6</ele>
        <time>2025-01-20T09:36:05Z</time>
      </trkpt>
      <trkpt lat="44.91872" lon="6.72418">
        <ele>1996.6</ele>
        <time>2025-01-20T09:36:15Z</time>
      </trkpt>
      <trkpt lat="44.91872" lon="6.72418">
        <ele>1996.6</ele>
        <time>2025-01-20T09:36:24Z</time>
      </trkpt>
      <trkpt lat="44.91872" lon="6.72418">
        <ele>1996.6</ele>
        <time>2025-01-20T09:36:37Z</time>
      </trkpt>
      <trkpt lat="44.91872" lon="6.72418">
        <ele>1996.6</ele>
        <time>2025-01-20T09:36:47Z</time>
      </trkpt>
      <trkpt lat="44.91872" lon="6.72418">
        <ele>1996.6</ele>
        <time>2025-01-20T09:37:00Z</time>
      </trkpt>
      <trkpt lat="44.91872" lon="6.72418">
        <ele>1996.6</ele>
        <time>2025-01-20T09:37:16Z</time>
      </trkpt>
      <trkpt lat="44.91872" lon="6.72418">
        <ele>1996.6</ele>
        <time>2025-01-20T09:37:32Z</time>
      </trkpt>
      <trkpt lat="44.91872" lon="6.72418">
        <ele>1996.6</ele>
        <time>2025-01-20T09:37:42Z</time>
      </trkpt>
      <trkpt lat="44.91854" lon="6.72423">
        <ele>1998.4</ele>
        <time>2025-01-20T09:37:49Z</time>
      </trkpt>
      <trkpt lat="44.91845" lon="6.72426">
        <ele>1999.3</ele>
        <time>2025-01-20T09:37:55Z</time>
      </trkpt>
      <trkpt lat="44.9184" lon="6.72427">
        <ele>1999.8</ele>
        <time>2025-01-20T09:37:59Z</time>
      </trkpt>
      <trkpt lat="44.91835" lon="6.72429">
        <ele>2000.2</ele>
        <time>2025-01-20T09:38:05Z</time>
      </trkpt>
      <trkpt lat="44.91828" lon="6.72431">
        <ele>2000.8</ele>
        <time>2025-01-20T09:38:11Z</time>
      </trkpt>
      <trkpt lat="44.91821" lon="6.72432">
        <ele>2001.4</ele>
        <time>2025-01-20T09:38:17Z</time>
      </trkpt>
      <trkpt lat="44.91815" lon="6.72433">
        <ele>2001.8</ele>
        <time>2025-01-20T09:38:22Z</time>
      </trkpt>
      <trkpt lat="44.91811" lon="6.72433">
        <ele>2002.1</ele>
        <time>2025-01-20T09:38:28Z</time>
      </trkpt>
      <trkpt lat="44.91803" lon="6.72434">
        <ele>2002.7</ele>
        <time>2025-01-20T09:38:34Z</time>
      </trkpt>
      <trkpt lat="44.91797" lon="6.72434">
        <ele>2003.2</ele>
        <time>2025-01-20T09:38:39Z</time>
      </trkpt>
      <trkpt lat="44.9179" lon="6.72435">
        <ele>2003.7</ele>
        <time>2025-01-20T09:38:45Z</time>
      </trkpt>
      <trkpt lat="44.91787" lon="6.72435">
        <ele>2003.8</ele>
        <time>2025-01-20T09:38:50Z</time>
      </trkpt>
      <trkpt lat="44.91784" lon="6.72436">
        <ele>2004.1</ele>
        <time>2025-01-20T09:38:55Z</time>
      </trkpt>
      <trkpt lat="44.91784" lon="6.72436">
        <ele>2004.1</ele>
        <time>2025-01-20T09:38:59Z</time>
      </trkpt>
      <trkpt lat="44.91774" lon="6.72437">
        <ele>2004.7</ele>
        <time>2025-01-20T09:39:01Z</time>
      </trkpt>
      <trkpt lat="44.91768" lon="6.72437">
        <ele>2005.2</ele>
        <time>2025-01-20T09:39:07Z</time>
      </trkpt>
      <trkpt lat="44.91762" lon="6.72438">
        <ele>2005.6</ele>
        <time>2025-01-20T09:39:12Z</time>
      </trkpt>
      <trkpt lat="44.91754" lon="6.72438">
        <ele>2006.2</ele>
        <time>2025-01-20T09:39:17Z</time>
      </trkpt>
      <trkpt lat="44.91749" lon="6.72439">
        <ele>2006.5</ele>
        <time>2025-01-20T09:39:22Z</time>
      </trkpt>
      <trkpt lat="44.91743" lon="6.7244">
        <ele>2006.9</ele>
        <time>2025-01-20T09:39:27Z</time>
      </trkpt>
      <trkpt lat="44.91737" lon="6.7244">
        <ele>2007.3</ele>
        <time>2025-01-20T09:39:33Z</time>
      </trkpt>
      <trkpt lat="44.91732" lon="6.72441">
        <ele>2007.6</ele>
        <time>2025-01-20T09:39:37Z</time>
      </trkpt>
      <trkpt lat="44.91727" lon="6.72441">
        <ele>2007.9</ele>
        <time>2025-01-20T09:39:41Z</time>
      </trkpt>
      <trkpt lat="44.91727" lon="6.72441">
        <ele>2007.9</ele>
        <time>2025-01-20T09:39:46Z</time>
      </trkpt>
      <trkpt lat="44.91718" lon="6.72442">
        <ele>2008.4</ele>
        <time>2025-01-20T09:39:50Z</time>
      </trkpt>
      <trkpt lat="44.91718" lon="6.72442">
        <ele>2008.4</ele>
        <time>2025-01-20T09:39:56Z</time>
      </trkpt>
      <trkpt lat="44.91706" lon="6.72444">
        <ele>2009.3</ele>
        <time>2025-01-20T09:40:02Z</time>
      </trkpt>
      <trkpt lat="44.917" lon="6.72447">
        <ele>2009.8</ele>
        <time>2025-01-20T09:40:08Z</time>
      </trkpt>
      <trkpt lat="44.91697" lon="6.72449">
        <ele>2010</ele>
        <time>2025-01-20T09:40:13Z</time>
      </trkpt>
      <trkpt lat="44.91692" lon="6.72451">
        <ele>2010.4</ele>
        <time>2025-01-20T09:40:18Z</time>
      </trkpt>
      <trkpt lat="44.91683" lon="6.72455">
        <ele>2011.6</ele>
        <time>2025-01-20T09:40:23Z</time>
      </trkpt>
      <trkpt lat="44.91677" lon="6.72458">
        <ele>2012.6</ele>
        <time>2025-01-20T09:40:29Z</time>
      </trkpt>
      <trkpt lat="44.91671" lon="6.72461">
        <ele>2013.6</ele>
        <time>2025-01-20T09:40:33Z</time>
      </trkpt>
      <trkpt lat="44.91664" lon="6.72464">
        <ele>2015</ele>
        <time>2025-01-20T09:40:40Z</time>
      </trkpt>
      <trkpt lat="44.91659" lon="6.72467">
        <ele>2015.8</ele>
        <time>2025-01-20T09:40:46Z</time>
      </trkpt>
      <trkpt lat="44.91656" lon="6.72468">
        <ele>2016.5</ele>
        <time>2025-01-20T09:40:50Z</time>
      </trkpt>
      <trkpt lat="44.91653" lon="6.7247">
        <ele>2017.1</ele>
        <time>2025-01-20T09:40:55Z</time>
      </trkpt>
      <trkpt lat="44.91648" lon="6.72472">
        <ele>2018</ele>
        <time>2025-01-20T09:41:00Z</time>
      </trkpt>
      <trkpt lat="44.91639" lon="6.72474">
        <ele>2019.4</ele>
        <time>2025-01-20T09:41:06Z</time>
      </trkpt>
      <trkpt lat="44.91633" lon="6.72474">
        <ele>2020.3</ele>
        <time>2025-01-20T09:41:12Z</time>
      </trkpt>
      <trkpt lat="44.9163" lon="6.72475">
        <ele>2020.6</ele>
        <time>2025-01-20T09:41:18Z</time>
      </trkpt>
      <trkpt lat="44.91626" lon="6.72475">
        <ele>2021.2</ele>
        <time>2025-01-20T09:41:22Z</time>
      </trkpt>
      <trkpt lat="44.91622" lon="6.72476">
        <ele>2021.7</ele>
        <time>2025-01-20T09:41:26Z</time>
      </trkpt>
      <trkpt lat="44.91619" lon="6.72476">
        <ele>2022.1</ele>
        <time>2025-01-20T09:41:31Z</time>
      </trkpt>
      <trkpt lat="44.91609" lon="6.72477">
        <ele>2023.3</ele>
        <time>2025-01-20T09:41:38Z</time>
      </trkpt>
      <trkpt lat="44.91606" lon="6.72478">
        <ele>2023.7</ele>
        <time>2025-01-20T09:41:43Z</time>
      </trkpt>
      <trkpt lat="44.91603" lon="6.72478">
        <ele>2024.2</ele>
        <time>2025-01-20T09:41:47Z</time>
      </trkpt>
      <trkpt lat="44.91597" lon="6.72479">
        <ele>2024.9</ele>
        <time>2025-01-20T09:41:52Z</time>
      </trkpt>
      <trkpt lat="44.91595" lon="6.72479">
        <ele>2025.2</ele>
        <time>2025-01-20T09:41:56Z</time>
      </trkpt>
      <trkpt lat="44.9159" lon="6.7248">
        <ele>2025.9</ele>
        <time>2025-01-20T09:41:59Z</time>
      </trkpt>
      <trkpt lat="44.9159" lon="6.7248">
        <ele>2025.9</ele>
        <time>2025-01-20T09:42:01Z</time>
      </trkpt>
      <trkpt lat="44.91587" lon="6.7248">
        <ele>2026.4</ele>
        <time>2025-01-20T09:42:06Z</time>
      </trkpt>
      <trkpt lat="44.9158" lon="6.72481">
        <ele>2027.4</ele>
        <time>2025-01-20T09:42:11Z</time>
      </trkpt>
      <trkpt lat="44.91575" lon="6.72481">
        <ele>2028.2</ele>
        <time>2025-01-20T09:42:16Z</time>
      </trkpt>
      <trkpt lat="44.91571" lon="6.72482">
        <ele>2028.7</ele>
        <time>2025-01-20T09:42:22Z</time>
      </trkpt>
      <trkpt lat="44.91564" lon="6.72483">
        <ele>2029.8</ele>
        <time>2025-01-20T09:42:27Z</time>
      </trkpt>
      <trkpt lat="44.91556" lon="6.72484">
        <ele>2030.8</ele>
        <time>2025-01-20T09:42:32Z</time>
      </trkpt>
      <trkpt lat="44.91552" lon="6.72484">
        <ele>2031.4</ele>
        <time>2025-01-20T09:42:37Z</time>
      </trkpt>
      <trkpt lat="44.91547" lon="6.72485">
        <ele>2032</ele>
        <time>2025-01-20T09:42:42Z</time>
      </trkpt>
      <trkpt lat="44.91544" lon="6.72485">
        <ele>2032.4</ele>
        <time>2025-01-20T09:42:46Z</time>
      </trkpt>
      <trkpt lat="44.9154" lon="6.72486">
        <ele>2032.9</ele>
        <time>2025-01-20T09:42:50Z</time>
      </trkpt>
      <trkpt lat="44.91536" lon="6.72486">
        <ele>2033.4</ele>
        <time>2025-01-20T09:42:55Z</time>
      </trkpt>
      <trkpt lat="44.91533" lon="6.72487">
        <ele>2033.8</ele>
        <time>2025-01-20T09:43:00Z</time>
      </trkpt>
      <trkpt lat="44.91528" lon="6.72487">
        <ele>2034.3</ele>
        <time>2025-01-20T09:43:04Z</time>
      </trkpt>
      <trkpt lat="44.91523" lon="6.72488">
        <ele>2034.9</ele>
        <time>2025-01-20T09:43:09Z</time>
      </trkpt>
      <trkpt lat="44.91522" lon="6.72488">
        <ele>2035.1</ele>
        <time>2025-01-20T09:43:14Z</time>
      </trkpt>
      <trkpt lat="44.91522" lon="6.72488">
        <ele>2035.1</ele>
        <time>2025-01-20T09:43:20Z</time>
      </trkpt>
      <trkpt lat="44.91522" lon="6.72488">
        <ele>2035.1</ele>
        <time>2025-01-20T09:43:25Z</time>
      </trkpt>
      <trkpt lat="44.91509" lon="6.7248">
        <ele>2036.7</ele>
        <time>2025-01-20T09:43:28Z</time>
      </trkpt>
      <trkpt lat="44.91506" lon="6.72479">
        <ele>2037</ele>
        <time>2025-01-20T09:43:31Z</time>
      </trkpt>
      <trkpt lat="44.91504" lon="6.72478">
        <ele>2037.2</ele>
        <time>2025-01-20T09:43:36Z</time>
      </trkpt>
      <trkpt lat="44.91496" lon="6.72473">
        <ele>2038.2</ele>
        <time>2025-01-20T09:43:42Z</time>
      </trkpt>
      <trkpt lat="44.91492" lon="6.72471">
        <ele>2038.8</ele>
        <time>2025-01-20T09:43:47Z</time>
      </trkpt>
      <trkpt lat="44.91487" lon="6.72468">
        <ele>2039.4</ele>
        <time>2025-01-20T09:43:52Z</time>
      </trkpt>
      <trkpt lat="44.91483" lon="6.72465">
        <ele>2040</ele>
        <time>2025-01-20T09:43:56Z</time>
      </trkpt>
      <trkpt lat="44.9148" lon="6.72463">
        <ele>2040.6</ele>
        <time>2025-01-20T09:44:00Z</time>
      </trkpt>
      <trkpt lat="44.91475" lon="6.72461">
        <ele>2041.4</ele>
        <time>2025-01-20T09:44:06Z</time>
      </trkpt>
      <trkpt lat="44.9147" lon="6.72458">
        <ele>2042.2</ele>
        <time>2025-01-20T09:44:11Z</time>
      </trkpt>
      <trkpt lat="44.91464" lon="6.72454">
        <ele>2043.2</ele>
        <time>2025-01-20T09:44:16Z</time>
      </trkpt>
      <trkpt lat="44.91463" lon="6.72454">
        <ele>2043.4</ele>
        <time>2025-01-20T09:44:17Z</time>
      </trkpt>
      <trkpt lat="44.91461" lon="6.72453">
        <ele>2043.7</ele>
        <time>2025-01-20T09:44:20Z</time>
      </trkpt>
      <trkpt lat="44.91456" lon="6.7245">
        <ele>2044.4</ele>
        <time>2025-01-20T09:44:25Z</time>
      </trkpt>
      <trkpt lat="44.91452" lon="6.72447">
        <ele>2045.1</ele>
        <time>2025-01-20T09:44:31Z</time>
      </trkpt>
      <trkpt lat="44.91447" lon="6.72445">
        <ele>2045.8</ele>
        <time>2025-01-20T09:44:36Z</time>
      </trkpt>
      <trkpt lat="44.91444" lon="6.72443">
        <ele>2046.3</ele>
        <time>2025-01-20T09:44:41Z</time>
      </trkpt>
      <trkpt lat="44.91439" lon="6.7244">
        <ele>2047.1</ele>
        <time>2025-01-20T09:44:46Z</time>
      </trkpt>
      <trkpt lat="44.91434" lon="6.72437">
        <ele>2047.8</ele>
        <time>2025-01-20T09:44:51Z</time>
      </trkpt>
      <trkpt lat="44.91427" lon="6.72433">
        <ele>2048.5</ele>
        <time>2025-01-20T09:44:57Z</time>
      </trkpt>
      <trkpt lat="44.91423" lon="6.72431">
        <ele>2048.9</ele>
        <time>2025-01-20T09:45:01Z</time>
      </trkpt>
      <trkpt lat="44.91418" lon="6.7243">
        <ele>2049.4</ele>
        <time>2025-01-20T09:45:06Z</time>
      </trkpt>
      <trkpt lat="44.91414" lon="6.72429">
        <ele>2049.7</ele>
        <time>2025-01-20T09:45:11Z</time>
      </trkpt>
      <trkpt lat="44.91411" lon="6.72429">
        <ele>2050</ele>
        <time>2025-01-20T09:45:16Z</time>
      </trkpt>
      <trkpt lat="44.91406" lon="6.72428">
        <ele>2050.3</ele>
        <time>2025-01-20T09:45:21Z</time>
      </trkpt>
      <trkpt lat="44.91401" lon="6.72428">
        <ele>2050.7</ele>
        <time>2025-01-20T09:45:25Z</time>
      </trkpt>
      <trkpt lat="44.91395" lon="6.72427">
        <ele>2051.1</ele>
        <time>2025-01-20T09:45:30Z</time>
      </trkpt>
      <trkpt lat="44.91387" lon="6.72427">
        <ele>2051.6</ele>
        <time>2025-01-20T09:45:36Z</time>
      </trkpt>
      <trkpt lat="44.91385" lon="6.72426">
        <ele>2051.8</ele>
        <time>2025-01-20T09:45:41Z</time>
      </trkpt>
      <trkpt lat="44.91382" lon="6.72426">
        <ele>2052.1</ele>
        <time>2025-01-20T09:45:46Z</time>
      </trkpt>
      <trkpt lat="44.91377" lon="6.72426">
        <ele>2052.4</ele>
        <time>2025-01-20T09:45:50Z</time>
      </trkpt>
      <trkpt lat="44.91373" lon="6.72425">
        <ele>2052.7</ele>
        <time>2025-01-20T09:45:54Z</time>
      </trkpt>
      <trkpt lat="44.91365" lon="6.72424">
        <ele>2053.4</ele>
        <time>2025-01-20T09:46:00Z</time>
      </trkpt>
      <trkpt lat="44.91361" lon="6.72424">
        <ele>2053.7</ele>
        <time>2025-01-20T09:46:04Z</time>
      </trkpt>
      <trkpt lat="44.91355" lon="6.72423">
        <ele>2054.1</ele>
        <time>2025-01-20T09:46:10Z</time>
      </trkpt>
      <trkpt lat="44.91351" lon="6.72422">
        <ele>2054.5</ele>
        <time>2025-01-20T09:46:15Z</time>
      </trkpt>
      <trkpt lat="44.91346" lon="6.7242">
        <ele>2054.9</ele>
        <time>2025-01-20T09:46:20Z</time>
      </trkpt>
      <trkpt lat="44.91341" lon="6.72418">
        <ele>2055.4</ele>
        <time>2025-01-20T09:46:26Z</time>
      </trkpt>
      <trkpt lat="44.91335" lon="6.72415">
        <ele>2055.9</ele>
        <time>2025-01-20T09:46:31Z</time>
      </trkpt>
      <trkpt lat="44.91332" lon="6.72414">
        <ele>2056.2</ele>
        <time>2025-01-20T09:46:36Z</time>
      </trkpt>
      <trkpt lat="44.91329" lon="6.72413">
        <ele>2056.5</ele>
        <time>2025-01-20T09:46:41Z</time>
      </trkpt>
      <trkpt lat="44.91324" lon="6.72411">
        <ele>2056.9</ele>
        <time>2025-01-20T09:46:46Z</time>
      </trkpt>
      <trkpt lat="44.91319" lon="6.72409">
        <ele>2057.4</ele>
        <time>2025-01-20T09:46:51Z</time>
      </trkpt>
      <trkpt lat="44.91316" lon="6.72408">
        <ele>2057.8</ele>
        <time>2025-01-20T09:46:56Z</time>
      </trkpt>
      <trkpt lat="44.91309" lon="6.72402">
        <ele>2058.9</ele>
        <time>2025-01-20T09:47:02Z</time>
      </trkpt>
      <trkpt lat="44.91305" lon="6.72397">
        <ele>2059.6</ele>
        <time>2025-01-20T09:47:07Z</time>
      </trkpt>
      <trkpt lat="44.91301" lon="6.72392">
        <ele>2060.3</ele>
        <time>2025-01-20T09:47:13Z</time>
      </trkpt>
      <trkpt lat="44.91296" lon="6.72387">
        <ele>2061.4</ele>
        <time>2025-01-20T09:47:18Z</time>
      </trkpt>
      <trkpt lat="44.91292" lon="6.72385">
        <ele>2062.1</ele>
        <time>2025-01-20T09:47:23Z</time>
      </trkpt>
      <trkpt lat="44.9129" lon="6.72383">
        <ele>2062.6</ele>
        <time>2025-01-20T09:47:28Z</time>
      </trkpt>
      <trkpt lat="44.91287" lon="6.72381">
        <ele>2063.1</ele>
        <time>2025-01-20T09:47:33Z</time>
      </trkpt>
      <trkpt lat="44.91281" lon="6.72377">
        <ele>2064.2</ele>
        <time>2025-01-20T09:47:39Z</time>
      </trkpt>
      <trkpt lat="44.91279" lon="6.72376">
        <ele>2064.6</ele>
        <time>2025-01-20T09:47:44Z</time>
      </trkpt>
      <trkpt lat="44.91275" lon="6.72373">
        <ele>2065.4</ele>
        <time>2025-01-20T09:47:49Z</time>
      </trkpt>
      <trkpt lat="44.91268" lon="6.72368">
        <ele>2066.9</ele>
        <time>2025-01-20T09:47:54Z</time>
      </trkpt>
      <trkpt lat="44.91264" lon="6.72366">
        <ele>2067.6</ele>
        <time>2025-01-20T09:47:59Z</time>
      </trkpt>
      <trkpt lat="44.91258" lon="6.72362">
        <ele>2068.6</ele>
        <time>2025-01-20T09:48:05Z</time>
      </trkpt>
      <trkpt lat="44.91256" lon="6.7236">
        <ele>2069.2</ele>
        <time>2025-01-20T09:48:10Z</time>
      </trkpt>
      <trkpt lat="44.91251" lon="6.72357">
        <ele>2070</ele>
        <time>2025-01-20T09:48:15Z</time>
      </trkpt>
      <trkpt lat="44.91249" lon="6.72356">
        <ele>2070.3</ele>
        <time>2025-01-20T09:48:20Z</time>
      </trkpt>
      <trkpt lat="44.91243" lon="6.72352">
        <ele>2071.4</ele>
        <time>2025-01-20T09:48:26Z</time>
      </trkpt>
      <trkpt lat="44.91238" lon="6.72349">
        <ele>2072.2</ele>
        <time>2025-01-20T09:48:31Z</time>
      </trkpt>
      <trkpt lat="44.91234" lon="6.72346">
        <ele>2072.8</ele>
        <time>2025-01-20T09:48:36Z</time>
      </trkpt>
      <trkpt lat="44.91228" lon="6.72342">
        <ele>2073.8</ele>
        <time>2025-01-20T09:48:42Z</time>
      </trkpt>
      <trkpt lat="44.91225" lon="6.7234">
        <ele>2074.2</ele>
        <time>2025-01-20T09:48:46Z</time>
      </trkpt>
      <trkpt lat="44.91222" lon="6.72338">
        <ele>2074.7</ele>
        <time>2025-01-20T09:48:51Z</time>
      </trkpt>
      <trkpt lat="44.91218" lon="6.72335">
        <ele>2075.2</ele>
        <time>2025-01-20T09:48:56Z</time>
      </trkpt>
      <trkpt lat="44.91213" lon="6.72332">
        <ele>2076</ele>
        <time>2025-01-20T09:49:00Z</time>
      </trkpt>
      <trkpt lat="44.91209" lon="6.72329">
        <ele>2076.5</ele>
        <time>2025-01-20T09:49:05Z</time>
      </trkpt>
      <trkpt lat="44.91205" lon="6.72327">
        <ele>2077.1</ele>
        <time>2025-01-20T09:49:10Z</time>
      </trkpt>
      <trkpt lat="44.91202" lon="6.72324">
        <ele>2077.6</ele>
        <time>2025-01-20T09:49:15Z</time>
      </trkpt>
      <trkpt lat="44.912" lon="6.72323">
        <ele>2077.8</ele>
        <time>2025-01-20T09:49:20Z</time>
      </trkpt>
      <trkpt lat="44.912" lon="6.72323">
        <ele>2077.8</ele>
        <time>2025-01-20T09:49:24Z</time>
      </trkpt>
      <trkpt lat="44.912" lon="6.72323">
        <ele>2077.8</ele>
        <time>2025-01-20T09:49:29Z</time>
      </trkpt>
      <trkpt lat="44.91188" lon="6.72315">
        <ele>2079.5</ele>
        <time>2025-01-20T09:49:34Z</time>
      </trkpt>
      <trkpt lat="44.91185" lon="6.72313">
        <ele>2080</ele>
        <time>2025-01-20T09:49:39Z</time>
      </trkpt>
      <trkpt lat="44.91183" lon="6.72312">
        <ele>2080.2</ele>
        <time>2025-01-20T09:49:45Z</time>
      </trkpt>
      <trkpt lat="44.91177" lon="6.72308">
        <ele>2081.1</ele>
        <time>2025-01-20T09:49:51Z</time>
      </trkpt>
      <trkpt lat="44.91174" lon="6.72306">
        <ele>2081.5</ele>
        <time>2025-01-20T09:49:56Z</time>
      </trkpt>
      <trkpt lat="44.91169" lon="6.72302">
        <ele>2082.2</ele>
        <time>2025-01-20T09:50:01Z</time>
      </trkpt>
      <trkpt lat="44.91165" lon="6.723">
        <ele>2082.5</ele>
        <time>2025-01-20T09:50:06Z</time>
      </trkpt>
      <trkpt lat="44.9116" lon="6.72296">
        <ele>2083.1</ele>
        <time>2025-01-20T09:50:12Z</time>
      </trkpt>
      <trkpt lat="44.91154" lon="6.72294">
        <ele>2083.7</ele>
        <time>2025-01-20T09:50:17Z</time>
      </trkpt>
      <trkpt lat="44.9115" lon="6.72292">
        <ele>2084</ele>
        <time>2025-01-20T09:50:22Z</time>
      </trkpt>
      <trkpt lat="44.91144" lon="6.72291">
        <ele>2084.5</ele>
        <time>2025-01-20T09:50:28Z</time>
      </trkpt>
      <trkpt lat="44.91144" lon="6.72291">
        <ele>2084.5</ele>
        <time>2025-01-20T09:50:34Z</time>
      </trkpt>
      <trkpt lat="44.91133" lon="6.72287">
        <ele>2085.5</ele>
        <time>2025-01-20T09:50:40Z</time>
      </trkpt>
      <trkpt lat="44.91129" lon="6.72286">
        <ele>2085.8</ele>
        <time>2025-01-20T09:50:46Z</time>
      </trkpt>
      <trkpt lat="44.91122" lon="6.72284">
        <ele>2086.4</ele>
        <time>2025-01-20T09:50:52Z</time>
      </trkpt>
      <trkpt lat="44.91118" lon="6.72283">
        <ele>2086.8</ele>
        <time>2025-01-20T09:50:57Z</time>
      </trkpt>
      <trkpt lat="44.91115" lon="6.72282">
        <ele>2087</ele>
        <time>2025-01-20T09:51:02Z</time>
      </trkpt>
      <trkpt lat="44.91109" lon="6.72281">
        <ele>2087.4</ele>
        <time>2025-01-20T09:51:07Z</time>
      </trkpt>
      <trkpt lat="44.91106" lon="6.7228">
        <ele>2087.7</ele>
        <time>2025-01-20T09:51:11Z</time>
      </trkpt>
      <trkpt lat="44.911" lon="6.72278">
        <ele>2088.1</ele>
        <time>2025-01-20T09:51:16Z</time>
      </trkpt>
      <trkpt lat="44.91095" lon="6.72276">
        <ele>2088.5</ele>
        <time>2025-01-20T09:51:21Z</time>
      </trkpt>
      <trkpt lat="44.9109" lon="6.72275">
        <ele>2088.8</ele>
        <time>2025-01-20T09:51:25Z</time>
      </trkpt>
      <trkpt lat="44.9109" lon="6.72275">
        <ele>2088.8</ele>
        <time>2025-01-20T09:51:29Z</time>
      </trkpt>
      <trkpt lat="44.91079" lon="6.72277">
        <ele>2089.4</ele>
        <time>2025-01-20T09:51:35Z</time>
      </trkpt>
      <trkpt lat="44.91076" lon="6.72279">
        <ele>2089.6</ele>
        <time>2025-01-20T09:51:40Z</time>
      </trkpt>
      <trkpt lat="44.91071" lon="6.72282">
        <ele>2089.8</ele>
        <time>2025-01-20T09:51:45Z</time>
      </trkpt>
      <trkpt lat="44.91068" lon="6.72284">
        <ele>2089.9</ele>
        <time>2025-01-20T09:51:49Z</time>
      </trkpt>
      <trkpt lat="44.91068" lon="6.72284">
        <ele>2089.9</ele>
        <time>2025-01-20T09:51:54Z</time>
      </trkpt>
      <trkpt lat="44.9106" lon="6.72289">
        <ele>2090</ele>
        <time>2025-01-20T09:51:59Z</time>
      </trkpt>
      <trkpt lat="44.91054" lon="6.72293">
        <ele>2090.2</ele>
        <time>2025-01-20T09:52:04Z</time>
      </trkpt>
      <trkpt lat="44.91054" lon="6.72293">
        <ele>2090.2</ele>
        <time>2025-01-20T09:52:09Z</time>
      </trkpt>
      <trkpt lat="44.91048" lon="6.72296">
        <ele>2090.3</ele>
        <time>2025-01-20T09:52:14Z</time>
      </trkpt>
      <trkpt lat="44.91048" lon="6.72297">
        <ele>2090.3</ele>
        <time>2025-01-20T09:52:26Z</time>
      </trkpt>
      <trkpt lat="44.91048" lon="6.72297">
        <ele>2090.3</ele>
        <time>2025-01-20T09:52:38Z</time>
      </trkpt>
      <trkpt lat="44.91048" lon="6.72297">
        <ele>2090.3</ele>
        <time>2025-01-20T09:52:49Z</time>
      </trkpt>
      <trkpt lat="44.91048" lon="6.72297">
        <ele>2090.3</ele>
        <time>2025-01-20T09:53:05Z</time>
      </trkpt>
      <trkpt lat="44.91048" lon="6.72297">
        <ele>2090.3</ele>
        <time>2025-01-20T09:53:17Z</time>
      </trkpt>
      <trkpt lat="44.91048" lon="6.72297">
        <ele>2090.3</ele>
        <time>2025-01-20T09:53:32Z</time>
      </trkpt>
      <trkpt lat="44.91048" lon="6.72297">
        <ele>2090.3</ele>
        <time>2025-01-20T09:53:42Z</time>
      </trkpt>
      <trkpt lat="44.91048" lon="6.72297">
        <ele>2090.3</ele>
        <time>2025-01-20T09:53:52Z</time>
      </trkpt>
      <trkpt lat="44.91048" lon="6.72297">
        <ele>2090.3</ele>
        <time>2025-01-20T09:54:07Z</time>
      </trkpt>
      <trkpt lat="44.91048" lon="6.72297">
        <ele>2090.3</ele>
        <time>2025-01-20T09:54:22Z</time>
      </trkpt>
      <trkpt lat="44.91048" lon="6.72297">
        <ele>2090.3</ele>
        <time>2025-01-20T09:54:31Z</time>
      </trkpt>
      <trkpt lat="44.91048" lon="6.72297">
        <ele>2090.3</ele>
        <time>2025-01-20T09:54:37Z</time>
      </trkpt>
      <trkpt lat="44.91042" lon="6.72301">
        <ele>2090.5</ele>
        <time>2025-01-20T09:54:43Z</time>
      </trkpt>
      <trkpt lat="44.91039" lon="6.72304">
        <ele>2090.7</ele>
        <time>2025-01-20T09:54:49Z</time>
      </trkpt>
      <trkpt lat="44.91037" lon="6.72307">
        <ele>2090.8</ele>
        <time>2025-01-20T09:54:56Z</time>
      </trkpt>
      <trkpt lat="44.91036" lon="6.72308">
        <ele>2090.9</ele>
        <time>2025-01-20T09:55:00Z</time>
      </trkpt>
      <trkpt lat="44.91033" lon="6.72311">
        <ele>2091.1</ele>
        <time>2025-01-20T09:55:05Z</time>
      </trkpt>
      <trkpt lat="44.9103" lon="6.72316">
        <ele>2091.3</ele>
        <time>2025-01-20T09:55:10Z</time>
      </trkpt>
      <trkpt lat="44.9103" lon="6.72316">
        <ele>2091.3</ele>
        <time>2025-01-20T09:55:15Z</time>
      </trkpt>
      <trkpt lat="44.9103" lon="6.72316">
        <ele>2091.3</ele>
        <time>2025-01-20T09:55:20Z</time>
      </trkpt>
      <trkpt lat="44.9103" lon="6.72316">
        <ele>2091.3</ele>
        <time>2025-01-20T09:55:24Z</time>
      </trkpt>
      <trkpt lat="44.91024" lon="6.72324">
        <ele>2092.1</ele>
        <time>2025-01-20T09:55:29Z</time>
      </trkpt>
      <trkpt lat="44.91023" lon="6.72324">
        <ele>2092.2</ele>
        <time>2025-01-20T09:55:35Z</time>
      </trkpt>
      <trkpt lat="44.91023" lon="6.72324">
        <ele>2092.2</ele>
        <time>2025-01-20T09:55:41Z</time>
      </trkpt>
      <trkpt lat="44.91019" lon="6.7233">
        <ele>2092.9</ele>
        <time>2025-01-20T09:55:46Z</time>
      </trkpt>
      <trkpt lat="44.91014" lon="6.72336">
        <ele>2093.6</ele>
        <time>2025-01-20T09:55:52Z</time>
      </trkpt>
      <trkpt lat="44.91012" lon="6.72339">
        <ele>2094</ele>
        <time>2025-01-20T09:55:57Z</time>
      </trkpt>
      <trkpt lat="44.91012" lon="6.72339">
        <ele>2094</ele>
        <time>2025-01-20T09:56:02Z</time>
      </trkpt>
      <trkpt lat="44.91008" lon="6.72344">
        <ele>2094.5</ele>
        <time>2025-01-20T09:56:08Z</time>
      </trkpt>
      <trkpt lat="44.91008" lon="6.72344">
        <ele>2094.5</ele>
        <time>2025-01-20T09:56:13Z</time>
      </trkpt>
      <trkpt lat="44.91008" lon="6.72344">
        <ele>2094.5</ele>
        <time>2025-01-20T09:56:20Z</time>
      </trkpt>
      <trkpt lat="44.91008" lon="6.72344">
        <ele>2094.5</ele>
        <time>2025-01-20T09:56:27Z</time>
      </trkpt>
      <trkpt lat="44.91008" lon="6.72344">
        <ele>2094.5</ele>
        <time>2025-01-20T09:56:33Z</time>
      </trkpt>
      <trkpt lat="44.91008" lon="6.72344">
        <ele>2094.5</ele>
        <time>2025-01-20T09:56:39Z</time>
      </trkpt>
      <trkpt lat="44.9102" lon="6.72394">
        <ele>2094.1</ele>
        <time>2025-01-20T09:56:45Z</time>
      </trkpt>
      <trkpt lat="44.91017" lon="6.72403">
        <ele>2094.7</ele>
        <time>2025-01-20T09:56:50Z</time>
      </trkpt>
      <trkpt lat="44.91015" lon="6.72409">
        <ele>2094.8</ele>
        <time>2025-01-20T09:56:55Z</time>
      </trkpt>
      <trkpt lat="44.91014" lon="6.72417">
        <ele>2095.6</ele>
        <time>2025-01-20T09:57:00Z</time>
      </trkpt>
      <trkpt lat="44.91012" lon="6.7242">
        <ele>2095.8</ele>
        <time>2025-01-20T09:57:05Z</time>
      </trkpt>
      <trkpt lat="44.91009" lon="6.72427">
        <ele>2096.5</ele>
        <time>2025-01-20T09:57:11Z</time>
      </trkpt>
      <trkpt lat="44.91009" lon="6.7243">
        <ele>2096.8</ele>
        <time>2025-01-20T09:57:15Z</time>
      </trkpt>
      <trkpt lat="44.91009" lon="6.72432">
        <ele>2097.1</ele>
        <time>2025-01-20T09:57:21Z</time>
      </trkpt>
      <trkpt lat="44.91008" lon="6.72437">
        <ele>2097.9</ele>
        <time>2025-01-20T09:57:28Z</time>
      </trkpt>
      <trkpt lat="44.91006" lon="6.72444">
        <ele>2098.4</ele>
        <time>2025-01-20T09:57:34Z</time>
      </trkpt>
      <trkpt lat="44.91004" lon="6.72451">
        <ele>2100</ele>
        <time>2025-01-20T09:57:39Z</time>
      </trkpt>
      <trkpt lat="44.91002" lon="6.72457">
        <ele>2101.1</ele>
        <time>2025-01-20T09:57:45Z</time>
      </trkpt>
      <trkpt lat="44.91" lon="6.72463">
        <ele>2102.4</ele>
        <time>2025-01-20T09:57:50Z</time>
      </trkpt>
      <trkpt lat="44.90999" lon="6.7247">
        <ele>2103.6</ele>
        <time>2025-01-20T09:57:55Z</time>
      </trkpt>
      <trkpt lat="44.90998" lon="6.72473">
        <ele>2104.3</ele>
        <time>2025-01-20T09:58:01Z</time>
      </trkpt>
      <trkpt lat="44.9099" lon="6.72472">
        <ele>2105.6</ele>
        <time>2025-01-20T09:58:07Z</time>
      </trkpt>
      <trkpt lat="44.90989" lon="6.72478">
        <ele>2106.3</ele>
        <time>2025-01-20T09:58:12Z</time>
      </trkpt>
      <trkpt lat="44.90988" lon="6.72484">
        <ele>2107.7</ele>
        <time>2025-01-20T09:58:17Z</time>
      </trkpt>
      <trkpt lat="44.90988" lon="6.72484">
        <ele>2107.7</ele>
        <time>2025-01-20T09:58:23Z</time>
      </trkpt>
      <trkpt lat="44.90988" lon="6.72484">
        <ele>2107.7</ele>
        <time>2025-01-20T09:58:29Z</time>
      </trkpt>
      <trkpt lat="44.90988" lon="6.7249">
        <ele>2108.4</ele>
        <time>2025-01-20T09:58:35Z</time>
      </trkpt>
      <trkpt lat="44.90988" lon="6.7249">
        <ele>2108.4</ele>
        <time>2025-01-20T09:58:43Z</time>
      </trkpt>
      <trkpt lat="44.90988" lon="6.7249">
        <ele>2108.4</ele>
        <time>2025-01-20T09:58:49Z</time>
      </trkpt>
      <trkpt lat="44.90988" lon="6.7249">
        <ele>2108.4</ele>
        <time>2025-01-20T09:58:58Z</time>
      </trkpt>
      <trkpt lat="44.90988" lon="6.7249">
        <ele>2108.4</ele>
        <time>2025-01-20T09:59:04Z</time>
      </trkpt>
      <trkpt lat="44.90988" lon="6.7249">
        <ele>2108.4</ele>
        <time>2025-01-20T09:59:12Z</time>
      </trkpt>
      <trkpt lat="44.90988" lon="6.7249">
        <ele>2108.4</ele>
        <time>2025-01-20T09:59:17Z</time>
      </trkpt>
      <trkpt lat="44.90988" lon="6.7249">
        <ele>2108.4</ele>
        <time>2025-01-20T09:59:28Z</time>
      </trkpt>
      <trkpt lat="44.90988" lon="6.7249">
        <ele>2108.4</ele>
        <time>2025-01-20T09:59:49Z</time>
      </trkpt>
      <trkpt lat="44.90988" lon="6.7249">
        <ele>2108.4</ele>
        <time>2025-01-20T10:00:08Z</time>
      </trkpt>
      <trkpt lat="44.90988" lon="6.7249">
        <ele>2108.4</ele>
        <time>2025-01-20T10:00:25Z</time>
      </trkpt>
      <trkpt lat="44.90988" lon="6.7249">
        <ele>2108.4</ele>
        <time>2025-01-20T10:00:39Z</time>
      </trkpt>
      <trkpt lat="44.90972" lon="6.72528">
        <ele>2116.6</ele>
        <time>2025-01-20T10:00:45Z</time>
      </trkpt>
      <trkpt lat="44.90968" lon="6.72533">
        <ele>2118</ele>
        <time>2025-01-20T10:00:51Z</time>
      </trkpt>
      <trkpt lat="44.90966" lon="6.72533">
        <ele>2118.2</ele>
        <time>2025-01-20T10:00:52Z</time>
      </trkpt>
      <trkpt lat="44.90962" lon="6.72534">
        <ele>2118.5</ele>
        <time>2025-01-20T10:00:56Z</time>
      </trkpt>
      <trkpt lat="44.90961" lon="6.72535">
        <ele>2118.4</ele>
        <time>2025-01-20T10:01:00Z</time>
      </trkpt>
      <trkpt lat="44.90958" lon="6.72536">
        <ele>2119.5</ele>
        <time>2025-01-20T10:01:05Z</time>
      </trkpt>
      <trkpt lat="44.90952" lon="6.72537">
        <ele>2119.9</ele>
        <time>2025-01-20T10:01:10Z</time>
      </trkpt>
      <trkpt lat="44.90947" lon="6.72537">
        <ele>2120.3</ele>
        <time>2025-01-20T10:01:15Z</time>
      </trkpt>
      <trkpt lat="44.90944" lon="6.72535">
        <ele>2119.8</ele>
        <time>2025-01-20T10:01:18Z</time>
      </trkpt>
      <trkpt lat="44.90942" lon="6.72535">
        <ele>2119.8</ele>
        <time>2025-01-20T10:01:20Z</time>
      </trkpt>
      <trkpt lat="44.90939" lon="6.72535">
        <ele>2120</ele>
        <time>2025-01-20T10:01:25Z</time>
      </trkpt>
      <trkpt lat="44.90934" lon="6.72534">
        <ele>2120.4</ele>
        <time>2025-01-20T10:01:31Z</time>
      </trkpt>
      <trkpt lat="44.90929" lon="6.72532">
        <ele>2120.8</ele>
        <time>2025-01-20T10:01:36Z</time>
      </trkpt>
      <trkpt lat="44.90924" lon="6.72533">
        <ele>2121</ele>
        <time>2025-01-20T10:01:41Z</time>
      </trkpt>
      <trkpt lat="44.90921" lon="6.72532">
        <ele>2121.2</ele>
        <time>2025-01-20T10:01:46Z</time>
      </trkpt>
      <trkpt lat="44.90914" lon="6.72531">
        <ele>2122</ele>
        <time>2025-01-20T10:01:51Z</time>
      </trkpt>
      <trkpt lat="44.90911" lon="6.72532">
        <ele>2122.3</ele>
        <time>2025-01-20T10:01:56Z</time>
      </trkpt>
      <trkpt lat="44.90909" lon="6.72533">
        <ele>2122.3</ele>
        <time>2025-01-20T10:01:57Z</time>
      </trkpt>
      <trkpt lat="44.90909" lon="6.72534">
        <ele>2122.3</ele>
        <time>2025-01-20T10:02:00Z</time>
      </trkpt>
      <trkpt lat="44.90906" lon="6.72509">
        <ele>2120.9</ele>
        <time>2025-01-20T10:02:05Z</time>
      </trkpt>
      <trkpt lat="44.90906" lon="6.72509">
        <ele>2120.9</ele>
        <time>2025-01-20T10:02:10Z</time>
      </trkpt>
      <trkpt lat="44.909" lon="6.7251">
        <ele>2121.1</ele>
        <time>2025-01-20T10:02:15Z</time>
      </trkpt>
      <trkpt lat="44.90896" lon="6.7251">
        <ele>2121.6</ele>
        <time>2025-01-20T10:02:19Z</time>
      </trkpt>
      <trkpt lat="44.90891" lon="6.7251">
        <ele>2122.3</ele>
        <time>2025-01-20T10:02:24Z</time>
      </trkpt>
      <trkpt lat="44.90886" lon="6.7251">
        <ele>2123.1</ele>
        <time>2025-01-20T10:02:30Z</time>
      </trkpt>
      <trkpt lat="44.90885" lon="6.7251">
        <ele>2123.2</ele>
        <time>2025-01-20T10:02:35Z</time>
      </trkpt>
      <trkpt lat="44.90881" lon="6.72511">
        <ele>2123.8</ele>
        <time>2025-01-20T10:02:39Z</time>
      </trkpt>
      <trkpt lat="44.90879" lon="6.72511">
        <ele>2124.1</ele>
        <time>2025-01-20T10:02:40Z</time>
      </trkpt>
      <trkpt lat="44.90875" lon="6.72511">
        <ele>2124.7</ele>
        <time>2025-01-20T10:02:44Z</time>
      </trkpt>
      <trkpt lat="44.90875" lon="6.72511">
        <ele>2124.7</ele>
        <time>2025-01-20T10:02:49Z</time>
      </trkpt>
      <trkpt lat="44.90868" lon="6.72511">
        <ele>2125.7</ele>
        <time>2025-01-20T10:02:54Z</time>
      </trkpt>
      <trkpt lat="44.90864" lon="6.72512">
        <ele>2126.2</ele>
        <time>2025-01-20T10:02:58Z</time>
      </trkpt>
      <trkpt lat="44.90861" lon="6.72512">
        <ele>2126.5</ele>
        <time>2025-01-20T10:03:05Z</time>
      </trkpt>
      <trkpt lat="44.90857" lon="6.72512">
        <ele>2127</ele>
        <time>2025-01-20T10:03:10Z</time>
      </trkpt>
      <trkpt lat="44.90853" lon="6.72512">
        <ele>2127.6</ele>
        <time>2025-01-20T10:03:15Z</time>
      </trkpt>
      <trkpt lat="44.90844" lon="6.72513">
        <ele>2128.5</ele>
        <time>2025-01-20T10:03:21Z</time>
      </trkpt>
      <trkpt lat="44.90839" lon="6.72513">
        <ele>2129.1</ele>
        <time>2025-01-20T10:03:27Z</time>
      </trkpt>
      <trkpt lat="44.90835" lon="6.72513">
        <ele>2129.6</ele>
        <time>2025-01-20T10:03:33Z</time>
      </trkpt>
      <trkpt lat="44.90834" lon="6.72513">
        <ele>2129.7</ele>
        <time>2025-01-20T10:03:38Z</time>
      </trkpt>
      <trkpt lat="44.90834" lon="6.72513">
        <ele>2129.7</ele>
        <time>2025-01-20T10:03:42Z</time>
      </trkpt>
      <trkpt lat="44.90826" lon="6.72513">
        <ele>2130.6</ele>
        <time>2025-01-20T10:03:48Z</time>
      </trkpt>
      <trkpt lat="44.90821" lon="6.72514">
        <ele>2131.3</ele>
        <time>2025-01-20T10:03:53Z</time>
      </trkpt>
      <trkpt lat="44.90821" lon="6.72514">
        <ele>2131.3</ele>
        <time>2025-01-20T10:03:58Z</time>
      </trkpt>
      <trkpt lat="44.90821" lon="6.72514">
        <ele>2131.3</ele>
        <time>2025-01-20T10:04:03Z</time>
      </trkpt>
      <trkpt lat="44.90821" lon="6.72514">
        <ele>2131.3</ele>
        <time>2025-01-20T10:04:08Z</time>
      </trkpt>
      <trkpt lat="44.90821" lon="6.72514">
        <ele>2131.3</ele>
        <time>2025-01-20T10:04:12Z</time>
      </trkpt>
      <trkpt lat="44.90821" lon="6.72514">
        <ele>2131.3</ele>
        <time>2025-01-20T10:04:17Z</time>
      </trkpt>
      <trkpt lat="44.90821" lon="6.72514">
        <ele>2131.3</ele>
        <time>2025-01-20T10:04:22Z</time>
      </trkpt>
      <trkpt lat="44.90821" lon="6.72514">
        <ele>2131.3</ele>
        <time>2025-01-20T10:04:27Z</time>
      </trkpt>
      <trkpt lat="44.90821" lon="6.72514">
        <ele>2131.3</ele>
        <time>2025-01-20T10:04:32Z</time>
      </trkpt>
      <trkpt lat="44.90821" lon="6.72514">
        <ele>2131.3</ele>
        <time>2025-01-20T10:04:36Z</time>
      </trkpt>
      <trkpt lat="44.90821" lon="6.72514">
        <ele>2131.3</ele>
        <time>2025-01-20T10:04:41Z</time>
      </trkpt>
      <trkpt lat="44.90821" lon="6.72514">
        <ele>2131.3</ele>
        <time>2025-01-20T10:04:47Z</time>
      </trkpt>
      <trkpt lat="44.90821" lon="6.72514">
        <ele>2131.3</ele>
        <time>2025-01-20T10:04:52Z</time>
      </trkpt>
      <trkpt lat="44.90821" lon="6.72514">
        <ele>2131.3</ele>
        <time>2025-01-20T10:04:59Z</time>
      </trkpt>
      <trkpt lat="44.90821" lon="6.72514">
        <ele>2131.3</ele>
        <time>2025-01-20T10:05:08Z</time>
      </trkpt>
      <trkpt lat="44.90821" lon="6.72514">
        <ele>2131.3</ele>
        <time>2025-01-20T10:05:14Z</time>
      </trkpt>
      <trkpt lat="44.90821" lon="6.72514">
        <ele>2131.3</ele>
        <time>2025-01-20T10:05:21Z</time>
      </trkpt>
      <trkpt lat="44.90821" lon="6.72514">
        <ele>2131.3</ele>
        <time>2025-01-20T10:05:28Z</time>
      </trkpt>
      <trkpt lat="44.90821" lon="6.72514">
        <ele>2131.3</ele>
        <time>2025-01-20T10:05:36Z</time>
      </trkpt>
      <trkpt lat="44.90821" lon="6.72514">
        <ele>2131.3</ele>
        <time>2025-01-20T10:05:50Z</time>
      </trkpt>
      <trkpt lat="44.90821" lon="6.72514">
        <ele>2131.3</ele>
        <time>2025-01-20T10:06:13Z</time>
      </trkpt>
      <trkpt lat="44.90821" lon="6.72514">
        <ele>2131.3</ele>
        <time>2025-01-20T10:06:32Z</time>
      </trkpt>
      <trkpt lat="44.90821" lon="6.72514">
        <ele>2131.3</ele>
        <time>2025-01-20T10:06:44Z</time>
      </trkpt>
      <trkpt lat="44.90821" lon="6.72514">
        <ele>2131.3</ele>
        <time>2025-01-20T10:06:48Z</time>
      </trkpt>
      <trkpt lat="44.90821" lon="6.72514">
        <ele>2131.3</ele>
        <time>2025-01-20T10:06:52Z</time>
      </trkpt>
      <trkpt lat="44.90821" lon="6.72514">
        <ele>2131.3</ele>
        <time>2025-01-20T10:06:58Z</time>
      </trkpt>
      <trkpt lat="44.90821" lon="6.72514">
        <ele>2131.3</ele>
        <time>2025-01-20T10:07:06Z</time>
      </trkpt>
      <trkpt lat="44.89961" lon="6.72575">
        <ele>2256.9</ele>
        <time>2025-01-20T10:44:24Z</time>
      </trkpt>
      <trkpt lat="44.89961" lon="6.72575">
        <ele>2256.9</ele>
        <time>2025-01-20T10:44:37Z</time>
      </trkpt>
      <trkpt lat="44.89961" lon="6.72575">
        <ele>2256.9</ele>
        <time>2025-01-20T10:44:48Z</time>
      </trkpt>
      <trkpt lat="44.89948" lon="6.72578">
        <ele>2258.3</ele>
        <time>2025-01-20T10:44:56Z</time>
      </trkpt>
      <trkpt lat="44.89944" lon="6.72579">
        <ele>2258.9</ele>
        <time>2025-01-20T10:45:05Z</time>
      </trkpt>
      <trkpt lat="44.89939" lon="6.7258">
        <ele>2259.4</ele>
        <time>2025-01-20T10:45:12Z</time>
      </trkpt>
      <trkpt lat="44.89935" lon="6.72581">
        <ele>2259.8</ele>
        <time>2025-01-20T10:45:18Z</time>
      </trkpt>
      <trkpt lat="44.89935" lon="6.72581">
        <ele>2259.8</ele>
        <time>2025-01-20T10:45:24Z</time>
      </trkpt>
      <trkpt lat="44.89935" lon="6.72581">
        <ele>2259.8</ele>
        <time>2025-01-20T10:45:30Z</time>
      </trkpt>
      <trkpt lat="44.89918" lon="6.72522">
        <ele>2263.9</ele>
        <time>2025-01-20T10:45:38Z</time>
      </trkpt>
      <trkpt lat="44.89912" lon="6.72514">
        <ele>2264.6</ele>
        <time>2025-01-20T10:45:48Z</time>
      </trkpt>
      <trkpt lat="44.89906" lon="6.72508">
        <ele>2265.4</ele>
        <time>2025-01-20T10:45:56Z</time>
      </trkpt>
      <trkpt lat="44.89905" lon="6.72507">
        <ele>2265.6</ele>
        <time>2025-01-20T10:46:03Z</time>
      </trkpt>
      <trkpt lat="44.89901" lon="6.72502">
        <ele>2266.1</ele>
        <time>2025-01-20T10:46:10Z</time>
      </trkpt>
      <trkpt lat="44.89895" lon="6.72499">
        <ele>2266.7</ele>
        <time>2025-01-20T10:46:18Z</time>
      </trkpt>
      <trkpt lat="44.8989" lon="6.72493">
        <ele>2267.4</ele>
        <time>2025-01-20T10:46:26Z</time>
      </trkpt>
      <trkpt lat="44.89884" lon="6.72488">
        <ele>2268</ele>
        <time>2025-01-20T10:46:32Z</time>
      </trkpt>
      <trkpt lat="44.89879" lon="6.72484">
        <ele>2268.5</ele>
        <time>2025-01-20T10:46:39Z</time>
      </trkpt>
      <trkpt lat="44.89876" lon="6.7248">
        <ele>2268.8</ele>
        <time>2025-01-20T10:46:44Z</time>
      </trkpt>
      <trkpt lat="44.89871" lon="6.72474">
        <ele>2269.2</ele>
        <time>2025-01-20T10:46:51Z</time>
      </trkpt>
      <trkpt lat="44.89865" lon="6.7247">
        <ele>2269.7</ele>
        <time>2025-01-20T10:46:59Z</time>
      </trkpt>
      <trkpt lat="44.89861" lon="6.72465">
        <ele>2270</ele>
        <time>2025-01-20T10:47:07Z</time>
      </trkpt>
      <trkpt lat="44.89857" lon="6.72459">
        <ele>2270.3</ele>
        <time>2025-01-20T10:47:14Z</time>
      </trkpt>
      <trkpt lat="44.8985" lon="6.72453">
        <ele>2270.6</ele>
        <time>2025-01-20T10:47:22Z</time>
      </trkpt>
      <trkpt lat="44.89845" lon="6.72448">
        <ele>2270.8</ele>
        <time>2025-01-20T10:47:29Z</time>
      </trkpt>
      <trkpt lat="44.8984" lon="6.72441">
        <ele>2271</ele>
        <time>2025-01-20T10:47:37Z</time>
      </trkpt>
      <trkpt lat="44.89831" lon="6.72434">
        <ele>2271.2</ele>
        <time>2025-01-20T10:47:47Z</time>
      </trkpt>
      <trkpt lat="44.89827" lon="6.72429">
        <ele>2271.3</ele>
        <time>2025-01-20T10:47:56Z</time>
      </trkpt>
      <trkpt lat="44.89819" lon="6.72426">
        <ele>2271.5</ele>
        <time>2025-01-20T10:48:04Z</time>
      </trkpt>
      <trkpt lat="44.89814" lon="6.7242">
        <ele>2271.7</ele>
        <time>2025-01-20T10:48:12Z</time>
      </trkpt>
      <trkpt lat="44.89808" lon="6.72422">
        <ele>2271.9</ele>
        <time>2025-01-20T10:48:20Z</time>
      </trkpt>
      <trkpt lat="44.898" lon="6.72418">
        <ele>2272.2</ele>
        <time>2025-01-20T10:48:29Z</time>
      </trkpt>
      <trkpt lat="44.89794" lon="6.72412">
        <ele>2272.6</ele>
        <time>2025-01-20T10:48:38Z</time>
      </trkpt>
      <trkpt lat="44.89789" lon="6.72411">
        <ele>2272.9</ele>
        <time>2025-01-20T10:48:46Z</time>
      </trkpt>
      <trkpt lat="44.89785" lon="6.72405">
        <ele>2273.2</ele>
        <time>2025-01-20T10:48:54Z</time>
      </trkpt>
      <trkpt lat="44.89779" lon="6.72401">
        <ele>2273.7</ele>
        <time>2025-01-20T10:49:02Z</time>
      </trkpt>
      <trkpt lat="44.89777" lon="6.72396">
        <ele>2274</ele>
        <time>2025-01-20T10:49:08Z</time>
      </trkpt>
      <trkpt lat="44.89773" lon="6.72392">
        <ele>2274.4</ele>
        <time>2025-01-20T10:49:16Z</time>
      </trkpt>
      <trkpt lat="44.89769" lon="6.72388">
        <ele>2274.8</ele>
        <time>2025-01-20T10:49:23Z</time>
      </trkpt>
      <trkpt lat="44.89767" lon="6.72384">
        <ele>2275.1</ele>
        <time>2025-01-20T10:49:30Z</time>
      </trkpt>
      <trkpt lat="44.89762" lon="6.72379">
        <ele>2275.7</ele>
        <time>2025-01-20T10:49:37Z</time>
      </trkpt>
      <trkpt lat="44.89757" lon="6.72373">
        <ele>2276.4</ele>
        <time>2025-01-20T10:49:44Z</time>
      </trkpt>
      <trkpt lat="44.89754" lon="6.72366">
        <ele>2277</ele>
        <time>2025-01-20T10:49:51Z</time>
      </trkpt>
      <trkpt lat="44.89752" lon="6.7236">
        <ele>2277.5</ele>
        <time>2025-01-20T10:49:58Z</time>
      </trkpt>
      <trkpt lat="44.89744" lon="6.72354">
        <ele>2278.7</ele>
        <time>2025-01-20T10:50:06Z</time>
      </trkpt>
      <trkpt lat="44.8974" lon="6.72348">
        <ele>2279.5</ele>
        <time>2025-01-20T10:50:14Z</time>
      </trkpt>
      <trkpt lat="44.8974" lon="6.72346">
        <ele>2279.7</ele>
        <time>2025-01-20T10:50:23Z</time>
      </trkpt>
      <trkpt lat="44.89736" lon="6.7234">
        <ele>2280.5</ele>
        <time>2025-01-20T10:50:31Z</time>
      </trkpt>
      <trkpt lat="44.89731" lon="6.72335">
        <ele>2281.4</ele>
        <time>2025-01-20T10:50:39Z</time>
      </trkpt>
      <trkpt lat="44.89727" lon="6.72327">
        <ele>2283.5</ele>
        <time>2025-01-20T10:50:48Z</time>
      </trkpt>
      <trkpt lat="44.89725" lon="6.72324">
        <ele>2284.7</ele>
        <time>2025-01-20T10:50:56Z</time>
      </trkpt>
      <trkpt lat="44.89718" lon="6.72318">
        <ele>2287.9</ele>
        <time>2025-01-20T10:51:04Z</time>
      </trkpt>
      <trkpt lat="44.89713" lon="6.72312">
        <ele>2290</ele>
        <time>2025-01-20T10:51:12Z</time>
      </trkpt>
      <trkpt lat="44.89709" lon="6.72306">
        <ele>2290.7</ele>
        <time>2025-01-20T10:51:20Z</time>
      </trkpt>
      <trkpt lat="44.89708" lon="6.72305">
        <ele>2290.9</ele>
        <time>2025-01-20T10:51:26Z</time>
      </trkpt>
      <trkpt lat="44.89708" lon="6.72305">
        <ele>2290.9</ele>
        <time>2025-01-20T10:51:41Z</time>
      </trkpt>
      <trkpt lat="44.89708" lon="6.72305">
        <ele>2290.9</ele>
        <time>2025-01-20T10:51:56Z</time>
      </trkpt>
      <trkpt lat="44.89705" lon="6.72302">
        <ele>2291.4</ele>
        <time>2025-01-20T10:52:07Z</time>
      </trkpt>
      <trkpt lat="44.89701" lon="6.72296">
        <ele>2292.3</ele>
        <time>2025-01-20T10:52:15Z</time>
      </trkpt>
      <trkpt lat="44.89697" lon="6.7229">
        <ele>2293.1</ele>
        <time>2025-01-20T10:52:23Z</time>
      </trkpt>
      <trkpt lat="44.89692" lon="6.72286">
        <ele>2294</ele>
        <time>2025-01-20T10:52:31Z</time>
      </trkpt>
      <trkpt lat="44.89689" lon="6.72281">
        <ele>2294.6</ele>
        <time>2025-01-20T10:52:39Z</time>
      </trkpt>
      <trkpt lat="44.89684" lon="6.72278">
        <ele>2295.3</ele>
        <time>2025-01-20T10:52:48Z</time>
      </trkpt>
      <trkpt lat="44.89681" lon="6.72273">
        <ele>2296</ele>
        <time>2025-01-20T10:52:57Z</time>
      </trkpt>
      <trkpt lat="44.89676" lon="6.7227">
        <ele>2296.7</ele>
        <time>2025-01-20T10:53:04Z</time>
      </trkpt>
      <trkpt lat="44.89673" lon="6.72264">
        <ele>2297.5</ele>
        <time>2025-01-20T10:53:12Z</time>
      </trkpt>
      <trkpt lat="44.89667" lon="6.72259">
        <ele>2298.6</ele>
        <time>2025-01-20T10:53:21Z</time>
      </trkpt>
      <trkpt lat="44.89665" lon="6.72254">
        <ele>2299.3</ele>
        <time>2025-01-20T10:53:28Z</time>
      </trkpt>
      <trkpt lat="44.89663" lon="6.72252">
        <ele>2299.6</ele>
        <time>2025-01-20T10:53:36Z</time>
      </trkpt>
      <trkpt lat="44.89658" lon="6.72246">
        <ele>2300.8</ele>
        <time>2025-01-20T10:53:46Z</time>
      </trkpt>
      <trkpt lat="44.89652" lon="6.72242">
        <ele>2302</ele>
        <time>2025-01-20T10:53:56Z</time>
      </trkpt>
      <trkpt lat="44.89647" lon="6.72236">
        <ele>2303</ele>
        <time>2025-01-20T10:54:04Z</time>
      </trkpt>
      <trkpt lat="44.89644" lon="6.72231">
        <ele>2303.8</ele>
        <time>2025-01-20T10:54:12Z</time>
      </trkpt>
      <trkpt lat="44.89641" lon="6.72226">
        <ele>2304.6</ele>
        <time>2025-01-20T10:54:20Z</time>
      </trkpt>
      <trkpt lat="44.89636" lon="6.72221">
        <ele>2305.7</ele>
        <time>2025-01-20T10:54:29Z</time>
      </trkpt>
      <trkpt lat="44.89632" lon="6.72215">
        <ele>2306.5</ele>
        <time>2025-01-20T10:54:36Z</time>
      </trkpt>
      <trkpt lat="44.89628" lon="6.7221">
        <ele>2307.5</ele>
        <time>2025-01-20T10:54:45Z</time>
      </trkpt>
      <trkpt lat="44.89623" lon="6.72205">
        <ele>2308.4</ele>
        <time>2025-01-20T10:54:53Z</time>
      </trkpt>
      <trkpt lat="44.8962" lon="6.72199">
        <ele>2309.1</ele>
        <time>2025-01-20T10:55:00Z</time>
      </trkpt>
      <trkpt lat="44.89619" lon="6.72198">
        <ele>2309.3</ele>
        <time>2025-01-20T10:55:07Z</time>
      </trkpt>
      <trkpt lat="44.89616" lon="6.72193">
        <ele>2310</ele>
        <time>2025-01-20T10:55:14Z</time>
      </trkpt>
      <trkpt lat="44.89613" lon="6.72188">
        <ele>2310.6</ele>
        <time>2025-01-20T10:55:21Z</time>
      </trkpt>
      <trkpt lat="44.89609" lon="6.72182">
        <ele>2311.3</ele>
        <time>2025-01-20T10:55:28Z</time>
      </trkpt>
      <trkpt lat="44.89606" lon="6.72176">
        <ele>2311.9</ele>
        <time>2025-01-20T10:55:35Z</time>
      </trkpt>
      <trkpt lat="44.89601" lon="6.72171">
        <ele>2312.6</ele>
        <time>2025-01-20T10:55:42Z</time>
      </trkpt>
      <trkpt lat="44.89598" lon="6.72165">
        <ele>2313.1</ele>
        <time>2025-01-20T10:55:48Z</time>
      </trkpt>
      <trkpt lat="44.89597" lon="6.72164">
        <ele>2313.3</ele>
        <time>2025-01-20T10:55:56Z</time>
      </trkpt>
      <trkpt lat="44.89594" lon="6.72159">
        <ele>2313.8</ele>
        <time>2025-01-20T10:56:02Z</time>
      </trkpt>
      <trkpt lat="44.8959" lon="6.72154">
        <ele>2314.3</ele>
        <time>2025-01-20T10:56:09Z</time>
      </trkpt>
      <trkpt lat="44.89586" lon="6.72146">
        <ele>2315</ele>
        <time>2025-01-20T10:56:16Z</time>
      </trkpt>
      <trkpt lat="44.89582" lon="6.7214">
        <ele>2315.6</ele>
        <time>2025-01-20T10:56:25Z</time>
      </trkpt>
      <trkpt lat="44.89578" lon="6.72137">
        <ele>2316.1</ele>
        <time>2025-01-20T10:56:32Z</time>
      </trkpt>
      <trkpt lat="44.89577" lon="6.72135">
        <ele>2316.3</ele>
        <time>2025-01-20T10:56:43Z</time>
      </trkpt>
      <trkpt lat="44.89573" lon="6.72129">
        <ele>2317</ele>
        <time>2025-01-20T10:56:51Z</time>
      </trkpt>
      <trkpt lat="44.89571" lon="6.72123">
        <ele>2317.6</ele>
        <time>2025-01-20T10:56:58Z</time>
      </trkpt>
      <trkpt lat="44.89568" lon="6.72119">
        <ele>2318.2</ele>
        <time>2025-01-20T10:57:05Z</time>
      </trkpt>
      <trkpt lat="44.89565" lon="6.7211">
        <ele>2319.1</ele>
        <time>2025-01-20T10:57:14Z</time>
      </trkpt>
      <trkpt lat="44.89563" lon="6.72104">
        <ele>2319.8</ele>
        <time>2025-01-20T10:57:22Z</time>
      </trkpt>
      <trkpt lat="44.89561" lon="6.72101">
        <ele>2320.3</ele>
        <time>2025-01-20T10:57:29Z</time>
      </trkpt>
      <trkpt lat="44.8956" lon="6.72101">
        <ele>2320.3</ele>
        <time>2025-01-20T10:57:42Z</time>
      </trkpt>
      <trkpt lat="44.89558" lon="6.72096">
        <ele>2321</ele>
        <time>2025-01-20T10:57:49Z</time>
      </trkpt>
      <trkpt lat="44.89556" lon="6.7209">
        <ele>2321.7</ele>
        <time>2025-01-20T10:57:56Z</time>
      </trkpt>
      <trkpt lat="44.89554" lon="6.72085">
        <ele>2322.3</ele>
        <time>2025-01-20T10:58:03Z</time>
      </trkpt>
      <trkpt lat="44.89551" lon="6.72077">
        <ele>2323.2</ele>
        <time>2025-01-20T10:58:11Z</time>
      </trkpt>
      <trkpt lat="44.8955" lon="6.72075">
        <ele>2323.6</ele>
        <time>2025-01-20T10:58:18Z</time>
      </trkpt>
      <trkpt lat="44.89549" lon="6.7207">
        <ele>2324.2</ele>
        <time>2025-01-20T10:58:25Z</time>
      </trkpt>
      <trkpt lat="44.89547" lon="6.72068">
        <ele>2324.5</ele>
        <time>2025-01-20T10:58:33Z</time>
      </trkpt>
      <trkpt lat="44.89546" lon="6.7206">
        <ele>2325.5</ele>
        <time>2025-01-20T10:58:40Z</time>
      </trkpt>
      <trkpt lat="44.89543" lon="6.72054">
        <ele>2326.3</ele>
        <time>2025-01-20T10:58:47Z</time>
      </trkpt>
      <trkpt lat="44.89542" lon="6.72049">
        <ele>2327.1</ele>
        <time>2025-01-20T10:58:53Z</time>
      </trkpt>
      <trkpt lat="44.8954" lon="6.72047">
        <ele>2327.4</ele>
        <time>2025-01-20T10:59:01Z</time>
      </trkpt>
      <trkpt lat="44.89538" lon="6.72043">
        <ele>2328</ele>
        <time>2025-01-20T10:59:10Z</time>
      </trkpt>
      <trkpt lat="44.89537" lon="6.7204">
        <ele>2328.3</ele>
        <time>2025-01-20T10:59:19Z</time>
      </trkpt>
      <trkpt lat="44.89535" lon="6.72034">
        <ele>2329.2</ele>
        <time>2025-01-20T10:59:26Z</time>
      </trkpt>
      <trkpt lat="44.89533" lon="6.72028">
        <ele>2330</ele>
        <time>2025-01-20T10:59:34Z</time>
      </trkpt>
      <trkpt lat="44.8953" lon="6.7202">
        <ele>2331</ele>
        <time>2025-01-20T10:59:43Z</time>
      </trkpt>
      <trkpt lat="44.89529" lon="6.72018">
        <ele>2331.4</ele>
        <time>2025-01-20T10:59:53Z</time>
      </trkpt>
      <trkpt lat="44.89529" lon="6.72017">
        <ele>2331.5</ele>
        <time>2025-01-20T11:00:05Z</time>
      </trkpt>
      <trkpt lat="44.89527" lon="6.72009">
        <ele>2332.6</ele>
        <time>2025-01-20T11:00:13Z</time>
      </trkpt>
      <trkpt lat="44.89525" lon="6.72004">
        <ele>2333.3</ele>
        <time>2025-01-20T11:00:19Z</time>
      </trkpt>
      <trkpt lat="44.89525" lon="6.71998">
        <ele>2334</ele>
        <time>2025-01-20T11:00:26Z</time>
      </trkpt>
      <trkpt lat="44.89526" lon="6.71992">
        <ele>2334.8</ele>
        <time>2025-01-20T11:00:33Z</time>
      </trkpt>
      <trkpt lat="44.89521" lon="6.71988">
        <ele>2335.8</ele>
        <time>2025-01-20T11:00:40Z</time>
      </trkpt>
      <trkpt lat="44.89518" lon="6.71982">
        <ele>2336.8</ele>
        <time>2025-01-20T11:00:49Z</time>
      </trkpt>
      <trkpt lat="44.89515" lon="6.71978">
        <ele>2337.5</ele>
        <time>2025-01-20T11:00:56Z</time>
      </trkpt>
      <trkpt lat="44.89511" lon="6.71973">
        <ele>2338.4</ele>
        <time>2025-01-20T11:01:03Z</time>
      </trkpt>
      <trkpt lat="44.89512" lon="6.71968">
        <ele>2339</ele>
        <time>2025-01-20T11:01:10Z</time>
      </trkpt>
      <trkpt lat="44.89511" lon="6.71962">
        <ele>2340</ele>
        <time>2025-01-20T11:01:18Z</time>
      </trkpt>
      <trkpt lat="44.89508" lon="6.71959">
        <ele>2340.6</ele>
        <time>2025-01-20T11:01:27Z</time>
      </trkpt>
      <trkpt lat="44.89506" lon="6.71954">
        <ele>2341.3</ele>
        <time>2025-01-20T11:01:34Z</time>
      </trkpt>
      <trkpt lat="44.89504" lon="6.71949">
        <ele>2342.1</ele>
        <time>2025-01-20T11:01:41Z</time>
      </trkpt>
      <trkpt lat="44.89504" lon="6.71948">
        <ele>2342.2</ele>
        <time>2025-01-20T11:01:50Z</time>
      </trkpt>
      <trkpt lat="44.89502" lon="6.71944">
        <ele>2342.9</ele>
        <time>2025-01-20T11:01:58Z</time>
      </trkpt>
      <trkpt lat="44.89502" lon="6.71943">
        <ele>2342.9</ele>
        <time>2025-01-20T11:02:05Z</time>
      </trkpt>
      <trkpt lat="44.89502" lon="6.71941">
        <ele>2343.3</ele>
        <time>2025-01-20T11:02:18Z</time>
      </trkpt>
      <trkpt lat="44.895" lon="6.71933">
        <ele>2344.4</ele>
        <time>2025-01-20T11:02:25Z</time>
      </trkpt>
      <trkpt lat="44.89499" lon="6.7193">
        <ele>2344.8</ele>
        <time>2025-01-20T11:02:31Z</time>
      </trkpt>
      <trkpt lat="44.89497" lon="6.71922">
        <ele>2345.9</ele>
        <time>2025-01-20T11:02:38Z</time>
      </trkpt>
      <trkpt lat="44.89497" lon="6.71919">
        <ele>2346.3</ele>
        <time>2025-01-20T11:02:45Z</time>
      </trkpt>
      <trkpt lat="44.89495" lon="6.71912">
        <ele>2347.2</ele>
        <time>2025-01-20T11:02:53Z</time>
      </trkpt>
      <trkpt lat="44.89493" lon="6.71905">
        <ele>2348.3</ele>
        <time>2025-01-20T11:03:01Z</time>
      </trkpt>
      <trkpt lat="44.8949" lon="6.71902">
        <ele>2348.9</ele>
        <time>2025-01-20T11:03:06Z</time>
      </trkpt>
      <trkpt lat="44.8949" lon="6.71898">
        <ele>2349.4</ele>
        <time>2025-01-20T11:03:12Z</time>
      </trkpt>
      <trkpt lat="44.89489" lon="6.71893">
        <ele>2350.1</ele>
        <time>2025-01-20T11:03:19Z</time>
      </trkpt>
      <trkpt lat="44.89487" lon="6.71891">
        <ele>2350.5</ele>
        <time>2025-01-20T11:03:26Z</time>
      </trkpt>
      <trkpt lat="44.89486" lon="6.71889">
        <ele>2350.9</ele>
        <time>2025-01-20T11:03:34Z</time>
      </trkpt>
      <trkpt lat="44.89486" lon="6.71888">
        <ele>2351</ele>
        <time>2025-01-20T11:03:40Z</time>
      </trkpt>
      <trkpt lat="44.89486" lon="6.71882">
        <ele>2351.8</ele>
        <time>2025-01-20T11:03:48Z</time>
      </trkpt>
      <trkpt lat="44.89483" lon="6.71876">
        <ele>2352.8</ele>
        <time>2025-01-20T11:03:55Z</time>
      </trkpt>
      <trkpt lat="44.89483" lon="6.71874">
        <ele>2353.1</ele>
        <time>2025-01-20T11:04:02Z</time>
      </trkpt>
      <trkpt lat="44.89481" lon="6.71867">
        <ele>2354.2</ele>
        <time>2025-01-20T11:04:10Z</time>
      </trkpt>
      <trkpt lat="44.8948" lon="6.7186">
        <ele>2355.1</ele>
        <time>2025-01-20T11:04:17Z</time>
      </trkpt>
      <trkpt lat="44.89478" lon="6.71853">
        <ele>2356.3</ele>
        <time>2025-01-20T11:04:27Z</time>
      </trkpt>
      <trkpt lat="44.89478" lon="6.71852">
        <ele>2356.4</ele>
        <time>2025-01-20T11:04:34Z</time>
      </trkpt>
      <trkpt lat="44.89479" lon="6.71846">
        <ele>2357.3</ele>
        <time>2025-01-20T11:04:40Z</time>
      </trkpt>
      <trkpt lat="44.89477" lon="6.71842">
        <ele>2358.1</ele>
        <time>2025-01-20T11:04:45Z</time>
      </trkpt>
      <trkpt lat="44.89474" lon="6.71838">
        <ele>2358.9</ele>
        <time>2025-01-20T11:04:54Z</time>
      </trkpt>
      <trkpt lat="44.89472" lon="6.71834">
        <ele>2359.7</ele>
        <time>2025-01-20T11:05:00Z</time>
      </trkpt>
      <trkpt lat="44.89469" lon="6.7183">
        <ele>2360.5</ele>
        <time>2025-01-20T11:05:07Z</time>
      </trkpt>
      <trkpt lat="44.89469" lon="6.71829">
        <ele>2360.6</ele>
        <time>2025-01-20T11:05:14Z</time>
      </trkpt>
      <trkpt lat="44.89467" lon="6.71826">
        <ele>2361.3</ele>
        <time>2025-01-20T11:05:24Z</time>
      </trkpt>
      <trkpt lat="44.89467" lon="6.71821">
        <ele>2361.9</ele>
        <time>2025-01-20T11:05:35Z</time>
      </trkpt>
      <trkpt lat="44.89469" lon="6.71814">
        <ele>2362.9</ele>
        <time>2025-01-20T11:05:43Z</time>
      </trkpt>
      <trkpt lat="44.89469" lon="6.7181">
        <ele>2363.5</ele>
        <time>2025-01-20T11:05:49Z</time>
      </trkpt>
      <trkpt lat="44.89468" lon="6.71804">
        <ele>2364.6</ele>
        <time>2025-01-20T11:05:58Z</time>
      </trkpt>
      <trkpt lat="44.89468" lon="6.71801">
        <ele>2365</ele>
        <time>2025-01-20T11:06:06Z</time>
      </trkpt>
      <trkpt lat="44.89467" lon="6.71796">
        <ele>2365.7</ele>
        <time>2025-01-20T11:06:13Z</time>
      </trkpt>
      <trkpt lat="44.89465" lon="6.71791">
        <ele>2366.5</ele>
        <time>2025-01-20T11:06:21Z</time>
      </trkpt>
      <trkpt lat="44.89465" lon="6.71788">
        <ele>2367.1</ele>
        <time>2025-01-20T11:06:29Z</time>
      </trkpt>
      <trkpt lat="44.89465" lon="6.71786">
        <ele>2367.4</ele>
        <time>2025-01-20T11:06:36Z</time>
      </trkpt>
      <trkpt lat="44.89462" lon="6.7178">
        <ele>2368.5</ele>
        <time>2025-01-20T11:06:44Z</time>
      </trkpt>
      <trkpt lat="44.89462" lon="6.71777">
        <ele>2369</ele>
        <time>2025-01-20T11:06:51Z</time>
      </trkpt>
      <trkpt lat="44.89463" lon="6.71773">
        <ele>2369.6</ele>
        <time>2025-01-20T11:06:58Z</time>
      </trkpt>
      <trkpt lat="44.89462" lon="6.71769">
        <ele>2370.2</ele>
        <time>2025-01-20T11:07:05Z</time>
      </trkpt>
      <trkpt lat="44.8946" lon="6.71761">
        <ele>2371.5</ele>
        <time>2025-01-20T11:07:12Z</time>
      </trkpt>
      <trkpt lat="44.89458" lon="6.71754">
        <ele>2372.7</ele>
        <time>2025-01-20T11:07:20Z</time>
      </trkpt>
      <trkpt lat="44.89458" lon="6.71748">
        <ele>2373.6</ele>
        <time>2025-01-20T11:07:27Z</time>
      </trkpt>
      <trkpt lat="44.89456" lon="6.71742">
        <ele>2374.7</ele>
        <time>2025-01-20T11:07:37Z</time>
      </trkpt>
      <trkpt lat="44.89453" lon="6.71738">
        <ele>2375.5</ele>
        <time>2025-01-20T11:07:45Z</time>
      </trkpt>
      <trkpt lat="44.89449" lon="6.71733">
        <ele>2376.5</ele>
        <time>2025-01-20T11:07:53Z</time>
      </trkpt>
      <trkpt lat="44.89448" lon="6.7173">
        <ele>2376.9</ele>
        <time>2025-01-20T11:08:01Z</time>
      </trkpt>
      <trkpt lat="44.89446" lon="6.71727">
        <ele>2377.6</ele>
        <time>2025-01-20T11:08:09Z</time>
      </trkpt>
      <trkpt lat="44.89443" lon="6.71723">
        <ele>2378.2</ele>
        <time>2025-01-20T11:08:19Z</time>
      </trkpt>
      <trkpt lat="44.8944" lon="6.71721">
        <ele>2379.4</ele>
        <time>2025-01-20T11:08:27Z</time>
      </trkpt>
      <trkpt lat="44.89436" lon="6.71718">
        <ele>2380.7</ele>
        <time>2025-01-20T11:08:35Z</time>
      </trkpt>
      <trkpt lat="44.89433" lon="6.71715">
        <ele>2382</ele>
        <time>2025-01-20T11:08:42Z</time>
      </trkpt>
      <trkpt lat="44.89429" lon="6.71712">
        <ele>2382.5</ele>
        <time>2025-01-20T11:08:50Z</time>
      </trkpt>
      <trkpt lat="44.89427" lon="6.71707">
        <ele>2383.7</ele>
        <time>2025-01-20T11:08:57Z</time>
      </trkpt>
      <trkpt lat="44.89424" lon="6.71701">
        <ele>2385.7</ele>
        <time>2025-01-20T11:09:05Z</time>
      </trkpt>
      <trkpt lat="44.89422" lon="6.71699">
        <ele>2385.8</ele>
        <time>2025-01-20T11:09:10Z</time>
      </trkpt>
      <trkpt lat="44.89422" lon="6.71696">
        <ele>2387</ele>
        <time>2025-01-20T11:09:17Z</time>
      </trkpt>
      <trkpt lat="44.89421" lon="6.71692">
        <ele>2387.9</ele>
        <time>2025-01-20T11:09:26Z</time>
      </trkpt>
      <trkpt lat="44.89419" lon="6.71689">
        <ele>2388.8</ele>
        <time>2025-01-20T11:09:35Z</time>
      </trkpt>
      <trkpt lat="44.89419" lon="6.71688">
        <ele>2388.9</ele>
        <time>2025-01-20T11:09:41Z</time>
      </trkpt>
      <trkpt lat="44.89416" lon="6.71682">
        <ele>2390</ele>
        <time>2025-01-20T11:09:48Z</time>
      </trkpt>
      <trkpt lat="44.89413" lon="6.71678">
        <ele>2391.2</ele>
        <time>2025-01-20T11:09:57Z</time>
      </trkpt>
      <trkpt lat="44.89414" lon="6.71671">
        <ele>2392.3</ele>
        <time>2025-01-20T11:10:06Z</time>
      </trkpt>
      <trkpt lat="44.89416" lon="6.71668">
        <ele>2392.1</ele>
        <time>2025-01-20T11:10:12Z</time>
      </trkpt>
      <trkpt lat="44.89416" lon="6.71668">
        <ele>2392.2</ele>
        <time>2025-01-20T11:10:21Z</time>
      </trkpt>
      <trkpt lat="44.89416" lon="6.71668">
        <ele>2392.3</ele>
        <time>2025-01-20T11:10:33Z</time>
      </trkpt>
      <trkpt lat="44.89413" lon="6.71667">
        <ele>2393.2</ele>
        <time>2025-01-20T11:10:43Z</time>
      </trkpt>
      <trkpt lat="44.89409" lon="6.71664">
        <ele>2394.4</ele>
        <time>2025-01-20T11:10:50Z</time>
      </trkpt>
      <trkpt lat="44.89408" lon="6.71663">
        <ele>2394.5</ele>
        <time>2025-01-20T11:10:58Z</time>
      </trkpt>
      <trkpt lat="44.89404" lon="6.71663">
        <ele>2394.8</ele>
        <time>2025-01-20T11:11:04Z</time>
      </trkpt>
      <trkpt lat="44.89401" lon="6.71659">
        <ele>2395.7</ele>
        <time>2025-01-20T11:11:12Z</time>
      </trkpt>
      <trkpt lat="44.894" lon="6.71659">
        <ele>2396</ele>
        <time>2025-01-20T11:11:20Z</time>
      </trkpt>
      <trkpt lat="44.89397" lon="6.71658">
        <ele>2396.3</ele>
        <time>2025-01-20T11:11:27Z</time>
      </trkpt>
      <trkpt lat="44.89397" lon="6.71657">
        <ele>2396.4</ele>
        <time>2025-01-20T11:11:34Z</time>
      </trkpt>
      <trkpt lat="44.89394" lon="6.71655">
        <ele>2397.3</ele>
        <time>2025-01-20T11:11:40Z</time>
      </trkpt>
      <trkpt lat="44.89393" lon="6.71652">
        <ele>2397.4</ele>
        <time>2025-01-20T11:11:47Z</time>
      </trkpt>
      <trkpt lat="44.89392" lon="6.7165">
        <ele>2398.2</ele>
        <time>2025-01-20T11:11:52Z</time>
      </trkpt>
      <trkpt lat="44.89391" lon="6.71648">
        <ele>2398.4</ele>
        <time>2025-01-20T11:11:59Z</time>
      </trkpt>
      <trkpt lat="44.89388" lon="6.71644">
        <ele>2399.2</ele>
        <time>2025-01-20T11:12:05Z</time>
      </trkpt>
      <trkpt lat="44.89386" lon="6.71641">
        <ele>2399.9</ele>
        <time>2025-01-20T11:12:11Z</time>
      </trkpt>
      <trkpt lat="44.89386" lon="6.71639">
        <ele>2400</ele>
        <time>2025-01-20T11:12:18Z</time>
      </trkpt>
      <trkpt lat="44.89386" lon="6.71639">
        <ele>2400.1</ele>
        <time>2025-01-20T11:12:30Z</time>
      </trkpt>
      <trkpt lat="44.89385" lon="6.71636">
        <ele>2400.8</ele>
        <time>2025-01-20T11:12:37Z</time>
      </trkpt>
      <trkpt lat="44.89388" lon="6.71632">
        <ele>2401.3</ele>
        <time>2025-01-20T11:12:43Z</time>
      </trkpt>
      <trkpt lat="44.89392" lon="6.71628">
        <ele>2401.8</ele>
        <time>2025-01-20T11:12:49Z</time>
      </trkpt>
      <trkpt lat="44.89395" lon="6.71626">
        <ele>2401.8</ele>
        <time>2025-01-20T11:12:56Z</time>
      </trkpt>
      <trkpt lat="44.89396" lon="6.71625">
        <ele>2402.3</ele>
        <time>2025-01-20T11:13:04Z</time>
      </trkpt>
      <trkpt lat="44.89398" lon="6.71621">
        <ele>2402.2</ele>
        <time>2025-01-20T11:13:12Z</time>
      </trkpt>
      <trkpt lat="44.89399" lon="6.71615">
        <ele>2403.2</ele>
        <time>2025-01-20T11:13:19Z</time>
      </trkpt>
      <trkpt lat="44.89396" lon="6.71613">
        <ele>2403.5</ele>
        <time>2025-01-20T11:13:26Z</time>
      </trkpt>
      <trkpt lat="44.89395" lon="6.71611">
        <ele>2404.1</ele>
        <time>2025-01-20T11:13:33Z</time>
      </trkpt>
      <trkpt lat="44.89393" lon="6.71608">
        <ele>2404.8</ele>
        <time>2025-01-20T11:13:41Z</time>
      </trkpt>
      <trkpt lat="44.89392" lon="6.71603">
        <ele>2405.4</ele>
        <time>2025-01-20T11:13:49Z</time>
      </trkpt>
      <trkpt lat="44.89391" lon="6.71594">
        <ele>2406.5</ele>
        <time>2025-01-20T11:13:58Z</time>
      </trkpt>
      <trkpt lat="44.8939" lon="6.71591">
        <ele>2406.6</ele>
        <time>2025-01-20T11:14:06Z</time>
      </trkpt>
      <trkpt lat="44.89391" lon="6.71587">
        <ele>2407.1</ele>
        <time>2025-01-20T11:14:12Z</time>
      </trkpt>
      <trkpt lat="44.89391" lon="6.71586">
        <ele>2407.5</ele>
        <time>2025-01-20T11:14:19Z</time>
      </trkpt>
      <trkpt lat="44.89393" lon="6.71577">
        <ele>2408.2</ele>
        <time>2025-01-20T11:14:27Z</time>
      </trkpt>
      <trkpt lat="44.89393" lon="6.71573">
        <ele>2408.7</ele>
        <time>2025-01-20T11:14:33Z</time>
      </trkpt>
      <trkpt lat="44.89393" lon="6.7157">
        <ele>2408.8</ele>
        <time>2025-01-20T11:14:41Z</time>
      </trkpt>
      <trkpt lat="44.89393" lon="6.71566">
        <ele>2409.3</ele>
        <time>2025-01-20T11:14:49Z</time>
      </trkpt>
      <trkpt lat="44.89394" lon="6.71562">
        <ele>2409.8</ele>
        <time>2025-01-20T11:14:58Z</time>
      </trkpt>
      <trkpt lat="44.89394" lon="6.71562">
        <ele>2409.9</ele>
        <time>2025-01-20T11:15:10Z</time>
      </trkpt>
      <trkpt lat="44.89394" lon="6.71562">
        <ele>2410</ele>
        <time>2025-01-20T11:15:20Z</time>
      </trkpt>
      <trkpt lat="44.89394" lon="6.71562">
        <ele>2410</ele>
        <time>2025-01-20T11:15:30Z</time>
      </trkpt>
      <trkpt lat="44.89395" lon="6.7156">
        <ele>2410.5</ele>
        <time>2025-01-20T11:15:38Z</time>
      </trkpt>
      <trkpt lat="44.89395" lon="6.7156">
        <ele>2410.6</ele>
        <time>2025-01-20T11:15:45Z</time>
      </trkpt>
      <trkpt lat="44.89395" lon="6.7156">
        <ele>2410.7</ele>
        <time>2025-01-20T11:15:54Z</time>
      </trkpt>
      <trkpt lat="44.89395" lon="6.7156">
        <ele>2410.8</ele>
        <time>2025-01-20T11:16:03Z</time>
      </trkpt>
      <trkpt lat="44.89395" lon="6.7156">
        <ele>2410.9</ele>
        <time>2025-01-20T11:16:11Z</time>
      </trkpt>
      <trkpt lat="44.89399" lon="6.71557">
        <ele>2410.9</ele>
        <time>2025-01-20T11:16:21Z</time>
      </trkpt>
      <trkpt lat="44.89405" lon="6.71543">
        <ele>2412.1</ele>
        <time>2025-01-20T11:16:30Z</time>
      </trkpt>
      <trkpt lat="44.89405" lon="6.71532">
        <ele>2412.8</ele>
        <time>2025-01-20T11:16:40Z</time>
      </trkpt>
      <trkpt lat="44.89399" lon="6.71478">
        <ele>2416.8</ele>
        <time>2025-01-20T11:16:49Z</time>
      </trkpt>
      <trkpt lat="44.89402" lon="6.71479">
        <ele>2416.7</ele>
        <time>2025-01-20T11:16:55Z</time>
      </trkpt>
      <trkpt lat="44.89402" lon="6.71479">
        <ele>2416.8</ele>
        <time>2025-01-20T11:17:03Z</time>
      </trkpt>
      <trkpt lat="44.89402" lon="6.71479">
        <ele>2416.9</ele>
        <time>2025-01-20T11:17:17Z</time>
      </trkpt>
      <trkpt lat="44.89402" lon="6.71479">
        <ele>2417</ele>
        <time>2025-01-20T11:17:29Z</time>
      </trkpt>
      <trkpt lat="44.89402" lon="6.71479">
        <ele>2417.1</ele>
        <time>2025-01-20T11:17:41Z</time>
      </trkpt>
      <trkpt lat="44.89402" lon="6.71479">
        <ele>2417.2</ele>
        <time>2025-01-20T11:17:56Z</time>
      </trkpt>
      <trkpt lat="44.89402" lon="6.71479">
        <ele>2417.3</ele>
        <time>2025-01-20T11:18:14Z</time>
      </trkpt>
      <trkpt lat="44.89402" lon="6.71479">
        <ele>2417.4</ele>
        <time>2025-01-20T11:18:30Z</time>
      </trkpt>
      <trkpt lat="44.89402" lon="6.71479">
        <ele>2417.5</ele>
        <time>2025-01-20T11:18:43Z</time>
      </trkpt>
      <trkpt lat="44.89402" lon="6.71479">
        <ele>2417.6</ele>
        <time>2025-01-20T11:18:56Z</time>
      </trkpt>
      <trkpt lat="44.89402" lon="6.71479">
        <ele>2417.7</ele>
        <time>2025-01-20T11:19:07Z</time>
      </trkpt>
      <trkpt lat="44.89402" lon="6.71479">
        <ele>2417.8</ele>
        <time>2025-01-20T11:19:14Z</time>
      </trkpt>
      <trkpt lat="44.89402" lon="6.71479">
        <ele>2417.9</ele>
        <time>2025-01-20T11:19:24Z</time>
      </trkpt>
      <trkpt lat="44.89402" lon="6.71479">
        <ele>2418</ele>
        <time>2025-01-20T11:19:33Z</time>
      </trkpt>
      <trkpt lat="44.89392" lon="6.71433">
        <ele>2422</ele>
        <time>2025-01-20T11:19:43Z</time>
      </trkpt>
      <trkpt lat="44.89391" lon="6.71426">
        <ele>2422.2</ele>
        <time>2025-01-20T11:19:49Z</time>
      </trkpt>
      <trkpt lat="44.89389" lon="6.71424">
        <ele>2422.3</ele>
        <time>2025-01-20T11:19:56Z</time>
      </trkpt>
      <trkpt lat="44.89383" lon="6.71424">
        <ele>2422.2</ele>
        <time>2025-01-20T11:20:03Z</time>
      </trkpt>
      <trkpt lat="44.89379" lon="6.71424">
        <ele>2422</ele>
        <time>2025-01-20T11:20:10Z</time>
      </trkpt>
      <trkpt lat="44.89379" lon="6.71424">
        <ele>2422.1</ele>
        <time>2025-01-20T11:20:20Z</time>
      </trkpt>
      <trkpt lat="44.89379" lon="6.71424">
        <ele>2422.2</ele>
        <time>2025-01-20T11:20:36Z</time>
      </trkpt>
      <trkpt lat="44.89378" lon="6.71425">
        <ele>2422.3</ele>
        <time>2025-01-20T11:20:56Z</time>
      </trkpt>
      <trkpt lat="44.89378" lon="6.71426">
        <ele>2422.4</ele>
        <time>2025-01-20T11:21:05Z</time>
      </trkpt>
      <trkpt lat="44.89378" lon="6.71426">
        <ele>2422.5</ele>
        <time>2025-01-20T11:21:20Z</time>
      </trkpt>
      <trkpt lat="44.89378" lon="6.71426">
        <ele>2422.6</ele>
        <time>2025-01-20T11:21:34Z</time>
      </trkpt>
      <trkpt lat="44.89377" lon="6.71426">
        <ele>2422.7</ele>
        <time>2025-01-20T11:21:53Z</time>
      </trkpt>
      <trkpt lat="44.89377" lon="6.71426">
        <ele>2422.8</ele>
        <time>2025-01-20T11:22:09Z</time>
      </trkpt>
      <trkpt lat="44.89377" lon="6.71426">
        <ele>2422.9</ele>
        <time>2025-01-20T11:22:29Z</time>
      </trkpt>
      <trkpt lat="44.89377" lon="6.71426">
        <ele>2423</ele>
        <time>2025-01-20T11:22:39Z</time>
      </trkpt>
      <trkpt lat="44.89377" lon="6.71426">
        <ele>2423.1</ele>
        <time>2025-01-20T11:22:51Z</time>
      </trkpt>
      <trkpt lat="44.89377" lon="6.71426">
        <ele>2423.2</ele>
        <time>2025-01-20T11:23:01Z</time>
      </trkpt>
      <trkpt lat="44.89377" lon="6.71426">
        <ele>2423.3</ele>
        <time>2025-01-20T11:23:10Z</time>
      </trkpt>
      <trkpt lat="44.89376" lon="6.71417">
        <ele>2423.4</ele>
        <time>2025-01-20T11:23:18Z</time>
      </trkpt>
      <trkpt lat="44.89373" lon="6.71409">
        <ele>2423.4</ele>
        <time>2025-01-20T11:23:25Z</time>
      </trkpt>
      <trkpt lat="44.89373" lon="6.71401">
        <ele>2423.5</ele>
        <time>2025-01-20T11:23:34Z</time>
      </trkpt>
      <trkpt lat="44.89375" lon="6.71393">
        <ele>2423.6</ele>
        <time>2025-01-20T11:23:43Z</time>
      </trkpt>
      <trkpt lat="44.89378" lon="6.71389">
        <ele>2423.7</ele>
        <time>2025-01-20T11:23:50Z</time>
      </trkpt>
      <trkpt lat="44.89385" lon="6.71389">
        <ele>2423.7</ele>
        <time>2025-01-20T11:23:58Z</time>
      </trkpt>
      <trkpt lat="44.89387" lon="6.71391">
        <ele>2423.7</ele>
        <time>2025-01-20T11:24:06Z</time>
      </trkpt>
      <trkpt lat="44.89387" lon="6.71391">
        <ele>2423.8</ele>
        <time>2025-01-20T11:24:22Z</time>
      </trkpt>
      <trkpt lat="44.89387" lon="6.71391">
        <ele>2423.9</ele>
        <time>2025-01-20T11:24:36Z</time>
      </trkpt>
      <trkpt lat="44.89386" lon="6.71391">
        <ele>2424</ele>
        <time>2025-01-20T11:24:51Z</time>
      </trkpt>
      <trkpt lat="44.89386" lon="6.71391">
        <ele>2424.1</ele>
        <time>2025-01-20T11:25:05Z</time>
      </trkpt>
      <trkpt lat="44.89386" lon="6.71391">
        <ele>2424.2</ele>
        <time>2025-01-20T11:25:20Z</time>
      </trkpt>
      <trkpt lat="44.89386" lon="6.71391">
        <ele>2424.3</ele>
        <time>2025-01-20T11:25:31Z</time>
      </trkpt>
      <trkpt lat="44.89386" lon="6.71391">
        <ele>2424.4</ele>
        <time>2025-01-20T11:25:47Z</time>
      </trkpt>
      <trkpt lat="44.89386" lon="6.71391">
        <ele>2424.5</ele>
        <time>2025-01-20T11:26:02Z</time>
      </trkpt>
      <trkpt lat="44.89387" lon="6.71391">
        <ele>2424.6</ele>
        <time>2025-01-20T11:26:19Z</time>
      </trkpt>
      <trkpt lat="44.89387" lon="6.71391">
        <ele>2424.7</ele>
        <time>2025-01-20T11:26:32Z</time>
      </trkpt>
      <trkpt lat="44.89386" lon="6.71391">
        <ele>2424.8</ele>
        <time>2025-01-20T11:26:47Z</time>
      </trkpt>
      <trkpt lat="44.89386" lon="6.71391">
        <ele>2424.9</ele>
        <time>2025-01-20T11:27:00Z</time>
      </trkpt>
      <trkpt lat="44.89386" lon="6.71391">
        <ele>2425</ele>
        <time>2025-01-20T11:27:11Z</time>
      </trkpt>
      <trkpt lat="44.89386" lon="6.71391">
        <ele>2425.1</ele>
        <time>2025-01-20T11:27:23Z</time>
      </trkpt>
      <trkpt lat="44.89386" lon="6.71391">
        <ele>2425.2</ele>
        <time>2025-01-20T11:27:34Z</time>
      </trkpt>
      <trkpt lat="44.89386" lon="6.71391">
        <ele>2425.3</ele>
        <time>2025-01-20T11:27:50Z</time>
      </trkpt>
      <trkpt lat="44.89385" lon="6.71391">
        <ele>2425.3</ele>
        <time>2025-01-20T11:28:03Z</time>
      </trkpt>
      <trkpt lat="44.89385" lon="6.71391">
        <ele>2425.4</ele>
        <time>2025-01-20T11:28:17Z</time>
      </trkpt>
      <trkpt lat="44.89385" lon="6.71391">
        <ele>2425.5</ele>
        <time>2025-01-20T11:28:33Z</time>
      </trkpt>
      <trkpt lat="44.89385" lon="6.71391">
        <ele>2425.8</ele>
        <time>2025-01-20T11:28:47Z</time>
      </trkpt>
      <trkpt lat="44.89385" lon="6.71391">
        <ele>2425.9</ele>
        <time>2025-01-20T11:29:04Z</time>
      </trkpt>
      <trkpt lat="44.89385" lon="6.71391">
        <ele>2425.9</ele>
        <time>2025-01-20T11:29:20Z</time>
      </trkpt>
      <trkpt lat="44.89385" lon="6.71392">
        <ele>2426</ele>
        <time>2025-01-20T11:29:33Z</time>
      </trkpt>
      <trkpt lat="44.89385" lon="6.71392">
        <ele>2426.1</ele>
        <time>2025-01-20T11:29:46Z</time>
      </trkpt>
      <trkpt lat="44.89385" lon="6.71392">
        <ele>2426.2</ele>
        <time>2025-01-20T11:30:01Z</time>
      </trkpt>
      <trkpt lat="44.89385" lon="6.71391">
        <ele>2426.2</ele>
        <time>2025-01-20T11:30:14Z</time>
      </trkpt>
      <trkpt lat="44.89385" lon="6.71391">
        <ele>2426.3</ele>
        <time>2025-01-20T11:30:31Z</time>
      </trkpt>
      <trkpt lat="44.89386" lon="6.71391">
        <ele>2426.4</ele>
        <time>2025-01-20T11:30:47Z</time>
      </trkpt>
      <trkpt lat="44.89386" lon="6.71391">
        <ele>2426.5</ele>
        <time>2025-01-20T11:31:03Z</time>
      </trkpt>
      <trkpt lat="44.89386" lon="6.71391">
        <ele>2426.6</ele>
        <time>2025-01-20T11:31:20Z</time>
      </trkpt>
      <trkpt lat="44.89386" lon="6.71391">
        <ele>2426.7</ele>
        <time>2025-01-20T11:31:35Z</time>
      </trkpt>
      <trkpt lat="44.89386" lon="6.71393">
        <ele>2426.8</ele>
        <time>2025-01-20T11:31:45Z</time>
      </trkpt>
      <trkpt lat="44.89386" lon="6.71393">
        <ele>2426.9</ele>
        <time>2025-01-20T11:31:57Z</time>
      </trkpt>
      <trkpt lat="44.89386" lon="6.71393">
        <ele>2427</ele>
        <time>2025-01-20T11:32:08Z</time>
      </trkpt>
      <trkpt lat="44.89386" lon="6.71393">
        <ele>2427.1</ele>
        <time>2025-01-20T11:32:18Z</time>
      </trkpt>
      <trkpt lat="44.89387" lon="6.71395">
        <ele>2427.2</ele>
        <time>2025-01-20T11:32:26Z</time>
      </trkpt>
      <trkpt lat="44.89387" lon="6.71395">
        <ele>2427.3</ele>
        <time>2025-01-20T11:32:37Z</time>
      </trkpt>
      <trkpt lat="44.89387" lon="6.71395">
        <ele>2427.4</ele>
        <time>2025-01-20T11:32:52Z</time>
      </trkpt>
      <trkpt lat="44.89387" lon="6.71395">
        <ele>2427.5</ele>
        <time>2025-01-20T11:33:03Z</time>
      </trkpt>
      <trkpt lat="44.89388" lon="6.71396">
        <ele>2427.6</ele>
        <time>2025-01-20T11:33:17Z</time>
      </trkpt>
      <trkpt lat="44.89388" lon="6.71396">
        <ele>2427.7</ele>
        <time>2025-01-20T11:33:32Z</time>
      </trkpt>
      <trkpt lat="44.89388" lon="6.71396">
        <ele>2427.8</ele>
        <time>2025-01-20T11:33:51Z</time>
      </trkpt>
      <trkpt lat="44.89388" lon="6.71396">
        <ele>2427.9</ele>
        <time>2025-01-20T11:34:07Z</time>
      </trkpt>
      <trkpt lat="44.89388" lon="6.71396">
        <ele>2428</ele>
        <time>2025-01-20T11:34:20Z</time>
      </trkpt>
      <trkpt lat="44.89388" lon="6.71396">
        <ele>2428.1</ele>
        <time>2025-01-20T11:34:38Z</time>
      </trkpt>
      <trkpt lat="44.89388" lon="6.71396">
        <ele>2428.2</ele>
        <time>2025-01-20T11:34:57Z</time>
      </trkpt>
      <trkpt lat="44.89388" lon="6.71397">
        <ele>2428.3</ele>
        <time>2025-01-20T11:35:14Z</time>
      </trkpt>
      <trkpt lat="44.89388" lon="6.71397">
        <ele>2428.4</ele>
        <time>2025-01-20T11:35:39Z</time>
      </trkpt>
      <trkpt lat="44.89388" lon="6.71397">
        <ele>2428.5</ele>
        <time>2025-01-20T11:36:01Z</time>
      </trkpt>
      <trkpt lat="44.89388" lon="6.71397">
        <ele>2428.6</ele>
        <time>2025-01-20T11:36:26Z</time>
      </trkpt>
      <trkpt lat="44.89388" lon="6.71397">
        <ele>2428.7</ele>
        <time>2025-01-20T11:36:47Z</time>
      </trkpt>
      <trkpt lat="44.89388" lon="6.71397">
        <ele>2428.8</ele>
        <time>2025-01-20T11:37:07Z</time>
      </trkpt>
      <trkpt lat="44.89388" lon="6.71397">
        <ele>2428.9</ele>
        <time>2025-01-20T11:37:29Z</time>
      </trkpt>
      <trkpt lat="44.89388" lon="6.71397">
        <ele>2429</ele>
        <time>2025-01-20T11:37:47Z</time>
      </trkpt>
      <trkpt lat="44.89388" lon="6.71397">
        <ele>2429.1</ele>
        <time>2025-01-20T11:38:05Z</time>
      </trkpt>
      <trkpt lat="44.89388" lon="6.71397">
        <ele>2429.2</ele>
        <time>2025-01-20T11:38:22Z</time>
      </trkpt>
      <trkpt lat="44.89388" lon="6.71397">
        <ele>2429.3</ele>
        <time>2025-01-20T11:38:37Z</time>
      </trkpt>
      <trkpt lat="44.89388" lon="6.71397">
        <ele>2429.4</ele>
        <time>2025-01-20T11:38:52Z</time>
      </trkpt>
      <trkpt lat="44.89388" lon="6.71397">
        <ele>2429.5</ele>
        <time>2025-01-20T11:39:07Z</time>
      </trkpt>
      <trkpt lat="44.89388" lon="6.71395">
        <ele>2429.6</ele>
        <time>2025-01-20T11:39:17Z</time>
      </trkpt>
      <trkpt lat="44.89388" lon="6.71392">
        <ele>2429.6</ele>
        <time>2025-01-20T11:39:25Z</time>
      </trkpt>
      <trkpt lat="44.89388" lon="6.71392">
        <ele>2429.7</ele>
        <time>2025-01-20T11:39:41Z</time>
      </trkpt>
      <trkpt lat="44.89388" lon="6.71392">
        <ele>2429.8</ele>
        <time>2025-01-20T11:39:57Z</time>
      </trkpt>
      <trkpt lat="44.89388" lon="6.71392">
        <ele>2429.9</ele>
        <time>2025-01-20T11:40:10Z</time>
      </trkpt>
      <trkpt lat="44.89388" lon="6.71392">
        <ele>2430</ele>
        <time>2025-01-20T11:40:23Z</time>
      </trkpt>
      <trkpt lat="44.89388" lon="6.71392">
        <ele>2430.1</ele>
        <time>2025-01-20T11:40:40Z</time>
      </trkpt>
      <trkpt lat="44.89388" lon="6.71392">
        <ele>2430.2</ele>
        <time>2025-01-20T11:40:53Z</time>
      </trkpt>
      <trkpt lat="44.89388" lon="6.71392">
        <ele>2430.3</ele>
        <time>2025-01-20T11:41:07Z</time>
      </trkpt>
      <trkpt lat="44.89388" lon="6.71392">
        <ele>2430.4</ele>
        <time>2025-01-20T11:41:20Z</time>
      </trkpt>
      <trkpt lat="44.89388" lon="6.71392">
        <ele>2430.5</ele>
        <time>2025-01-20T11:41:32Z</time>
      </trkpt>
      <trkpt lat="44.89388" lon="6.71393">
        <ele>2430.6</ele>
        <time>2025-01-20T11:41:41Z</time>
      </trkpt>
      <trkpt lat="44.89388" lon="6.71393">
        <ele>2430.7</ele>
        <time>2025-01-20T11:41:47Z</time>
      </trkpt>
      <trkpt lat="44.89388" lon="6.71393">
        <ele>2430.8</ele>
        <time>2025-01-20T11:42:01Z</time>
      </trkpt>
      <trkpt lat="44.89388" lon="6.71393">
        <ele>2430.9</ele>
        <time>2025-01-20T11:42:04Z</time>
      </trkpt>
      <trkpt lat="44.89388" lon="6.71393">
        <ele>2431</ele>
        <time>2025-01-20T11:42:16Z</time>
      </trkpt>
      <trkpt lat="44.89388" lon="6.71393">
        <ele>2431.1</ele>
        <time>2025-01-20T11:42:30Z</time>
      </trkpt>
      <trkpt lat="44.89388" lon="6.71393">
        <ele>2431.2</ele>
        <time>2025-01-20T11:42:43Z</time>
      </trkpt>
      <trkpt lat="44.89388" lon="6.71393">
        <ele>2431.3</ele>
        <time>2025-01-20T11:43:00Z</time>
      </trkpt>
      <trkpt lat="44.89388" lon="6.71393">
        <ele>2431.4</ele>
        <time>2025-01-20T11:43:17Z</time>
      </trkpt>
      <trkpt lat="44.89388" lon="6.71393">
        <ele>2431.5</ele>
        <time>2025-01-20T11:43:31Z</time>
      </trkpt>
      <trkpt lat="44.89388" lon="6.71392">
        <ele>2431.6</ele>
        <time>2025-01-20T11:43:43Z</time>
      </trkpt>
      <trkpt lat="44.89388" lon="6.71392">
        <ele>2431.7</ele>
        <time>2025-01-20T11:43:56Z</time>
      </trkpt>
      <trkpt lat="44.89389" lon="6.71392">
        <ele>2431.6</ele>
        <time>2025-01-20T11:44:05Z</time>
      </trkpt>
      <trkpt lat="44.89392" lon="6.71393">
        <ele>2431.5</ele>
        <time>2025-01-20T11:44:12Z</time>
      </trkpt>
      <trkpt lat="44.89389" lon="6.71391">
        <ele>2431.8</ele>
        <time>2025-01-20T11:44:18Z</time>
      </trkpt>
      <trkpt lat="44.89387" lon="6.71391">
        <ele>2432.1</ele>
        <time>2025-01-20T11:44:23Z</time>
      </trkpt>
      <trkpt lat="44.89391" lon="6.71393">
        <ele>2432</ele>
        <time>2025-01-20T11:44:30Z</time>
      </trkpt>
      <trkpt lat="44.89393" lon="6.71394">
        <ele>2432</ele>
        <time>2025-01-20T11:44:38Z</time>
      </trkpt>
      <trkpt lat="44.89393" lon="6.71394">
        <ele>2432.1</ele>
        <time>2025-01-20T11:44:48Z</time>
      </trkpt>
      <trkpt lat="44.89393" lon="6.71394">
        <ele>2432.2</ele>
        <time>2025-01-20T11:45:01Z</time>
      </trkpt>
      <trkpt lat="44.89393" lon="6.71393">
        <ele>2432.3</ele>
        <time>2025-01-20T11:45:14Z</time>
      </trkpt>
      <trkpt lat="44.89393" lon="6.71393">
        <ele>2432.4</ele>
        <time>2025-01-20T11:45:31Z</time>
      </trkpt>
      <trkpt lat="44.89393" lon="6.71393">
        <ele>2432.5</ele>
        <time>2025-01-20T11:45:44Z</time>
      </trkpt>
      <trkpt lat="44.89393" lon="6.71393">
        <ele>2432.5</ele>
        <time>2025-01-20T11:46:01Z</time>
      </trkpt>
      <trkpt lat="44.89393" lon="6.71393">
        <ele>2432.6</ele>
        <time>2025-01-20T11:46:20Z</time>
      </trkpt>
      <trkpt lat="44.89393" lon="6.71393">
        <ele>2432.7</ele>
        <time>2025-01-20T11:46:35Z</time>
      </trkpt>
      <trkpt lat="44.89393" lon="6.71393">
        <ele>2432.8</ele>
        <time>2025-01-20T11:46:50Z</time>
      </trkpt>
      <trkpt lat="44.89393" lon="6.71393">
        <ele>2432.9</ele>
        <time>2025-01-20T11:47:02Z</time>
      </trkpt>
      <trkpt lat="44.89393" lon="6.71393">
        <ele>2433</ele>
        <time>2025-01-20T11:47:22Z</time>
      </trkpt>
      <trkpt lat="44.89393" lon="6.71393">
        <ele>2433.1</ele>
        <time>2025-01-20T11:47:38Z</time>
      </trkpt>
      <trkpt lat="44.89393" lon="6.71393">
        <ele>2433.2</ele>
        <time>2025-01-20T11:47:52Z</time>
      </trkpt>
      <trkpt lat="44.89393" lon="6.71393">
        <ele>2433.3</ele>
        <time>2025-01-20T11:48:04Z</time>
      </trkpt>
      <trkpt lat="44.89393" lon="6.71393">
        <ele>2433.4</ele>
        <time>2025-01-20T11:48:25Z</time>
      </trkpt>
      <trkpt lat="44.89393" lon="6.71393">
        <ele>2433.5</ele>
        <time>2025-01-20T11:48:36Z</time>
      </trkpt>
      <trkpt lat="44.89393" lon="6.71393">
        <ele>2433.6</ele>
        <time>2025-01-20T11:48:51Z</time>
      </trkpt>
      <trkpt lat="44.89393" lon="6.71393">
        <ele>2433.7</ele>
        <time>2025-01-20T11:49:10Z</time>
      </trkpt>
      <trkpt lat="44.89393" lon="6.71393">
        <ele>2433.8</ele>
        <time>2025-01-20T11:49:26Z</time>
      </trkpt>
      <trkpt lat="44.89393" lon="6.71393">
        <ele>2433.9</ele>
        <time>2025-01-20T11:49:46Z</time>
      </trkpt>
      <trkpt lat="44.89393" lon="6.71393">
        <ele>2434</ele>
        <time>2025-01-20T11:50:01Z</time>
      </trkpt>
      <trkpt lat="44.89393" lon="6.71394">
        <ele>2434.1</ele>
        <time>2025-01-20T11:50:17Z</time>
      </trkpt>
      <trkpt lat="44.89397" lon="6.71397">
        <ele>2434</ele>
        <time>2025-01-20T11:50:26Z</time>
      </trkpt>
      <trkpt lat="44.89405" lon="6.71401">
        <ele>2433.5</ele>
        <time>2025-01-20T11:50:34Z</time>
      </trkpt>
      <trkpt lat="44.89406" lon="6.71401">
        <ele>2433.6</ele>
        <time>2025-01-20T11:50:42Z</time>
      </trkpt>
      <trkpt lat="44.89406" lon="6.71401">
        <ele>2433.7</ele>
        <time>2025-01-20T11:50:58Z</time>
      </trkpt>
      <trkpt lat="44.89411" lon="6.71419">
        <ele>2434</ele>
        <time>2025-01-20T11:51:05Z</time>
      </trkpt>
      <trkpt lat="44.89411" lon="6.71419">
        <ele>2434</ele>
        <time>2025-01-20T11:51:12Z</time>
      </trkpt>
      <trkpt lat="44.89411" lon="6.71419">
        <ele>2434</ele>
        <time>2025-01-20T11:51:24Z</time>
      </trkpt>
      <trkpt lat="44.89413" lon="6.71405">
        <ele>2434.1</ele>
        <time>2025-01-20T11:51:26Z</time>
      </trkpt>
      <trkpt lat="44.89416" lon="6.71405">
        <ele>2434.1</ele>
        <time>2025-01-20T11:51:30Z</time>
      </trkpt>
      <trkpt lat="44.89416" lon="6.71405">
        <ele>2434.1</ele>
        <time>2025-01-20T11:51:38Z</time>
      </trkpt>
      <trkpt lat="44.89416" lon="6.71405">
        <ele>2434.1</ele>
        <time>2025-01-20T11:51:53Z</time>
      </trkpt>
      <trkpt lat="44.89418" lon="6.71408">
        <ele>2434.2</ele>
        <time>2025-01-20T11:52:05Z</time>
      </trkpt>
      <trkpt lat="44.89419" lon="6.71409">
        <ele>2434.2</ele>
        <time>2025-01-20T11:52:11Z</time>
      </trkpt>
      <trkpt lat="44.89419" lon="6.71409">
        <ele>2434.2</ele>
        <time>2025-01-20T11:52:26Z</time>
      </trkpt>
      <trkpt lat="44.89419" lon="6.71409">
        <ele>2434.2</ele>
        <time>2025-01-20T11:52:41Z</time>
      </trkpt>
      <trkpt lat="44.89418" lon="6.71408">
        <ele>2434.2</ele>
        <time>2025-01-20T11:52:53Z</time>
      </trkpt>
      <trkpt lat="44.89417" lon="6.71404">
        <ele>2434.2</ele>
        <time>2025-01-20T11:53:00Z</time>
      </trkpt>
      <trkpt lat="44.89417" lon="6.71404">
        <ele>2434.2</ele>
        <time>2025-01-20T11:53:13Z</time>
      </trkpt>
      <trkpt lat="44.89417" lon="6.71404">
        <ele>2434.2</ele>
        <time>2025-01-20T11:53:24Z</time>
      </trkpt>
      <trkpt lat="44.89417" lon="6.71404">
        <ele>2434.2</ele>
        <time>2025-01-20T11:53:33Z</time>
      </trkpt>
      <trkpt lat="44.89417" lon="6.71404">
        <ele>2434.2</ele>
        <time>2025-01-20T11:53:44Z</time>
      </trkpt>
      <trkpt lat="44.89417" lon="6.71404">
        <ele>2434.2</ele>
        <time>2025-01-20T11:53:49Z</time>
      </trkpt>
      <trkpt lat="44.89539" lon="6.72015">
        <ele>2330.5</ele>
        <time>2025-01-20T12:23:12Z</time>
      </trkpt>
      <trkpt lat="44.89539" lon="6.72015">
        <ele>2330.5</ele>
        <time>2025-01-20T12:23:21Z</time>
      </trkpt>
      <trkpt lat="44.89539" lon="6.7202">
        <ele>2329.7</ele>
        <time>2025-01-20T12:23:28Z</time>
      </trkpt>
      <trkpt lat="44.89541" lon="6.72022">
        <ele>2329.2</ele>
        <time>2025-01-20T12:23:29Z</time>
      </trkpt>
      <trkpt lat="44.89551" lon="6.72033">
        <ele>2326.6</ele>
        <time>2025-01-20T12:23:33Z</time>
      </trkpt>
      <trkpt lat="44.89553" lon="6.72038">
        <ele>2325.8</ele>
        <time>2025-01-20T12:23:34Z</time>
      </trkpt>
      <trkpt lat="44.89555" lon="6.72045">
        <ele>2324.8</ele>
        <time>2025-01-20T12:23:35Z</time>
      </trkpt>
      <trkpt lat="44.89561" lon="6.7205">
        <ele>2323.4</ele>
        <time>2025-01-20T12:23:37Z</time>
      </trkpt>
      <trkpt lat="44.89572" lon="6.72064">
        <ele>2320.3</ele>
        <time>2025-01-20T12:23:42Z</time>
      </trkpt>
      <trkpt lat="44.89573" lon="6.72077">
        <ele>2318.4</ele>
        <time>2025-01-20T12:23:44Z</time>
      </trkpt>
      <trkpt lat="44.89574" lon="6.72083">
        <ele>2317.6</ele>
        <time>2025-01-20T12:23:45Z</time>
      </trkpt>
      <trkpt lat="44.89579" lon="6.72093">
        <ele>2315.8</ele>
        <time>2025-01-20T12:23:47Z</time>
      </trkpt>
      <trkpt lat="44.89582" lon="6.72099">
        <ele>2314.9</ele>
        <time>2025-01-20T12:23:48Z</time>
      </trkpt>
      <trkpt lat="44.89583" lon="6.72105">
        <ele>2314.1</ele>
        <time>2025-01-20T12:23:49Z</time>
      </trkpt>
      <trkpt lat="44.89588" lon="6.72115">
        <ele>2312.7</ele>
        <time>2025-01-20T12:23:51Z</time>
      </trkpt>
      <trkpt lat="44.8959" lon="6.72122">
        <ele>2311.9</ele>
        <time>2025-01-20T12:23:52Z</time>
      </trkpt>
      <trkpt lat="44.89592" lon="6.72127">
        <ele>2311.3</ele>
        <time>2025-01-20T12:23:53Z</time>
      </trkpt>
      <trkpt lat="44.89597" lon="6.72136">
        <ele>2310.4</ele>
        <time>2025-01-20T12:23:55Z</time>
      </trkpt>
      <trkpt lat="44.89607" lon="6.72152">
        <ele>2308.7</ele>
        <time>2025-01-20T12:23:59Z</time>
      </trkpt>
      <trkpt lat="44.89617" lon="6.72165">
        <ele>2307.2</ele>
        <time>2025-01-20T12:24:03Z</time>
      </trkpt>
      <trkpt lat="44.89622" lon="6.72175">
        <ele>2306.1</ele>
        <time>2025-01-20T12:24:05Z</time>
      </trkpt>
      <trkpt lat="44.89629" lon="6.72182">
        <ele>2305</ele>
        <time>2025-01-20T12:24:07Z</time>
      </trkpt>
      <trkpt lat="44.89632" lon="6.72185">
        <ele>2304.4</ele>
        <time>2025-01-20T12:24:08Z</time>
      </trkpt>
      <trkpt lat="44.89641" lon="6.72181">
        <ele>2302.9</ele>
        <time>2025-01-20T12:24:10Z</time>
      </trkpt>
      <trkpt lat="44.89644" lon="6.72187">
        <ele>2302.1</ele>
        <time>2025-01-20T12:24:11Z</time>
      </trkpt>
      <trkpt lat="44.89649" lon="6.72197">
        <ele>2300.5</ele>
        <time>2025-01-20T12:24:13Z</time>
      </trkpt>
      <trkpt lat="44.89656" lon="6.72206">
        <ele>2298.7</ele>
        <time>2025-01-20T12:24:15Z</time>
      </trkpt>
      <trkpt lat="44.89668" lon="6.7222">
        <ele>2295.5</ele>
        <time>2025-01-20T12:24:18Z</time>
      </trkpt>
      <trkpt lat="44.89678" lon="6.72231">
        <ele>2293.1</ele>
        <time>2025-01-20T12:24:20Z</time>
      </trkpt>
      <trkpt lat="44.89683" lon="6.72236">
        <ele>2291.8</ele>
        <time>2025-01-20T12:24:21Z</time>
      </trkpt>
      <trkpt lat="44.89693" lon="6.72245">
        <ele>2289.6</ele>
        <time>2025-01-20T12:24:23Z</time>
      </trkpt>
      <trkpt lat="44.89704" lon="6.72249">
        <ele>2288.6</ele>
        <time>2025-01-20T12:24:25Z</time>
      </trkpt>
      <trkpt lat="44.89716" lon="6.72254">
        <ele>2287.2</ele>
        <time>2025-01-20T12:24:27Z</time>
      </trkpt>
      <trkpt lat="44.89728" lon="6.7226">
        <ele>2285.4</ele>
        <time>2025-01-20T12:24:29Z</time>
      </trkpt>
      <trkpt lat="44.89748" lon="6.72268">
        <ele>2281.5</ele>
        <time>2025-01-20T12:24:32Z</time>
      </trkpt>
      <trkpt lat="44.89754" lon="6.7227">
        <ele>2280.4</ele>
        <time>2025-01-20T12:24:33Z</time>
      </trkpt>
      <trkpt lat="44.89759" lon="6.72273">
        <ele>2279.4</ele>
        <time>2025-01-20T12:24:34Z</time>
      </trkpt>
      <trkpt lat="44.8977" lon="6.72277">
        <ele>2277.6</ele>
        <time>2025-01-20T12:24:36Z</time>
      </trkpt>
      <trkpt lat="44.89775" lon="6.7228">
        <ele>2276.7</ele>
        <time>2025-01-20T12:24:37Z</time>
      </trkpt>
      <trkpt lat="44.89787" lon="6.72285">
        <ele>2274.6</ele>
        <time>2025-01-20T12:24:39Z</time>
      </trkpt>
      <trkpt lat="44.89815" lon="6.72308">
        <ele>2269.1</ele>
        <time>2025-01-20T12:24:43Z</time>
      </trkpt>
      <trkpt lat="44.89821" lon="6.72314">
        <ele>2267.8</ele>
        <time>2025-01-20T12:24:44Z</time>
      </trkpt>
      <trkpt lat="44.89827" lon="6.7232">
        <ele>2266.7</ele>
        <time>2025-01-20T12:24:45Z</time>
      </trkpt>
      <trkpt lat="44.89838" lon="6.7233">
        <ele>2264.6</ele>
        <time>2025-01-20T12:24:47Z</time>
      </trkpt>
      <trkpt lat="44.89857" lon="6.72341">
        <ele>2261.8</ele>
        <time>2025-01-20T12:24:50Z</time>
      </trkpt>
      <trkpt lat="44.8987" lon="6.72344">
        <ele>2260</ele>
        <time>2025-01-20T12:24:52Z</time>
      </trkpt>
      <trkpt lat="44.89912" lon="6.72344">
        <ele>2251.7</ele>
        <time>2025-01-20T12:24:58Z</time>
      </trkpt>
      <trkpt lat="44.8995" lon="6.72337">
        <ele>2243.5</ele>
        <time>2025-01-20T12:25:04Z</time>
      </trkpt>
      <trkpt lat="44.89988" lon="6.72326">
        <ele>2237.7</ele>
        <time>2025-01-20T12:25:10Z</time>
      </trkpt>
      <trkpt lat="44.90027" lon="6.72393">
        <ele>2236.7</ele>
        <time>2025-01-20T12:25:15Z</time>
      </trkpt>
      <trkpt lat="44.90032" lon="6.72395">
        <ele>2237.1</ele>
        <time>2025-01-20T12:25:16Z</time>
      </trkpt>
      <trkpt lat="44.90038" lon="6.72396">
        <ele>2237.2</ele>
        <time>2025-01-20T12:25:17Z</time>
      </trkpt>
      <trkpt lat="44.90048" lon="6.72399">
        <ele>2237.6</ele>
        <time>2025-01-20T12:25:19Z</time>
      </trkpt>
      <trkpt lat="44.90053" lon="6.724">
        <ele>2237.8</ele>
        <time>2025-01-20T12:25:20Z</time>
      </trkpt>
      <trkpt lat="44.90075" lon="6.72402">
        <ele>2237.9</ele>
        <time>2025-01-20T12:25:24Z</time>
      </trkpt>
      <trkpt lat="44.90078" lon="6.72402">
        <ele>2238.2</ele>
        <time>2025-01-20T12:25:25Z</time>
      </trkpt>
      <trkpt lat="44.90079" lon="6.72401">
        <ele>2238.4</ele>
        <time>2025-01-20T12:25:26Z</time>
      </trkpt>
      <trkpt lat="44.90076" lon="6.72398">
        <ele>2238.8</ele>
        <time>2025-01-20T12:25:28Z</time>
      </trkpt>
      <trkpt lat="44.90072" lon="6.72395">
        <ele>2238.8</ele>
        <time>2025-01-20T12:25:33Z</time>
      </trkpt>
      <trkpt lat="44.90073" lon="6.72391">
        <ele>2238.7</ele>
        <time>2025-01-20T12:25:35Z</time>
      </trkpt>
      <trkpt lat="44.90065" lon="6.72383">
        <ele>2238.4</ele>
        <time>2025-01-20T12:25:39Z</time>
      </trkpt>
      <trkpt lat="44.90069" lon="6.72361">
        <ele>2237.4</ele>
        <time>2025-01-20T12:25:48Z</time>
      </trkpt>
      <trkpt lat="44.9007" lon="6.72353">
        <ele>2237</ele>
        <time>2025-01-20T12:25:55Z</time>
      </trkpt>
      <trkpt lat="44.90073" lon="6.72338">
        <ele>2236.2</ele>
        <time>2025-01-20T12:26:03Z</time>
      </trkpt>
      <trkpt lat="44.90076" lon="6.72325">
        <ele>2235.5</ele>
        <time>2025-01-20T12:26:09Z</time>
      </trkpt>
      <trkpt lat="44.90082" lon="6.72309">
        <ele>2234.7</ele>
        <time>2025-01-20T12:26:16Z</time>
      </trkpt>
      <trkpt lat="44.90082" lon="6.72308">
        <ele>2234.6</ele>
        <time>2025-01-20T12:26:17Z</time>
      </trkpt>
      <trkpt lat="44.90085" lon="6.72297">
        <ele>2233.9</ele>
        <time>2025-01-20T12:26:22Z</time>
      </trkpt>
      <trkpt lat="44.9009" lon="6.72281">
        <ele>2232.9</ele>
        <time>2025-01-20T12:26:29Z</time>
      </trkpt>
      <trkpt lat="44.90095" lon="6.72267">
        <ele>2231.9</ele>
        <time>2025-01-20T12:26:36Z</time>
      </trkpt>
      <trkpt lat="44.90097" lon="6.7226">
        <ele>2231.4</ele>
        <time>2025-01-20T12:26:43Z</time>
      </trkpt>
      <trkpt lat="44.90097" lon="6.7226">
        <ele>2231.4</ele>
        <time>2025-01-20T12:26:49Z</time>
      </trkpt>
      <trkpt lat="44.90097" lon="6.7226">
        <ele>2231.4</ele>
        <time>2025-01-20T12:26:54Z</time>
      </trkpt>
      <trkpt lat="44.90097" lon="6.7226">
        <ele>2231.4</ele>
        <time>2025-01-20T12:26:59Z</time>
      </trkpt>
      <trkpt lat="44.90097" lon="6.7226">
        <ele>2231.4</ele>
        <time>2025-01-20T12:27:05Z</time>
      </trkpt>
      <trkpt lat="44.90103" lon="6.72229">
        <ele>2228.5</ele>
        <time>2025-01-20T12:27:10Z</time>
      </trkpt>
      <trkpt lat="44.90104" lon="6.72218">
        <ele>2227.6</ele>
        <time>2025-01-20T12:27:16Z</time>
      </trkpt>
      <trkpt lat="44.90107" lon="6.72211">
        <ele>2227.1</ele>
        <time>2025-01-20T12:27:20Z</time>
      </trkpt>
      <trkpt lat="44.90109" lon="6.72206">
        <ele>2226.8</ele>
        <time>2025-01-20T12:27:26Z</time>
      </trkpt>
      <trkpt lat="44.90109" lon="6.72204">
        <ele>2226.7</ele>
        <time>2025-01-20T12:27:31Z</time>
      </trkpt>
      <trkpt lat="44.90111" lon="6.72202">
        <ele>2226.5</ele>
        <time>2025-01-20T12:27:36Z</time>
      </trkpt>
      <trkpt lat="44.90112" lon="6.72192">
        <ele>2226</ele>
        <time>2025-01-20T12:27:42Z</time>
      </trkpt>
      <trkpt lat="44.90116" lon="6.72177">
        <ele>2225.3</ele>
        <time>2025-01-20T12:27:49Z</time>
      </trkpt>
      <trkpt lat="44.90119" lon="6.72159">
        <ele>2225.6</ele>
        <time>2025-01-20T12:27:55Z</time>
      </trkpt>
      <trkpt lat="44.90121" lon="6.72137">
        <ele>2226</ele>
        <time>2025-01-20T12:28:01Z</time>
      </trkpt>
      <trkpt lat="44.90124" lon="6.72127">
        <ele>2224.4</ele>
        <time>2025-01-20T12:28:06Z</time>
      </trkpt>
      <trkpt lat="44.90129" lon="6.72111">
        <ele>2222.8</ele>
        <time>2025-01-20T12:28:11Z</time>
      </trkpt>
      <trkpt lat="44.9014" lon="6.72097">
        <ele>2221.5</ele>
        <time>2025-01-20T12:28:19Z</time>
      </trkpt>
      <trkpt lat="44.90151" lon="6.72085">
        <ele>2220.1</ele>
        <time>2025-01-20T12:28:27Z</time>
      </trkpt>
      <trkpt lat="44.90166" lon="6.72081">
        <ele>2219.5</ele>
        <time>2025-01-20T12:28:33Z</time>
      </trkpt>
      <trkpt lat="44.90189" lon="6.72083">
        <ele>2219</ele>
        <time>2025-01-20T12:28:39Z</time>
      </trkpt>
      <trkpt lat="44.9022" lon="6.72095">
        <ele>2218.7</ele>
        <time>2025-01-20T12:28:47Z</time>
      </trkpt>
      <trkpt lat="44.90256" lon="6.72108">
        <ele>2216</ele>
        <time>2025-01-20T12:28:56Z</time>
      </trkpt>
      <trkpt lat="44.9029" lon="6.72115">
        <ele>2212.9</ele>
        <time>2025-01-20T12:29:03Z</time>
      </trkpt>
      <trkpt lat="44.90317" lon="6.72123">
        <ele>2210.9</ele>
        <time>2025-01-20T12:29:10Z</time>
      </trkpt>
      <trkpt lat="44.90335" lon="6.72129">
        <ele>2209.6</ele>
        <time>2025-01-20T12:29:16Z</time>
      </trkpt>
      <trkpt lat="44.90355" lon="6.72135">
        <ele>2208</ele>
        <time>2025-01-20T12:29:24Z</time>
      </trkpt>
      <trkpt lat="44.9038" lon="6.72138">
        <ele>2205.5</ele>
        <time>2025-01-20T12:29:31Z</time>
      </trkpt>
      <trkpt lat="44.90395" lon="6.7213">
        <ele>2203.4</ele>
        <time>2025-01-20T12:29:36Z</time>
      </trkpt>
      <trkpt lat="44.90411" lon="6.7212">
        <ele>2201.2</ele>
        <time>2025-01-20T12:29:40Z</time>
      </trkpt>
      <trkpt lat="44.90415" lon="6.72122">
        <ele>2200.6</ele>
        <time>2025-01-20T12:29:41Z</time>
      </trkpt>
      <trkpt lat="44.90422" lon="6.72125">
        <ele>2199.5</ele>
        <time>2025-01-20T12:29:43Z</time>
      </trkpt>
      <trkpt lat="44.90425" lon="6.72124">
        <ele>2198.9</ele>
        <time>2025-01-20T12:29:44Z</time>
      </trkpt>
      <trkpt lat="44.90437" lon="6.72121">
        <ele>2196.9</ele>
        <time>2025-01-20T12:29:47Z</time>
      </trkpt>
      <trkpt lat="44.90442" lon="6.72123">
        <ele>2196</ele>
        <time>2025-01-20T12:29:48Z</time>
      </trkpt>
      <trkpt lat="44.90446" lon="6.72124">
        <ele>2195.5</ele>
        <time>2025-01-20T12:29:49Z</time>
      </trkpt>
      <trkpt lat="44.90453" lon="6.72118">
        <ele>2194.4</ele>
        <time>2025-01-20T12:29:51Z</time>
      </trkpt>
      <trkpt lat="44.90456" lon="6.72112">
        <ele>2193.6</ele>
        <time>2025-01-20T12:29:52Z</time>
      </trkpt>
      <trkpt lat="44.90466" lon="6.72101">
        <ele>2191.5</ele>
        <time>2025-01-20T12:29:54Z</time>
      </trkpt>
      <trkpt lat="44.90479" lon="6.72101">
        <ele>2189.2</ele>
        <time>2025-01-20T12:29:56Z</time>
      </trkpt>
      <trkpt lat="44.90487" lon="6.72103">
        <ele>2187.6</ele>
        <time>2025-01-20T12:29:58Z</time>
      </trkpt>
      <trkpt lat="44.90492" lon="6.72102">
        <ele>2186.6</ele>
        <time>2025-01-20T12:29:59Z</time>
      </trkpt>
      <trkpt lat="44.90497" lon="6.72101">
        <ele>2185.6</ele>
        <time>2025-01-20T12:30:00Z</time>
      </trkpt>
      <trkpt lat="44.90507" lon="6.72108">
        <ele>2183.4</ele>
        <time>2025-01-20T12:30:02Z</time>
      </trkpt>
      <trkpt lat="44.90518" lon="6.72113">
        <ele>2181.1</ele>
        <time>2025-01-20T12:30:04Z</time>
      </trkpt>
      <trkpt lat="44.90524" lon="6.72114">
        <ele>2180.1</ele>
        <time>2025-01-20T12:30:05Z</time>
      </trkpt>
      <trkpt lat="44.9053" lon="6.72112">
        <ele>2179.1</ele>
        <time>2025-01-20T12:30:06Z</time>
      </trkpt>
      <trkpt lat="44.90542" lon="6.72111">
        <ele>2177.6</ele>
        <time>2025-01-20T12:30:08Z</time>
      </trkpt>
      <trkpt lat="44.90547" lon="6.72113">
        <ele>2176.9</ele>
        <time>2025-01-20T12:30:09Z</time>
      </trkpt>
      <trkpt lat="44.90551" lon="6.72117">
        <ele>2176.3</ele>
        <time>2025-01-20T12:30:10Z</time>
      </trkpt>
      <trkpt lat="44.90561" lon="6.72123">
        <ele>2175.2</ele>
        <time>2025-01-20T12:30:12Z</time>
      </trkpt>
      <trkpt lat="44.90566" lon="6.72125">
        <ele>2174.6</ele>
        <time>2025-01-20T12:30:13Z</time>
      </trkpt>
      <trkpt lat="44.90572" lon="6.72127">
        <ele>2174</ele>
        <time>2025-01-20T12:30:14Z</time>
      </trkpt>
      <trkpt lat="44.9059" lon="6.72129">
        <ele>2172.1</ele>
        <time>2025-01-20T12:30:17Z</time>
      </trkpt>
      <trkpt lat="44.90597" lon="6.72132">
        <ele>2171.5</ele>
        <time>2025-01-20T12:30:18Z</time>
      </trkpt>
      <trkpt lat="44.90603" lon="6.72136">
        <ele>2170.8</ele>
        <time>2025-01-20T12:30:19Z</time>
      </trkpt>
      <trkpt lat="44.90614" lon="6.72143">
        <ele>2169.8</ele>
        <time>2025-01-20T12:30:21Z</time>
      </trkpt>
      <trkpt lat="44.9062" lon="6.72143">
        <ele>2169.3</ele>
        <time>2025-01-20T12:30:22Z</time>
      </trkpt>
      <trkpt lat="44.90632" lon="6.72146">
        <ele>2168.3</ele>
        <time>2025-01-20T12:30:24Z</time>
      </trkpt>
      <trkpt lat="44.90641" lon="6.72151">
        <ele>2167.4</ele>
        <time>2025-01-20T12:30:26Z</time>
      </trkpt>
      <trkpt lat="44.90656" lon="6.72154">
        <ele>2165.8</ele>
        <time>2025-01-20T12:30:29Z</time>
      </trkpt>
      <trkpt lat="44.9066" lon="6.72157">
        <ele>2165.4</ele>
        <time>2025-01-20T12:30:30Z</time>
      </trkpt>
      <trkpt lat="44.90665" lon="6.72159">
        <ele>2165</ele>
        <time>2025-01-20T12:30:31Z</time>
      </trkpt>
      <trkpt lat="44.90674" lon="6.7216">
        <ele>2164</ele>
        <time>2025-01-20T12:30:33Z</time>
      </trkpt>
      <trkpt lat="44.90683" lon="6.72167">
        <ele>2162.8</ele>
        <time>2025-01-20T12:30:35Z</time>
      </trkpt>
      <trkpt lat="44.90687" lon="6.72171">
        <ele>2162.1</ele>
        <time>2025-01-20T12:30:36Z</time>
      </trkpt>
      <trkpt lat="44.90691" lon="6.72173">
        <ele>2161.3</ele>
        <time>2025-01-20T12:30:37Z</time>
      </trkpt>
      <trkpt lat="44.90704" lon="6.72181">
        <ele>2159.1</ele>
        <time>2025-01-20T12:30:40Z</time>
      </trkpt>
      <trkpt lat="44.90717" lon="6.72185">
        <ele>2156.7</ele>
        <time>2025-01-20T12:30:44Z</time>
      </trkpt>
      <trkpt lat="44.90725" lon="6.72187">
        <ele>2155.2</ele>
        <time>2025-01-20T12:30:46Z</time>
      </trkpt>
      <trkpt lat="44.90729" lon="6.72188">
        <ele>2154.4</ele>
        <time>2025-01-20T12:30:47Z</time>
      </trkpt>
      <trkpt lat="44.90733" lon="6.7219">
        <ele>2153.6</ele>
        <time>2025-01-20T12:30:48Z</time>
      </trkpt>
      <trkpt lat="44.90738" lon="6.72195">
        <ele>2152.3</ele>
        <time>2025-01-20T12:30:50Z</time>
      </trkpt>
      <trkpt lat="44.90744" lon="6.72197">
        <ele>2151.1</ele>
        <time>2025-01-20T12:30:52Z</time>
      </trkpt>
      <trkpt lat="44.90749" lon="6.72203">
        <ele>2149.8</ele>
        <time>2025-01-20T12:30:54Z</time>
      </trkpt>
      <trkpt lat="44.90757" lon="6.72208">
        <ele>2148.2</ele>
        <time>2025-01-20T12:30:56Z</time>
      </trkpt>
      <trkpt lat="44.90764" lon="6.72214">
        <ele>2146.5</ele>
        <time>2025-01-20T12:30:58Z</time>
      </trkpt>
      <trkpt lat="44.90767" lon="6.72216">
        <ele>2145.9</ele>
        <time>2025-01-20T12:30:59Z</time>
      </trkpt>
      <trkpt lat="44.90771" lon="6.72226">
        <ele>2144.6</ele>
        <time>2025-01-20T12:31:01Z</time>
      </trkpt>
      <trkpt lat="44.90772" lon="6.7223">
        <ele>2144.2</ele>
        <time>2025-01-20T12:31:02Z</time>
      </trkpt>
      <trkpt lat="44.90777" lon="6.72232">
        <ele>2143.5</ele>
        <time>2025-01-20T12:31:04Z</time>
      </trkpt>
      <trkpt lat="44.90788" lon="6.72232">
        <ele>2141.7</ele>
        <time>2025-01-20T12:31:08Z</time>
      </trkpt>
      <trkpt lat="44.90791" lon="6.72236">
        <ele>2141</ele>
        <time>2025-01-20T12:31:09Z</time>
      </trkpt>
      <trkpt lat="44.90791" lon="6.72246">
        <ele>2139.8</ele>
        <time>2025-01-20T12:31:11Z</time>
      </trkpt>
      <trkpt lat="44.90791" lon="6.72251">
        <ele>2139.3</ele>
        <time>2025-01-20T12:31:12Z</time>
      </trkpt>
      <trkpt lat="44.90793" lon="6.72255">
        <ele>2138.8</ele>
        <time>2025-01-20T12:31:13Z</time>
      </trkpt>
      <trkpt lat="44.90796" lon="6.72257">
        <ele>2137.8</ele>
        <time>2025-01-20T12:31:14Z</time>
      </trkpt>
      <trkpt lat="44.908" lon="6.7226">
        <ele>2136.9</ele>
        <time>2025-01-20T12:31:15Z</time>
      </trkpt>
      <trkpt lat="44.90807" lon="6.72268">
        <ele>2135</ele>
        <time>2025-01-20T12:31:17Z</time>
      </trkpt>
      <trkpt lat="44.90818" lon="6.72272">
        <ele>2132.5</ele>
        <time>2025-01-20T12:31:20Z</time>
      </trkpt>
      <trkpt lat="44.90824" lon="6.72277">
        <ele>2130.9</ele>
        <time>2025-01-20T12:31:22Z</time>
      </trkpt>
      <trkpt lat="44.90831" lon="6.72281">
        <ele>2129.3</ele>
        <time>2025-01-20T12:31:24Z</time>
      </trkpt>
      <trkpt lat="44.90842" lon="6.72285">
        <ele>2127</ele>
        <time>2025-01-20T12:31:27Z</time>
      </trkpt>
      <trkpt lat="44.90852" lon="6.72289">
        <ele>2125.1</ele>
        <time>2025-01-20T12:31:30Z</time>
      </trkpt>
      <trkpt lat="44.90862" lon="6.72288">
        <ele>2123.4</ele>
        <time>2025-01-20T12:31:33Z</time>
      </trkpt>
      <trkpt lat="44.90865" lon="6.72291">
        <ele>2122.6</ele>
        <time>2025-01-20T12:31:34Z</time>
      </trkpt>
      <trkpt lat="44.90869" lon="6.72292">
        <ele>2121.9</ele>
        <time>2025-01-20T12:31:35Z</time>
      </trkpt>
      <trkpt lat="44.90875" lon="6.7229">
        <ele>2120.5</ele>
        <time>2025-01-20T12:31:37Z</time>
      </trkpt>
      <trkpt lat="44.90878" lon="6.72291">
        <ele>2119.9</ele>
        <time>2025-01-20T12:31:38Z</time>
      </trkpt>
      <trkpt lat="44.90884" lon="6.72297">
        <ele>2118.4</ele>
        <time>2025-01-20T12:31:40Z</time>
      </trkpt>
      <trkpt lat="44.90887" lon="6.72298">
        <ele>2117.7</ele>
        <time>2025-01-20T12:31:41Z</time>
      </trkpt>
      <trkpt lat="44.90892" lon="6.72295">
        <ele>2116.7</ele>
        <time>2025-01-20T12:31:43Z</time>
      </trkpt>
      <trkpt lat="44.90895" lon="6.72297">
        <ele>2115.8</ele>
        <time>2025-01-20T12:31:44Z</time>
      </trkpt>
      <trkpt lat="44.90897" lon="6.72301">
        <ele>2114.9</ele>
        <time>2025-01-20T12:31:45Z</time>
      </trkpt>
      <trkpt lat="44.90899" lon="6.72305">
        <ele>2114</ele>
        <time>2025-01-20T12:31:46Z</time>
      </trkpt>
      <trkpt lat="44.90905" lon="6.72304">
        <ele>2112.4</ele>
        <time>2025-01-20T12:31:48Z</time>
      </trkpt>
      <trkpt lat="44.9091" lon="6.72299">
        <ele>2110.6</ele>
        <time>2025-01-20T12:31:50Z</time>
      </trkpt>
      <trkpt lat="44.90913" lon="6.72301">
        <ele>2109.6</ele>
        <time>2025-01-20T12:31:51Z</time>
      </trkpt>
      <trkpt lat="44.90919" lon="6.7231">
        <ele>2107.1</ele>
        <time>2025-01-20T12:31:54Z</time>
      </trkpt>
      <trkpt lat="44.90924" lon="6.72313">
        <ele>2105.5</ele>
        <time>2025-01-20T12:31:56Z</time>
      </trkpt>
      <trkpt lat="44.90927" lon="6.72318">
        <ele>2104.4</ele>
        <time>2025-01-20T12:31:57Z</time>
      </trkpt>
      <trkpt lat="44.90931" lon="6.72321">
        <ele>2103.4</ele>
        <time>2025-01-20T12:31:58Z</time>
      </trkpt>
      <trkpt lat="44.90945" lon="6.72334">
        <ele>2100.2</ele>
        <time>2025-01-20T12:32:01Z</time>
      </trkpt>
      <trkpt lat="44.90958" lon="6.72343">
        <ele>2098.5</ele>
        <time>2025-01-20T12:32:04Z</time>
      </trkpt>
      <trkpt lat="44.9096" lon="6.72355">
        <ele>2099.6</ele>
        <time>2025-01-20T12:32:06Z</time>
      </trkpt>
      <trkpt lat="44.90973" lon="6.72357">
        <ele>2097.6</ele>
        <time>2025-01-20T12:32:10Z</time>
      </trkpt>
      <trkpt lat="44.90979" lon="6.72358">
        <ele>2096.9</ele>
        <time>2025-01-20T12:32:15Z</time>
      </trkpt>
      <trkpt lat="44.90979" lon="6.72358">
        <ele>2096.9</ele>
        <time>2025-01-20T12:32:23Z</time>
      </trkpt>
      <trkpt lat="44.90979" lon="6.72358">
        <ele>2096.9</ele>
        <time>2025-01-20T12:32:35Z</time>
      </trkpt>
      <trkpt lat="44.90979" lon="6.72358">
        <ele>2096.9</ele>
        <time>2025-01-20T12:32:48Z</time>
      </trkpt>
      <trkpt lat="44.90979" lon="6.72358">
        <ele>2096.9</ele>
        <time>2025-01-20T12:33:05Z</time>
      </trkpt>
      <trkpt lat="44.90979" lon="6.72358">
        <ele>2096.9</ele>
        <time>2025-01-20T12:33:15Z</time>
      </trkpt>
      <trkpt lat="44.90979" lon="6.72358">
        <ele>2096.9</ele>
        <time>2025-01-20T12:33:24Z</time>
      </trkpt>
      <trkpt lat="44.90979" lon="6.72358">
        <ele>2096.9</ele>
        <time>2025-01-20T12:33:36Z</time>
      </trkpt>
      <trkpt lat="44.90979" lon="6.72358">
        <ele>2096.9</ele>
        <time>2025-01-20T12:33:48Z</time>
      </trkpt>
      <trkpt lat="44.90979" lon="6.72358">
        <ele>2096.9</ele>
        <time>2025-01-20T12:33:56Z</time>
      </trkpt>
      <trkpt lat="44.90979" lon="6.72358">
        <ele>2096.9</ele>
        <time>2025-01-20T12:34:09Z</time>
      </trkpt>
      <trkpt lat="44.90979" lon="6.72358">
        <ele>2096.9</ele>
        <time>2025-01-20T12:34:18Z</time>
      </trkpt>
      <trkpt lat="44.90979" lon="6.72358">
        <ele>2096.9</ele>
        <time>2025-01-20T12:34:30Z</time>
      </trkpt>
      <trkpt lat="44.90979" lon="6.72358">
        <ele>2096.9</ele>
        <time>2025-01-20T12:34:44Z</time>
      </trkpt>
      <trkpt lat="44.90979" lon="6.72358">
        <ele>2096.9</ele>
        <time>2025-01-20T12:34:58Z</time>
      </trkpt>
      <trkpt lat="44.90979" lon="6.72358">
        <ele>2096.9</ele>
        <time>2025-01-20T12:35:08Z</time>
      </trkpt>
      <trkpt lat="44.90979" lon="6.72358">
        <ele>2096.9</ele>
        <time>2025-01-20T12:35:20Z</time>
      </trkpt>
      <trkpt lat="44.90979" lon="6.72358">
        <ele>2096.9</ele>
        <time>2025-01-20T12:35:31Z</time>
      </trkpt>
      <trkpt lat="44.90979" lon="6.72358">
        <ele>2096.9</ele>
        <time>2025-01-20T12:35:40Z</time>
      </trkpt>
      <trkpt lat="44.90979" lon="6.72358">
        <ele>2096.9</ele>
        <time>2025-01-20T12:35:52Z</time>
      </trkpt>
      <trkpt lat="44.90979" lon="6.72358">
        <ele>2096.9</ele>
        <time>2025-01-20T12:36:02Z</time>
      </trkpt>
      <trkpt lat="44.90979" lon="6.72358">
        <ele>2096.9</ele>
        <time>2025-01-20T12:36:12Z</time>
      </trkpt>
      <trkpt lat="44.90979" lon="6.72358">
        <ele>2096.9</ele>
        <time>2025-01-20T12:36:19Z</time>
      </trkpt>
      <trkpt lat="44.90979" lon="6.72358">
        <ele>2096.9</ele>
        <time>2025-01-20T12:36:33Z</time>
      </trkpt>
      <trkpt lat="44.90979" lon="6.72358">
        <ele>2096.9</ele>
        <time>2025-01-20T12:36:44Z</time>
      </trkpt>
      <trkpt lat="44.90979" lon="6.72358">
        <ele>2096.9</ele>
        <time>2025-01-20T12:36:50Z</time>
      </trkpt>
      <trkpt lat="44.90979" lon="6.72358">
        <ele>2096.9</ele>
        <time>2025-01-20T12:37:03Z</time>
      </trkpt>
      <trkpt lat="44.90979" lon="6.72358">
        <ele>2096.9</ele>
        <time>2025-01-20T12:37:16Z</time>
      </trkpt>
      <trkpt lat="44.90979" lon="6.72358">
        <ele>2096.9</ele>
        <time>2025-01-20T12:37:27Z</time>
      </trkpt>
      <trkpt lat="44.90979" lon="6.72358">
        <ele>2096.9</ele>
        <time>2025-01-20T12:37:38Z</time>
      </trkpt>
      <trkpt lat="44.90979" lon="6.72358">
        <ele>2096.9</ele>
        <time>2025-01-20T12:37:51Z</time>
      </trkpt>
      <trkpt lat="44.90979" lon="6.72358">
        <ele>2096.9</ele>
        <time>2025-01-20T12:38:03Z</time>
      </trkpt>
      <trkpt lat="44.90979" lon="6.72358">
        <ele>2096.9</ele>
        <time>2025-01-20T12:38:14Z</time>
      </trkpt>
      <trkpt lat="44.90979" lon="6.72358">
        <ele>2096.9</ele>
        <time>2025-01-20T12:38:26Z</time>
      </trkpt>
      <trkpt lat="44.90979" lon="6.72358">
        <ele>2096.9</ele>
        <time>2025-01-20T12:38:37Z</time>
      </trkpt>
      <trkpt lat="44.90979" lon="6.72358">
        <ele>2096.9</ele>
        <time>2025-01-20T12:38:47Z</time>
      </trkpt>
      <trkpt lat="44.90979" lon="6.72358">
        <ele>2096.9</ele>
        <time>2025-01-20T12:38:58Z</time>
      </trkpt>
      <trkpt lat="44.90979" lon="6.72358">
        <ele>2096.9</ele>
        <time>2025-01-20T12:39:09Z</time>
      </trkpt>
      <trkpt lat="44.90979" lon="6.72358">
        <ele>2096.9</ele>
        <time>2025-01-20T12:39:21Z</time>
      </trkpt>
      <trkpt lat="44.90979" lon="6.72358">
        <ele>2096.9</ele>
        <time>2025-01-20T12:39:30Z</time>
      </trkpt>
      <trkpt lat="44.90979" lon="6.72358">
        <ele>2096.9</ele>
        <time>2025-01-20T12:39:43Z</time>
      </trkpt>
      <trkpt lat="44.90979" lon="6.72358">
        <ele>2096.9</ele>
        <time>2025-01-20T12:39:52Z</time>
      </trkpt>
      <trkpt lat="44.90979" lon="6.72358">
        <ele>2096.9</ele>
        <time>2025-01-20T12:40:00Z</time>
      </trkpt>
      <trkpt lat="44.90979" lon="6.72358">
        <ele>2096.9</ele>
        <time>2025-01-20T12:40:12Z</time>
      </trkpt>
      <trkpt lat="44.90979" lon="6.72358">
        <ele>2096.9</ele>
        <time>2025-01-20T12:40:28Z</time>
      </trkpt>
      <trkpt lat="44.90979" lon="6.72358">
        <ele>2096.9</ele>
        <time>2025-01-20T12:40:41Z</time>
      </trkpt>
      <trkpt lat="44.90979" lon="6.72358">
        <ele>2096.9</ele>
        <time>2025-01-20T12:40:54Z</time>
      </trkpt>
      <trkpt lat="44.90979" lon="6.72358">
        <ele>2096.9</ele>
        <time>2025-01-20T12:41:04Z</time>
      </trkpt>
      <trkpt lat="44.90979" lon="6.72358">
        <ele>2096.9</ele>
        <time>2025-01-20T12:41:14Z</time>
      </trkpt>
      <trkpt lat="44.90979" lon="6.72358">
        <ele>2096.9</ele>
        <time>2025-01-20T12:41:25Z</time>
      </trkpt>
      <trkpt lat="44.90979" lon="6.72358">
        <ele>2096.9</ele>
        <time>2025-01-20T12:41:34Z</time>
      </trkpt>
      <trkpt lat="44.90979" lon="6.72358">
        <ele>2096.9</ele>
        <time>2025-01-20T12:41:50Z</time>
      </trkpt>
      <trkpt lat="44.90979" lon="6.72358">
        <ele>2096.9</ele>
        <time>2025-01-20T12:42:03Z</time>
      </trkpt>
      <trkpt lat="44.90979" lon="6.72358">
        <ele>2096.9</ele>
        <time>2025-01-20T12:42:15Z</time>
      </trkpt>
      <trkpt lat="44.90979" lon="6.72358">
        <ele>2096.9</ele>
        <time>2025-01-20T12:42:26Z</time>
      </trkpt>
      <trkpt lat="44.90979" lon="6.72358">
        <ele>2096.9</ele>
        <time>2025-01-20T12:42:38Z</time>
      </trkpt>
      <trkpt lat="44.90979" lon="6.72358">
        <ele>2096.9</ele>
        <time>2025-01-20T12:42:55Z</time>
      </trkpt>
      <trkpt lat="44.90979" lon="6.72358">
        <ele>2096.9</ele>
        <time>2025-01-20T12:43:12Z</time>
      </trkpt>
      <trkpt lat="44.90979" lon="6.72358">
        <ele>2096.9</ele>
        <time>2025-01-20T12:43:26Z</time>
      </trkpt>
      <trkpt lat="44.90979" lon="6.72358">
        <ele>2096.9</ele>
        <time>2025-01-20T12:43:44Z</time>
      </trkpt>
      <trkpt lat="44.90979" lon="6.72358">
        <ele>2096.9</ele>
        <time>2025-01-20T12:44:00Z</time>
      </trkpt>
      <trkpt lat="44.90979" lon="6.72358">
        <ele>2096.9</ele>
        <time>2025-01-20T12:44:14Z</time>
      </trkpt>
      <trkpt lat="44.90979" lon="6.72358">
        <ele>2096.9</ele>
        <time>2025-01-20T12:44:25Z</time>
      </trkpt>
      <trkpt lat="44.90979" lon="6.72358">
        <ele>2096.9</ele>
        <time>2025-01-20T12:44:35Z</time>
      </trkpt>
      <trkpt lat="44.90979" lon="6.72358">
        <ele>2096.9</ele>
        <time>2025-01-20T12:44:45Z</time>
      </trkpt>
      <trkpt lat="44.90979" lon="6.72358">
        <ele>2096.9</ele>
        <time>2025-01-20T12:44:54Z</time>
      </trkpt>
      <trkpt lat="44.90979" lon="6.72358">
        <ele>2096.9</ele>
        <time>2025-01-20T12:45:03Z</time>
      </trkpt>
      <trkpt lat="44.90979" lon="6.72358">
        <ele>2096.9</ele>
        <time>2025-01-20T12:45:12Z</time>
      </trkpt>
      <trkpt lat="44.90979" lon="6.72358">
        <ele>2096.9</ele>
        <time>2025-01-20T12:45:31Z</time>
      </trkpt>
      <trkpt lat="44.90979" lon="6.72358">
        <ele>2096.9</ele>
        <time>2025-01-20T12:45:56Z</time>
      </trkpt>
      <trkpt lat="44.90979" lon="6.72358">
        <ele>2096.9</ele>
        <time>2025-01-20T12:46:10Z</time>
      </trkpt>
      <trkpt lat="44.90979" lon="6.72358">
        <ele>2096.9</ele>
        <time>2025-01-20T12:46:19Z</time>
      </trkpt>
      <trkpt lat="44.90979" lon="6.72358">
        <ele>2096.9</ele>
        <time>2025-01-20T12:46:26Z</time>
      </trkpt>
      <trkpt lat="44.90979" lon="6.72358">
        <ele>2096.9</ele>
        <time>2025-01-20T12:46:34Z</time>
      </trkpt>
      <trkpt lat="44.90979" lon="6.72358">
        <ele>2096.9</ele>
        <time>2025-01-20T12:46:44Z</time>
      </trkpt>
      <trkpt lat="44.90979" lon="6.72358">
        <ele>2096.9</ele>
        <time>2025-01-20T12:46:53Z</time>
      </trkpt>
      <trkpt lat="44.90979" lon="6.72358">
        <ele>2096.9</ele>
        <time>2025-01-20T12:47:03Z</time>
      </trkpt>
      <trkpt lat="44.90979" lon="6.72358">
        <ele>2096.9</ele>
        <time>2025-01-20T12:47:09Z</time>
      </trkpt>
      <trkpt lat="44.90979" lon="6.72358">
        <ele>2096.9</ele>
        <time>2025-01-20T12:47:15Z</time>
      </trkpt>
      <trkpt lat="44.90979" lon="6.72358">
        <ele>2096.9</ele>
        <time>2025-01-20T12:47:30Z</time>
      </trkpt>
      <trkpt lat="44.90979" lon="6.72358">
        <ele>2096.9</ele>
        <time>2025-01-20T12:47:43Z</time>
      </trkpt>
      <trkpt lat="44.90979" lon="6.72358">
        <ele>2096.9</ele>
        <time>2025-01-20T12:47:53Z</time>
      </trkpt>
      <trkpt lat="44.90979" lon="6.72358">
        <ele>2096.9</ele>
        <time>2025-01-20T12:48:02Z</time>
      </trkpt>
      <trkpt lat="44.90979" lon="6.72358">
        <ele>2096.9</ele>
        <time>2025-01-20T12:48:16Z</time>
      </trkpt>
      <trkpt lat="44.90979" lon="6.72358">
        <ele>2096.9</ele>
        <time>2025-01-20T12:48:25Z</time>
      </trkpt>
      <trkpt lat="44.90979" lon="6.72358">
        <ele>2096.9</ele>
        <time>2025-01-20T12:48:31Z</time>
      </trkpt>
      <trkpt lat="44.90979" lon="6.72358">
        <ele>2096.9</ele>
        <time>2025-01-20T12:48:42Z</time>
      </trkpt>
      <trkpt lat="44.90979" lon="6.72358">
        <ele>2096.9</ele>
        <time>2025-01-20T12:48:51Z</time>
      </trkpt>
      <trkpt lat="44.90979" lon="6.72358">
        <ele>2096.9</ele>
        <time>2025-01-20T12:49:07Z</time>
      </trkpt>
      <trkpt lat="44.90979" lon="6.72358">
        <ele>2096.9</ele>
        <time>2025-01-20T12:49:28Z</time>
      </trkpt>
      <trkpt lat="44.90979" lon="6.72358">
        <ele>2096.9</ele>
        <time>2025-01-20T12:49:46Z</time>
      </trkpt>
      <trkpt lat="44.90979" lon="6.72358">
        <ele>2096.9</ele>
        <time>2025-01-20T12:50:04Z</time>
      </trkpt>
      <trkpt lat="44.90979" lon="6.72358">
        <ele>2096.9</ele>
        <time>2025-01-20T12:50:20Z</time>
      </trkpt>
      <trkpt lat="44.90979" lon="6.72358">
        <ele>2096.9</ele>
        <time>2025-01-20T12:50:40Z</time>
      </trkpt>
      <trkpt lat="44.90979" lon="6.72358">
        <ele>2096.9</ele>
        <time>2025-01-20T12:50:53Z</time>
      </trkpt>
      <trkpt lat="44.90979" lon="6.72358">
        <ele>2096.9</ele>
        <time>2025-01-20T12:50:58Z</time>
      </trkpt>
      <trkpt lat="44.90979" lon="6.72358">
        <ele>2096.9</ele>
        <time>2025-01-20T12:51:05Z</time>
      </trkpt>
      <trkpt lat="44.90994" lon="6.72361">
        <ele>2095.7</ele>
        <time>2025-01-20T12:51:12Z</time>
      </trkpt>
      <trkpt lat="44.90994" lon="6.72361">
        <ele>2095.7</ele>
        <time>2025-01-20T12:51:16Z</time>
      </trkpt>
      <trkpt lat="44.90994" lon="6.72361">
        <ele>2095.7</ele>
        <time>2025-01-20T12:51:19Z</time>
      </trkpt>
      <trkpt lat="44.90994" lon="6.72361">
        <ele>2095.7</ele>
        <time>2025-01-20T12:51:24Z</time>
      </trkpt>
      <trkpt lat="44.90994" lon="6.72361">
        <ele>2095.7</ele>
        <time>2025-01-20T12:51:29Z</time>
      </trkpt>
      <trkpt lat="44.90994" lon="6.72361">
        <ele>2095.7</ele>
        <time>2025-01-20T12:51:35Z</time>
      </trkpt>
      <trkpt lat="44.90994" lon="6.72361">
        <ele>2095.7</ele>
        <time>2025-01-20T12:51:42Z</time>
      </trkpt>
      <trkpt lat="44.91005" lon="6.72347">
        <ele>2094.6</ele>
        <time>2025-01-20T12:51:46Z</time>
      </trkpt>
      <trkpt lat="44.91008" lon="6.72344">
        <ele>2094.5</ele>
        <time>2025-01-20T12:51:48Z</time>
      </trkpt>
      <trkpt lat="44.91017" lon="6.72332">
        <ele>2094.2</ele>
        <time>2025-01-20T12:51:52Z</time>
      </trkpt>
      <trkpt lat="44.9102" lon="6.72328">
        <ele>2093.5</ele>
        <time>2025-01-20T12:51:54Z</time>
      </trkpt>
      <trkpt lat="44.91029" lon="6.72317">
        <ele>2091.5</ele>
        <time>2025-01-20T12:51:56Z</time>
      </trkpt>
      <trkpt lat="44.91032" lon="6.72314">
        <ele>2091.2</ele>
        <time>2025-01-20T12:51:57Z</time>
      </trkpt>
      <trkpt lat="44.91037" lon="6.72307">
        <ele>2090.9</ele>
        <time>2025-01-20T12:51:59Z</time>
      </trkpt>
      <trkpt lat="44.91039" lon="6.72304">
        <ele>2090.7</ele>
        <time>2025-01-20T12:52:00Z</time>
      </trkpt>
      <trkpt lat="44.91057" lon="6.72291">
        <ele>2090.1</ele>
        <time>2025-01-20T12:52:07Z</time>
      </trkpt>
      <trkpt lat="44.91073" lon="6.72281">
        <ele>2089.7</ele>
        <time>2025-01-20T12:52:13Z</time>
      </trkpt>
      <trkpt lat="44.9109" lon="6.72275">
        <ele>2088.8</ele>
        <time>2025-01-20T12:52:20Z</time>
      </trkpt>
      <trkpt lat="44.91113" lon="6.72282">
        <ele>2087.2</ele>
        <time>2025-01-20T12:52:26Z</time>
      </trkpt>
      <trkpt lat="44.91122" lon="6.72284">
        <ele>2086.5</ele>
        <time>2025-01-20T12:52:29Z</time>
      </trkpt>
      <trkpt lat="44.91133" lon="6.72288">
        <ele>2085.4</ele>
        <time>2025-01-20T12:52:31Z</time>
      </trkpt>
      <trkpt lat="44.91146" lon="6.72291">
        <ele>2084.3</ele>
        <time>2025-01-20T12:52:35Z</time>
      </trkpt>
      <trkpt lat="44.91166" lon="6.723">
        <ele>2082.5</ele>
        <time>2025-01-20T12:52:40Z</time>
      </trkpt>
      <trkpt lat="44.91171" lon="6.72304">
        <ele>2081.9</ele>
        <time>2025-01-20T12:52:41Z</time>
      </trkpt>
      <trkpt lat="44.91178" lon="6.72308">
        <ele>2081</ele>
        <time>2025-01-20T12:52:42Z</time>
      </trkpt>
      <trkpt lat="44.91185" lon="6.72313">
        <ele>2080.1</ele>
        <time>2025-01-20T12:52:44Z</time>
      </trkpt>
      <trkpt lat="44.91189" lon="6.72316">
        <ele>2079.4</ele>
        <time>2025-01-20T12:52:46Z</time>
      </trkpt>
      <trkpt lat="44.91204" lon="6.72325">
        <ele>2077.3</ele>
        <time>2025-01-20T12:52:48Z</time>
      </trkpt>
      <trkpt lat="44.91208" lon="6.72329">
        <ele>2076.7</ele>
        <time>2025-01-20T12:52:49Z</time>
      </trkpt>
      <trkpt lat="44.91213" lon="6.72332">
        <ele>2076</ele>
        <time>2025-01-20T12:52:50Z</time>
      </trkpt>
      <trkpt lat="44.91221" lon="6.72337">
        <ele>2074.7</ele>
        <time>2025-01-20T12:52:52Z</time>
      </trkpt>
      <trkpt lat="44.91229" lon="6.72342">
        <ele>2073.6</ele>
        <time>2025-01-20T12:52:54Z</time>
      </trkpt>
      <trkpt lat="44.91237" lon="6.72348">
        <ele>2072.4</ele>
        <time>2025-01-20T12:52:56Z</time>
      </trkpt>
      <trkpt lat="44.91245" lon="6.72353">
        <ele>2071.1</ele>
        <time>2025-01-20T12:52:58Z</time>
      </trkpt>
      <trkpt lat="44.91248" lon="6.72355">
        <ele>2070.5</ele>
        <time>2025-01-20T12:52:59Z</time>
      </trkpt>
      <trkpt lat="44.91252" lon="6.72358">
        <ele>2069.8</ele>
        <time>2025-01-20T12:53:00Z</time>
      </trkpt>
      <trkpt lat="44.9126" lon="6.72363">
        <ele>2068.4</ele>
        <time>2025-01-20T12:53:02Z</time>
      </trkpt>
      <trkpt lat="44.91263" lon="6.72365">
        <ele>2067.7</ele>
        <time>2025-01-20T12:53:03Z</time>
      </trkpt>
      <trkpt lat="44.91271" lon="6.7237">
        <ele>2066.2</ele>
        <time>2025-01-20T12:53:05Z</time>
      </trkpt>
      <trkpt lat="44.91279" lon="6.72375">
        <ele>2064.7</ele>
        <time>2025-01-20T12:53:07Z</time>
      </trkpt>
      <trkpt lat="44.91286" lon="6.72381">
        <ele>2063.2</ele>
        <time>2025-01-20T12:53:09Z</time>
      </trkpt>
      <trkpt lat="44.91303" lon="6.72395">
        <ele>2059.9</ele>
        <time>2025-01-20T12:53:13Z</time>
      </trkpt>
      <trkpt lat="44.91311" lon="6.72405">
        <ele>2058.5</ele>
        <time>2025-01-20T12:53:15Z</time>
      </trkpt>
      <trkpt lat="44.9132" lon="6.7241">
        <ele>2057.3</ele>
        <time>2025-01-20T12:53:17Z</time>
      </trkpt>
      <trkpt lat="44.91329" lon="6.72413">
        <ele>2056.4</ele>
        <time>2025-01-20T12:53:19Z</time>
      </trkpt>
      <trkpt lat="44.91341" lon="6.72418">
        <ele>2055.4</ele>
        <time>2025-01-20T12:53:22Z</time>
      </trkpt>
      <trkpt lat="44.91349" lon="6.72421">
        <ele>2054.6</ele>
        <time>2025-01-20T12:53:25Z</time>
      </trkpt>
      <trkpt lat="44.91363" lon="6.72424">
        <ele>2053.5</ele>
        <time>2025-01-20T12:53:27Z</time>
      </trkpt>
      <trkpt lat="44.91367" lon="6.72425">
        <ele>2053.2</ele>
        <time>2025-01-20T12:53:28Z</time>
      </trkpt>
      <trkpt lat="44.91375" lon="6.72425">
        <ele>2052.5</ele>
        <time>2025-01-20T12:53:30Z</time>
      </trkpt>
      <trkpt lat="44.9138" lon="6.72426">
        <ele>2052.2</ele>
        <time>2025-01-20T12:53:31Z</time>
      </trkpt>
      <trkpt lat="44.91405" lon="6.72428">
        <ele>2050.4</ele>
        <time>2025-01-20T12:53:38Z</time>
      </trkpt>
      <trkpt lat="44.91413" lon="6.72429">
        <ele>2049.8</ele>
        <time>2025-01-20T12:53:39Z</time>
      </trkpt>
      <trkpt lat="44.91429" lon="6.72434">
        <ele>2048.3</ele>
        <time>2025-01-20T12:53:43Z</time>
      </trkpt>
      <trkpt lat="44.91441" lon="6.72441">
        <ele>2046.8</ele>
        <time>2025-01-20T12:53:46Z</time>
      </trkpt>
      <trkpt lat="44.91441" lon="6.72441">
        <ele>2046.8</ele>
        <time>2025-01-20T12:53:47Z</time>
      </trkpt>
      <trkpt lat="44.91453" lon="6.72448">
        <ele>2045</ele>
        <time>2025-01-20T12:53:49Z</time>
      </trkpt>
      <trkpt lat="44.91457" lon="6.7245">
        <ele>2044.3</ele>
        <time>2025-01-20T12:53:51Z</time>
      </trkpt>
      <trkpt lat="44.91467" lon="6.72456">
        <ele>2042.7</ele>
        <time>2025-01-20T12:53:53Z</time>
      </trkpt>
      <trkpt lat="44.91469" lon="6.72457">
        <ele>2042.2</ele>
        <time>2025-01-20T12:53:54Z</time>
      </trkpt>
      <trkpt lat="44.91481" lon="6.72464">
        <ele>2040.3</ele>
        <time>2025-01-20T12:53:58Z</time>
      </trkpt>
      <trkpt lat="44.91506" lon="6.72479">
        <ele>2037</ele>
        <time>2025-01-20T12:54:05Z</time>
      </trkpt>
      <trkpt lat="44.91525" lon="6.72487">
        <ele>2034.7</ele>
        <time>2025-01-20T12:54:10Z</time>
      </trkpt>
      <trkpt lat="44.91535" lon="6.72486">
        <ele>2033.5</ele>
        <time>2025-01-20T12:54:12Z</time>
      </trkpt>
      <trkpt lat="44.91545" lon="6.72485">
        <ele>2032.3</ele>
        <time>2025-01-20T12:54:14Z</time>
      </trkpt>
      <trkpt lat="44.91553" lon="6.72484">
        <ele>2031.2</ele>
        <time>2025-01-20T12:54:16Z</time>
      </trkpt>
      <trkpt lat="44.91561" lon="6.72483">
        <ele>2030.1</ele>
        <time>2025-01-20T12:54:18Z</time>
      </trkpt>
      <trkpt lat="44.9157" lon="6.72482">
        <ele>2028.9</ele>
        <time>2025-01-20T12:54:20Z</time>
      </trkpt>
      <trkpt lat="44.9157" lon="6.72482">
        <ele>2028.9</ele>
        <time>2025-01-20T12:54:21Z</time>
      </trkpt>
      <trkpt lat="44.91584" lon="6.7248">
        <ele>2026.8</ele>
        <time>2025-01-20T12:54:23Z</time>
      </trkpt>
      <trkpt lat="44.91594" lon="6.72479">
        <ele>2025.4</ele>
        <time>2025-01-20T12:54:25Z</time>
      </trkpt>
      <trkpt lat="44.91605" lon="6.72478">
        <ele>2023.9</ele>
        <time>2025-01-20T12:54:27Z</time>
      </trkpt>
      <trkpt lat="44.91616" lon="6.72476">
        <ele>2022.4</ele>
        <time>2025-01-20T12:54:29Z</time>
      </trkpt>
      <trkpt lat="44.91627" lon="6.72475">
        <ele>2021</ele>
        <time>2025-01-20T12:54:31Z</time>
      </trkpt>
      <trkpt lat="44.91636" lon="6.72474">
        <ele>2019.9</ele>
        <time>2025-01-20T12:54:33Z</time>
      </trkpt>
      <trkpt lat="44.91647" lon="6.72472">
        <ele>2018.1</ele>
        <time>2025-01-20T12:54:36Z</time>
      </trkpt>
      <trkpt lat="44.91651" lon="6.72471">
        <ele>2017.4</ele>
        <time>2025-01-20T12:54:37Z</time>
      </trkpt>
      <trkpt lat="44.91656" lon="6.72468">
        <ele>2016.6</ele>
        <time>2025-01-20T12:54:39Z</time>
      </trkpt>
      <trkpt lat="44.91666" lon="6.72464">
        <ele>2014.6</ele>
        <time>2025-01-20T12:54:40Z</time>
      </trkpt>
      <trkpt lat="44.91676" lon="6.72459">
        <ele>2012.7</ele>
        <time>2025-01-20T12:54:42Z</time>
      </trkpt>
      <trkpt lat="44.91693" lon="6.72451">
        <ele>2010.3</ele>
        <time>2025-01-20T12:54:45Z</time>
      </trkpt>
      <trkpt lat="44.91735" lon="6.7244">
        <ele>2007.4</ele>
        <time>2025-01-20T12:54:53Z</time>
      </trkpt>
      <trkpt lat="44.91767" lon="6.72437">
        <ele>2005.3</ele>
        <time>2025-01-20T12:55:00Z</time>
      </trkpt>
      <trkpt lat="44.91771" lon="6.72437">
        <ele>2005</ele>
        <time>2025-01-20T12:55:01Z</time>
      </trkpt>
      <trkpt lat="44.91793" lon="6.72435">
        <ele>2003.5</ele>
        <time>2025-01-20T12:55:06Z</time>
      </trkpt>
      <trkpt lat="44.91827" lon="6.72431">
        <ele>2000.9</ele>
        <time>2025-01-20T12:55:13Z</time>
      </trkpt>
      <trkpt lat="44.91842" lon="6.72426">
        <ele>1999.6</ele>
        <time>2025-01-20T12:55:18Z</time>
      </trkpt>
      <trkpt lat="44.91857" lon="6.72422">
        <ele>1998.1</ele>
        <time>2025-01-20T12:55:22Z</time>
      </trkpt>
      <trkpt lat="44.91866" lon="6.7242">
        <ele>1997.3</ele>
        <time>2025-01-20T12:55:23Z</time>
      </trkpt>
      <trkpt lat="44.91887" lon="6.72414">
        <ele>1995.2</ele>
        <time>2025-01-20T12:55:27Z</time>
      </trkpt>
      <trkpt lat="44.91897" lon="6.72411">
        <ele>1994.4</ele>
        <time>2025-01-20T12:55:29Z</time>
      </trkpt>
      <trkpt lat="44.91902" lon="6.72409">
        <ele>1994</ele>
        <time>2025-01-20T12:55:30Z</time>
      </trkpt>
      <trkpt lat="44.91921" lon="6.72404">
        <ele>1992.7</ele>
        <time>2025-01-20T12:55:35Z</time>
      </trkpt>
      <trkpt lat="44.91944" lon="6.72397">
        <ele>1991.2</ele>
        <time>2025-01-20T12:55:39Z</time>
      </trkpt>
      <trkpt lat="44.91953" lon="6.72393">
        <ele>1990.5</ele>
        <time>2025-01-20T12:55:41Z</time>
      </trkpt>
      <trkpt lat="44.91962" lon="6.72389">
        <ele>1989.6</ele>
        <time>2025-01-20T12:55:44Z</time>
      </trkpt>
      <trkpt lat="44.91977" lon="6.72382">
        <ele>1988.1</ele>
        <time>2025-01-20T12:55:46Z</time>
      </trkpt>
      <trkpt lat="44.91982" lon="6.72379">
        <ele>1987.6</ele>
        <time>2025-01-20T12:55:48Z</time>
      </trkpt>
      <trkpt lat="44.91992" lon="6.72375">
        <ele>1986.5</ele>
        <time>2025-01-20T12:55:49Z</time>
      </trkpt>
      <trkpt lat="44.91992" lon="6.72375">
        <ele>1986.5</ele>
        <time>2025-01-20T12:55:50Z</time>
      </trkpt>
      <trkpt lat="44.92005" lon="6.72368">
        <ele>1985.1</ele>
        <time>2025-01-20T12:55:52Z</time>
      </trkpt>
      <trkpt lat="44.92009" lon="6.72366">
        <ele>1984.6</ele>
        <time>2025-01-20T12:55:53Z</time>
      </trkpt>
      <trkpt lat="44.92014" lon="6.72364">
        <ele>1984.2</ele>
        <time>2025-01-20T12:55:54Z</time>
      </trkpt>
      <trkpt lat="44.92023" lon="6.7236">
        <ele>1983.2</ele>
        <time>2025-01-20T12:55:56Z</time>
      </trkpt>
      <trkpt lat="44.92027" lon="6.72358">
        <ele>1982.7</ele>
        <time>2025-01-20T12:55:57Z</time>
      </trkpt>
      <trkpt lat="44.92032" lon="6.72356">
        <ele>1982.1</ele>
        <time>2025-01-20T12:55:58Z</time>
      </trkpt>
      <trkpt lat="44.92047" lon="6.72349">
        <ele>1980.1</ele>
        <time>2025-01-20T12:56:01Z</time>
      </trkpt>
      <trkpt lat="44.92057" lon="6.72344">
        <ele>1978.7</ele>
        <time>2025-01-20T12:56:03Z</time>
      </trkpt>
      <trkpt lat="44.92066" lon="6.7234">
        <ele>1977.4</ele>
        <time>2025-01-20T12:56:05Z</time>
      </trkpt>
      <trkpt lat="44.92075" lon="6.72336">
        <ele>1976.2</ele>
        <time>2025-01-20T12:56:08Z</time>
      </trkpt>
      <trkpt lat="44.92084" lon="6.7233">
        <ele>1975</ele>
        <time>2025-01-20T12:56:09Z</time>
      </trkpt>
      <trkpt lat="44.92088" lon="6.72328">
        <ele>1974.5</ele>
        <time>2025-01-20T12:56:10Z</time>
      </trkpt>
      <trkpt lat="44.92096" lon="6.72323">
        <ele>1973.5</ele>
        <time>2025-01-20T12:56:12Z</time>
      </trkpt>
      <trkpt lat="44.921" lon="6.72321">
        <ele>1973</ele>
        <time>2025-01-20T12:56:13Z</time>
      </trkpt>
      <trkpt lat="44.92112" lon="6.72313">
        <ele>1971.6</ele>
        <time>2025-01-20T12:56:16Z</time>
      </trkpt>
      <trkpt lat="44.92117" lon="6.7231">
        <ele>1971</ele>
        <time>2025-01-20T12:56:19Z</time>
      </trkpt>
      <trkpt lat="44.92121" lon="6.72308">
        <ele>1970.7</ele>
        <time>2025-01-20T12:56:23Z</time>
      </trkpt>
      <trkpt lat="44.92123" lon="6.72307">
        <ele>1970.4</ele>
        <time>2025-01-20T12:56:24Z</time>
      </trkpt>
      <trkpt lat="44.92139" lon="6.72298">
        <ele>1968.8</ele>
        <time>2025-01-20T12:56:28Z</time>
      </trkpt>
      <trkpt lat="44.92152" lon="6.72291">
        <ele>1967.6</ele>
        <time>2025-01-20T12:56:31Z</time>
      </trkpt>
      <trkpt lat="44.92161" lon="6.72287">
        <ele>1966.7</ele>
        <time>2025-01-20T12:56:33Z</time>
      </trkpt>
      <trkpt lat="44.92161" lon="6.72287">
        <ele>1966.7</ele>
        <time>2025-01-20T12:56:34Z</time>
      </trkpt>
      <trkpt lat="44.92178" lon="6.72274">
        <ele>1964.7</ele>
        <time>2025-01-20T12:56:37Z</time>
      </trkpt>
      <trkpt lat="44.92187" lon="6.72266">
        <ele>1963.6</ele>
        <time>2025-01-20T12:56:39Z</time>
      </trkpt>
      <trkpt lat="44.92195" lon="6.72259">
        <ele>1962.5</ele>
        <time>2025-01-20T12:56:41Z</time>
      </trkpt>
      <trkpt lat="44.92199" lon="6.72256">
        <ele>1961.9</ele>
        <time>2025-01-20T12:56:42Z</time>
      </trkpt>
      <trkpt lat="44.92207" lon="6.72249">
        <ele>1960.8</ele>
        <time>2025-01-20T12:56:44Z</time>
      </trkpt>
      <trkpt lat="44.92214" lon="6.72243">
        <ele>1959.7</ele>
        <time>2025-01-20T12:56:46Z</time>
      </trkpt>
      <trkpt lat="44.92222" lon="6.72236">
        <ele>1958.4</ele>
        <time>2025-01-20T12:56:48Z</time>
      </trkpt>
      <trkpt lat="44.92232" lon="6.72228">
        <ele>1957</ele>
        <time>2025-01-20T12:56:50Z</time>
      </trkpt>
      <trkpt lat="44.92236" lon="6.72224">
        <ele>1956.3</ele>
        <time>2025-01-20T12:56:51Z</time>
      </trkpt>
      <trkpt lat="44.9224" lon="6.72221">
        <ele>1955.6</ele>
        <time>2025-01-20T12:56:52Z</time>
      </trkpt>
      <trkpt lat="44.92249" lon="6.72213">
        <ele>1954.1</ele>
        <time>2025-01-20T12:56:54Z</time>
      </trkpt>
      <trkpt lat="44.92253" lon="6.7221">
        <ele>1953.4</ele>
        <time>2025-01-20T12:56:56Z</time>
      </trkpt>
      <trkpt lat="44.92261" lon="6.72203">
        <ele>1952.2</ele>
        <time>2025-01-20T12:56:57Z</time>
      </trkpt>
      <trkpt lat="44.92265" lon="6.722">
        <ele>1951.5</ele>
        <time>2025-01-20T12:56:58Z</time>
      </trkpt>
      <trkpt lat="44.92268" lon="6.72196">
        <ele>1950.9</ele>
        <time>2025-01-20T12:57:00Z</time>
      </trkpt>
      <trkpt lat="44.92277" lon="6.72185">
        <ele>1949.2</ele>
        <time>2025-01-20T12:57:02Z</time>
      </trkpt>
      <trkpt lat="44.9228" lon="6.72181">
        <ele>1948.7</ele>
        <time>2025-01-20T12:57:03Z</time>
      </trkpt>
      <trkpt lat="44.92283" lon="6.72177">
        <ele>1948.1</ele>
        <time>2025-01-20T12:57:04Z</time>
      </trkpt>
      <trkpt lat="44.92288" lon="6.7217">
        <ele>1947.2</ele>
        <time>2025-01-20T12:57:06Z</time>
      </trkpt>
      <trkpt lat="44.92291" lon="6.72167">
        <ele>1946.7</ele>
        <time>2025-01-20T12:57:07Z</time>
      </trkpt>
      <trkpt lat="44.92294" lon="6.72163">
        <ele>1946.2</ele>
        <time>2025-01-20T12:57:09Z</time>
      </trkpt>
      <trkpt lat="44.923" lon="6.72156">
        <ele>1945.1</ele>
        <time>2025-01-20T12:57:10Z</time>
      </trkpt>
      <trkpt lat="44.92306" lon="6.72153">
        <ele>1944.1</ele>
        <time>2025-01-20T12:57:11Z</time>
      </trkpt>
      <trkpt lat="44.92319" lon="6.72146">
        <ele>1942.7</ele>
        <time>2025-01-20T12:57:13Z</time>
      </trkpt>
      <trkpt lat="44.92327" lon="6.72154">
        <ele>1942.2</ele>
        <time>2025-01-20T12:57:16Z</time>
      </trkpt>
      <trkpt lat="44.92333" lon="6.72159">
        <ele>1941.5</ele>
        <time>2025-01-20T12:57:18Z</time>
      </trkpt>
      <trkpt lat="44.92336" lon="6.72162">
        <ele>1941.1</ele>
        <time>2025-01-20T12:57:19Z</time>
      </trkpt>
      <trkpt lat="44.92341" lon="6.72166">
        <ele>1940.5</ele>
        <time>2025-01-20T12:57:21Z</time>
      </trkpt>
      <trkpt lat="44.92341" lon="6.72166">
        <ele>1940.5</ele>
        <time>2025-01-20T12:57:22Z</time>
      </trkpt>
      <trkpt lat="44.9235" lon="6.72174">
        <ele>1939.7</ele>
        <time>2025-01-20T12:57:24Z</time>
      </trkpt>
      <trkpt lat="44.92355" lon="6.72173">
        <ele>1938.3</ele>
        <time>2025-01-20T12:57:26Z</time>
      </trkpt>
      <trkpt lat="44.92359" lon="6.72171">
        <ele>1936.2</ele>
        <time>2025-01-20T12:57:27Z</time>
      </trkpt>
      <trkpt lat="44.92377" lon="6.72165">
        <ele>1931.2</ele>
        <time>2025-01-20T12:57:29Z</time>
      </trkpt>
      <trkpt lat="44.92384" lon="6.72169">
        <ele>1929.8</ele>
        <time>2025-01-20T12:57:31Z</time>
      </trkpt>
      <trkpt lat="44.92387" lon="6.72167">
        <ele>1929.3</ele>
        <time>2025-01-20T12:57:32Z</time>
      </trkpt>
      <trkpt lat="44.92395" lon="6.72162">
        <ele>1927.8</ele>
        <time>2025-01-20T12:57:34Z</time>
      </trkpt>
      <trkpt lat="44.92399" lon="6.72164">
        <ele>1927</ele>
        <time>2025-01-20T12:57:35Z</time>
      </trkpt>
      <trkpt lat="44.92404" lon="6.72162">
        <ele>1925.8</ele>
        <time>2025-01-20T12:57:38Z</time>
      </trkpt>
      <trkpt lat="44.92412" lon="6.72156">
        <ele>1924.2</ele>
        <time>2025-01-20T12:57:40Z</time>
      </trkpt>
      <trkpt lat="44.92415" lon="6.72153">
        <ele>1923.4</ele>
        <time>2025-01-20T12:57:41Z</time>
      </trkpt>
      <trkpt lat="44.92418" lon="6.7215">
        <ele>1922.7</ele>
        <time>2025-01-20T12:57:42Z</time>
      </trkpt>
      <trkpt lat="44.92433" lon="6.72165">
        <ele>1919.4</ele>
        <time>2025-01-20T12:57:44Z</time>
      </trkpt>
      <trkpt lat="44.92448" lon="6.72168">
        <ele>1916.5</ele>
        <time>2025-01-20T12:57:48Z</time>
      </trkpt>
      <trkpt lat="44.92457" lon="6.72164">
        <ele>1914.9</ele>
        <time>2025-01-20T12:57:50Z</time>
      </trkpt>
      <trkpt lat="44.92463" lon="6.72165">
        <ele>1914.1</ele>
        <time>2025-01-20T12:57:51Z</time>
      </trkpt>
      <trkpt lat="44.92468" lon="6.72166">
        <ele>1913.3</ele>
        <time>2025-01-20T12:57:52Z</time>
      </trkpt>
      <trkpt lat="44.92476" lon="6.72163">
        <ele>1911.9</ele>
        <time>2025-01-20T12:57:54Z</time>
      </trkpt>
      <trkpt lat="44.92488" lon="6.7217">
        <ele>1909.9</ele>
        <time>2025-01-20T12:57:58Z</time>
      </trkpt>
      <trkpt lat="44.92502" lon="6.72168">
        <ele>1907.7</ele>
        <time>2025-01-20T12:58:02Z</time>
      </trkpt>
      <trkpt lat="44.92514" lon="6.72171">
        <ele>1905.7</ele>
        <time>2025-01-20T12:58:05Z</time>
      </trkpt>
      <trkpt lat="44.92524" lon="6.72169">
        <ele>1904.1</ele>
        <time>2025-01-20T12:58:07Z</time>
      </trkpt>
      <trkpt lat="44.92528" lon="6.72171">
        <ele>1903.5</ele>
        <time>2025-01-20T12:58:08Z</time>
      </trkpt>
      <trkpt lat="44.92535" lon="6.72173">
        <ele>1902.4</ele>
        <time>2025-01-20T12:58:10Z</time>
      </trkpt>
      <trkpt lat="44.92536" lon="6.72171">
        <ele>1902</ele>
        <time>2025-01-20T12:58:11Z</time>
      </trkpt>
      <trkpt lat="44.92537" lon="6.72169">
        <ele>1901.8</ele>
        <time>2025-01-20T12:58:12Z</time>
      </trkpt>
      <trkpt lat="44.92536" lon="6.72165">
        <ele>1901.4</ele>
        <time>2025-01-20T12:58:15Z</time>
      </trkpt>
      <trkpt lat="44.92538" lon="6.72162">
        <ele>1900.9</ele>
        <time>2025-01-20T12:58:17Z</time>
      </trkpt>
      <trkpt lat="44.92545" lon="6.7216">
        <ele>1900</ele>
        <time>2025-01-20T12:58:19Z</time>
      </trkpt>
      <trkpt lat="44.92555" lon="6.72162">
        <ele>1898.4</ele>
        <time>2025-01-20T12:58:21Z</time>
      </trkpt>
      <trkpt lat="44.92565" lon="6.72166">
        <ele>1896.6</ele>
        <time>2025-01-20T12:58:23Z</time>
      </trkpt>
      <trkpt lat="44.9257" lon="6.72169">
        <ele>1895.8</ele>
        <time>2025-01-20T12:58:24Z</time>
      </trkpt>
      <trkpt lat="44.9258" lon="6.72177">
        <ele>1893.7</ele>
        <time>2025-01-20T12:58:27Z</time>
      </trkpt>
      <trkpt lat="44.92591" lon="6.72181">
        <ele>1891.6</ele>
        <time>2025-01-20T12:58:30Z</time>
      </trkpt>
      <trkpt lat="44.92596" lon="6.72185">
        <ele>1890.5</ele>
        <time>2025-01-20T12:58:31Z</time>
      </trkpt>
      <trkpt lat="44.92601" lon="6.72188">
        <ele>1889.5</ele>
        <time>2025-01-20T12:58:32Z</time>
      </trkpt>
      <trkpt lat="44.9261" lon="6.72187">
        <ele>1887.9</ele>
        <time>2025-01-20T12:58:34Z</time>
      </trkpt>
      <trkpt lat="44.92621" lon="6.7219">
        <ele>1885.9</ele>
        <time>2025-01-20T12:58:36Z</time>
      </trkpt>
      <trkpt lat="44.92625" lon="6.72193">
        <ele>1885</ele>
        <time>2025-01-20T12:58:37Z</time>
      </trkpt>
      <trkpt lat="44.9263" lon="6.72194">
        <ele>1884.2</ele>
        <time>2025-01-20T12:58:38Z</time>
      </trkpt>
      <trkpt lat="44.92647" lon="6.72196">
        <ele>1881.4</ele>
        <time>2025-01-20T12:58:41Z</time>
      </trkpt>
      <trkpt lat="44.92657" lon="6.722">
        <ele>1879.7</ele>
        <time>2025-01-20T12:58:43Z</time>
      </trkpt>
      <trkpt lat="44.92668" lon="6.72201">
        <ele>1878.1</ele>
        <time>2025-01-20T12:58:45Z</time>
      </trkpt>
      <trkpt lat="44.92673" lon="6.72203">
        <ele>1877.3</ele>
        <time>2025-01-20T12:58:46Z</time>
      </trkpt>
      <trkpt lat="44.92683" lon="6.72207">
        <ele>1875.7</ele>
        <time>2025-01-20T12:58:48Z</time>
      </trkpt>
      <trkpt lat="44.92695" lon="6.72208">
        <ele>1874</ele>
        <time>2025-01-20T12:58:50Z</time>
      </trkpt>
      <trkpt lat="44.92706" lon="6.72214">
        <ele>1872.2</ele>
        <time>2025-01-20T12:58:52Z</time>
      </trkpt>
      <trkpt lat="44.92714" lon="6.72223">
        <ele>1870.6</ele>
        <time>2025-01-20T12:58:54Z</time>
      </trkpt>
      <trkpt lat="44.92715" lon="6.72228">
        <ele>1870</ele>
        <time>2025-01-20T12:58:55Z</time>
      </trkpt>
      <trkpt lat="44.92716" lon="6.72231">
        <ele>1869.7</ele>
        <time>2025-01-20T12:58:56Z</time>
      </trkpt>
      <trkpt lat="44.92719" lon="6.72232">
        <ele>1869.1</ele>
        <time>2025-01-20T12:58:58Z</time>
      </trkpt>
      <trkpt lat="44.9273" lon="6.72224">
        <ele>1867.8</ele>
        <time>2025-01-20T12:59:01Z</time>
      </trkpt>
      <trkpt lat="44.92741" lon="6.72223">
        <ele>1866.6</ele>
        <time>2025-01-20T12:59:03Z</time>
      </trkpt>
      <trkpt lat="44.92746" lon="6.72224">
        <ele>1866.1</ele>
        <time>2025-01-20T12:59:04Z</time>
      </trkpt>
      <trkpt lat="44.92764" lon="6.72229">
        <ele>1864.1</ele>
        <time>2025-01-20T12:59:07Z</time>
      </trkpt>
      <trkpt lat="44.92776" lon="6.72236">
        <ele>1862.7</ele>
        <time>2025-01-20T12:59:09Z</time>
      </trkpt>
      <trkpt lat="44.92782" lon="6.72239">
        <ele>1862.1</ele>
        <time>2025-01-20T12:59:10Z</time>
      </trkpt>
      <trkpt lat="44.92799" lon="6.72244">
        <ele>1860.3</ele>
        <time>2025-01-20T12:59:13Z</time>
      </trkpt>
      <trkpt lat="44.92803" lon="6.72248">
        <ele>1859.8</ele>
        <time>2025-01-20T12:59:14Z</time>
      </trkpt>
      <trkpt lat="44.92833" lon="6.7226">
        <ele>1856.9</ele>
        <time>2025-01-20T12:59:19Z</time>
      </trkpt>
      <trkpt lat="44.92875" lon="6.72271">
        <ele>1853.4</ele>
        <time>2025-01-20T12:59:26Z</time>
      </trkpt>
      <trkpt lat="44.929" lon="6.72277">
        <ele>1852.3</ele>
        <time>2025-01-20T12:59:31Z</time>
      </trkpt>
      <trkpt lat="44.92903" lon="6.72278">
        <ele>1852.2</ele>
        <time>2025-01-20T12:59:32Z</time>
      </trkpt>
      <trkpt lat="44.92918" lon="6.72285">
        <ele>1851.5</ele>
        <time>2025-01-20T12:59:36Z</time>
      </trkpt>
      <trkpt lat="44.92932" lon="6.72292">
        <ele>1850.8</ele>
        <time>2025-01-20T12:59:39Z</time>
      </trkpt>
      <trkpt lat="44.92939" lon="6.723">
        <ele>1850.1</ele>
        <time>2025-01-20T12:59:41Z</time>
      </trkpt>
      <trkpt lat="44.92943" lon="6.72303">
        <ele>1849.8</ele>
        <time>2025-01-20T12:59:42Z</time>
      </trkpt>
      <trkpt lat="44.9295" lon="6.72303">
        <ele>1849.1</ele>
        <time>2025-01-20T12:59:44Z</time>
      </trkpt>
      <trkpt lat="44.92961" lon="6.72305">
        <ele>1847.9</ele>
        <time>2025-01-20T12:59:47Z</time>
      </trkpt>
      <trkpt lat="44.92963" lon="6.72302">
        <ele>1847.6</ele>
        <time>2025-01-20T12:59:48Z</time>
      </trkpt>
      <trkpt lat="44.92966" lon="6.72285">
        <ele>1846</ele>
        <time>2025-01-20T12:59:52Z</time>
      </trkpt>
      <trkpt lat="44.92965" lon="6.72268">
        <ele>1844.5</ele>
        <time>2025-01-20T12:59:56Z</time>
      </trkpt>
      <trkpt lat="44.92964" lon="6.72266">
        <ele>1844.3</ele>
        <time>2025-01-20T12:59:57Z</time>
      </trkpt>
      <trkpt lat="44.92962" lon="6.72267">
        <ele>1844.1</ele>
        <time>2025-01-20T13:00:01Z</time>
      </trkpt>
      <trkpt lat="44.92962" lon="6.72267">
        <ele>1844.1</ele>
        <time>2025-01-20T13:00:04Z</time>
      </trkpt>
    </trkseg>
  </trk>
</gpx>